     2.10           OBSERVATION DATA    G (GPS)             RINEX VERSION / TYPE
teqc 2002Apr3 Duncan Agnew 20050511 23:58:36UTC             PGM / RUN BY / DATE
OSX 5.3|G3|cc|OSX 5.3+|G3+                                  COMMENT
BIT 2 OF LLI FLAGS DATA COLLECTED UNDER A/S CONDITION       COMMENT
Q 1225 1971                                                 MARKER NAME
9498                                                        MARKER NUMBER
Mark Wyatt Caltrans District 11                             OBSERVER / AGENCY
220309498 TRIMBLE 5700 NP 1.24 / SP 1.24                    REC # / TYPE / VERS
12235206 TRM41249.00                                        ANT # / TYPE
 -2303729.0000 -4827962.0000  3461563.0000                  APPROX POSITION XYZ
        1.8900        0.0000        0.0000                  ANTENNA: DELTA H/E/N
     1     1                                                WAVELENGTH FACT L1/2
     7    C1    L1    L2    P1    P2    S1    S2            # / TYPES OF OBSERV
SNR is mapped to RINEX snr flag value [1-9]                 COMMENT
L1: 3 -> 1; 8 -> 5; 40 -> 9                                 COMMENT
L2: 1 -> 1; 5 -> 5; 60 -> 9                                 COMMENT
  2004     7     7    13    52   50.0000000     GPS         TIME OF FIRST OBS
                                                            END OF HEADER
 04  7  7 13 52 50.0000000  0  8G 6G10G17G18G21G26G29G30
  20073395.5784     -66830.18059    -47369.15858                  20073393.7854
        51.2504         41.0004
  23628865.1174      70307.80559     39468.78057                  23628864.0554
        44.5004         27.5004
  23463039.1174      11966.72359      3153.09556                  23463038.1254
        42.5004         22.5004
  21526220.1564    -180349.70759   -117916.69857                  21526217.7114
        49.7504         37.0004
  21243097.9384    -133202.77759    -87718.76057                  21243094.7154
        51.5004         38.5004
  21769167.3594    -138171.87959    -91959.46757                  21769165.5744
        46.2504         33.2504
  22300318.5084     -86868.55559    -59328.89957                  22300316.7974
        45.2504         31.7504
  23211252.6804      63179.02759     34816.13057                  23211251.5164
        43.7504         27.7504
 04  7  7 13 53  0.0000000  0  8G 6G10G17G18G21G26G29G30
  20070329.5084     -82944.66049    -59925.91448                  20070327.3324
        50.5004         40.5004
  23631909.9144      86309.42649     51937.53647                  23631908.5944
        43.7504         26.2504
  23463513.8754      14462.37949      5097.71746                  23463512.9264
        43.2504         22.2504
  21518222.9614    -222376.34049   -150664.73647                  21518220.5864
        48.7504         36.7504
  21237167.2034    -164369.98449   -112004.90647                  21237163.5354
        50.7504         38.2504
  21763097.1254    -170070.57849   -116815.58347                  21763095.6454
        45.7504         32.5004
  22296437.6484    -107266.58649    -75223.47347                  22296435.6684
        45.7504         30.5004
  23213969.0084      77454.90649     45940.12947                  23213967.8714
        42.7504         27.7504
 04  7  7 13 53 10.0000000  0  8G 6G10G17G18G21G26G29G30
  20067260.0864     -99073.19149    -72493.60547                  20067258.0274
        50.0004         39.0004
  23634944.5554     102254.28149     64362.07547                  23634942.5514
        43.7504         26.5004
  23463977.4304      16897.59049      6995.27546                  23463976.8444
        43.5004         22.5004
  21510220.8674    -264428.16049   -183432.38747                  21510218.2814
        49.2504         35.7504
  21231226.6024    -195588.23449   -136330.81447                  21231222.9534
        50.7504         37.5004
  21757026.3524    -201972.77349   -141674.45447                  21757024.6294
        46.5004         32.0004
  22292554.1174    -127670.91449    -91122.95147                  22292553.2774
        44.5004         29.2504
  23216674.3444      91671.27349     57017.81447                  23216673.2194
        41.0004         26.7504
 04  7  7 13 53 20.0000000  0 11G 6G10G15G16G17G18G21G26G29G30G22
  20064190.0634    -115207.38349    -85065.70648                  20064187.8134
        51.2504         39.5004
  23637969.8134     118150.59449     76748.77847                  23637968.1374
        43.5004         26.5004
  24470746.0474    -149925.77759   -106203.74456                  24470744.1994
        40.5004         21.0004
  24075550.5864    -125888.85959    -89844.57756                  24075547.4304
        41.5004         21.7504
  23464431.0784      19280.59449      8852.11246                  23464430.0474
        43.7504         22.5004
  21502215.4774    -306496.89549   -216213.21947                  21502212.5354
        50.5004         36.5004
  21225277.5634    -226849.33249   -160690.12447                  21225274.1414
        51.0004         38.0004
  21750956.4224    -233870.06249   -166529.49847                  21750954.8444
        46.2504         32.7504
  22288671.3054    -148073.28549   -107020.91947                  22288670.4774
        44.7504         30.0004
  23219370.3984     105836.32049     68055.50147                  23219368.9614
        43.5004         27.2504
  24052006.7584    -179598.23459   -126360.27957                  24052002.3794
        43.0004         26.0004
 04  7  7 13 53 30.0000000  0 11G 6G10G15G16G17G18G21G26G29G30G22
  20061119.5944    -131341.50449    -97637.76248                  20061117.8244
        50.0004         39.5004
  23640986.5944     134003.97749     89102.05646                  23640985.0004
        43.7504         23.7504
  24462429.3674    -193630.00849   -140258.96146                  24462427.4694
        41.2504         19.0004
  24068583.7814    -162499.15649   -118372.10146                  24068580.3834
        39.2504         21.7504
  23464875.4064      21617.10549     10672.75746                  23464874.7544
        43.2504         22.0004
  21494207.8054    -348576.64549   -249002.65647                  21494204.7034
        49.2504         35.5004
  21219321.8204    -258147.47349   -185078.29347                  21219318.6134
        49.7504         37.2504
  21744888.5164    -265756.59849   -191376.14747                  21744887.1724
        43.5004         32.0004
  22284790.8914    -168467.96949   -122912.86647                  22284789.4224
        45.5004         28.7504
  23222057.2584     119955.67649     79057.58147                  23222055.9804
        42.0004         27.0004
  24042055.3364    -231892.40249   -167109.00746                  24042051.3094
        42.5004         25.5004
 04  7  7 13 53 40.0000000  0 11G 6G10G15G16G17G18G21G26G29G30G22
  20058050.1094    -147471.18749   -110206.34848                  20058048.1524
        50.2504         40.0004
  23643995.4304     149818.76249    101425.20547                  23643994.4454
        43.5004         26.0004
  24454104.2814    -237378.82449   -174349.09546                  24454101.9224
        40.2504         18.5004
  24061618.1334    -199106.26649   -146897.15346                  24061614.1844
        40.2504         22.2504
  23465312.0474      23911.54749     12460.62246                  23465311.0354
        43.7504         22.7504
  21486199.0554    -390663.07449   -281797.27547                  21486196.1994
        49.0004         37.0004
  21213359.6954    -289478.23449   -209491.86747                  21213356.2854
        47.5004         38.2504
  21738823.3524    -297627.94149   -216210.95047                  21738822.3284
        41.0004         32.2504
  22280911.7274    -188850.41849   -138795.30347                  22280910.4734
        44.5004         30.2504
  23224735.6094     134033.66449     90027.40647                  23224734.6524
        42.7504         28.5004
  24032098.3594    -284215.33649   -207880.12547                  24032094.6804
        42.5004         27.7504
 04  7  7 13 53 50.0000000  0 11G 6G10G15G16G17G18G21G26G29G30G22
  20054982.1484    -163592.96949   -122768.79148                  20054980.3134
        50.0004         39.7504
  23646998.1804     165598.17249    113720.85646                  23646997.0274
        42.5004         23.5004
  24445770.7504    -281168.82849   -208471.12946                  24445769.2854
        41.5004         19.5004
  24054652.4694    -235706.73049   -175416.95446                  24054649.4184
        40.0004         21.0004
  23465741.5394      26167.32049     14218.32146                  23465741.1484
        43.2504         22.0004
  21478189.4924    -432752.77749   -314594.45947                  21478187.1024
        49.0004         36.5004
  21207392.0314    -320838.25849   -233928.26047                  21207388.9614
        47.7504         37.5004
  21732762.0474    -329480.62149   -241031.23247                  21732760.9264
        41.0004         31.7504
  22277036.4774    -209217.31649   -154665.61447                  22277034.8204
        45.0004         29.5004
  23227407.7034     148073.50049    100967.52447                  23227406.8134
        42.5004         28.2504
  24022137.0864    -336563.63749   -248671.04346                  24022132.7424
        42.0004         25.5004
 04  7  7 13 53 59.9990000  0 11G 6G10G15G16G17G18G21G26G29G30G22
  20051917.2144    -179701.47349   -135320.88148                  20051915.1754
        50.5004         39.7504
  23649994.6674     181344.34849    125990.56446                  23649993.6634
        42.0004         23.0004
  24437431.5894    -324991.89149   -242619.04046                  24437430.1324
        41.2504         19.5004
  24047690.4334    -272293.19549   -203925.89046                  24047687.3514
        40.5004         21.7504
  23466163.7924      28387.96549     15948.67946                  23466162.5894
        42.0004         21.0004
  21470180.8944    -474837.75849   -347387.96147                  21470177.9564
        48.5004         37.0004
  21201420.2144    -352220.75449   -258382.16147                  21201416.8974
        48.5004         38.2504
  21726705.7534    -361307.66449   -265831.52947                  21726704.0774
        42.7504         32.0004
  22273164.7614    -229562.87549   -170519.31647                  22273163.0264
        45.0004         29.7504
  23230072.5584     162077.40649    111879.64647                  23230071.1794
        43.5004         29.2504
  24012172.2614    -388928.32449   -289474.68547                  24012168.3474
        41.7504         28.0004
 04  7  7 13 54  9.9990000  0 11G 6G10G15G16G17G18G21G26G29G30G22
  20048853.4334    -195800.71549   -147865.75648                  20048851.3744
        51.0004         39.7504
  23652985.1754     197059.58249    138236.16946                  23652983.7184
        41.5004         24.5004
  24429084.8234    -368857.59849   -276800.02846                  24429082.4254
        42.2504         20.0004
  24040729.4484    -308873.62549   -232430.14646                  24040726.5504
        41.5004         22.0004
  23466580.0504      30573.10949     17651.35746                  23466578.1404
        41.5004         21.0004
  21462171.9334    -516927.09049   -380184.83647                  21462168.8824
        48.5004         36.5004
  21195442.4954    -383632.70349   -282859.00447                  21195439.3824
        50.5004         38.0004
  21720652.9254    -393116.05549   -290617.30747                  21720651.4994
        43.7504         32.0004
  22269296.2844    -249891.86749   -186360.08847                  22269294.6474
        44.5004         30.0004
  23232731.0504     176047.37549    122765.32447                  23232729.6324
        43.5004         29.0004
  24002202.6834    -441320.40649   -330299.67347                  24002199.0034
        42.5004         28.2504
 04  7  7 13 54 19.9990000  0 11G 6G10G15G16G17G18G21G26G29G30G22
  20045792.7844    -211885.54749   -160399.40248                  20045790.6444
        50.7504         39.7504
  23655970.3554     212745.64549    150459.07646                  23655968.8664
        42.0004         23.0004
  24420730.1514    -412758.14549   -311008.23846                  24420728.5344
        40.2504         19.2504
  24033771.1444    -345440.88749   -260924.10346                  24033768.2924
        41.0004         22.0004
  23466989.0194      32725.98449     19328.90846                  23466987.8154
        42.0004         21.5004
  21454162.8004    -559013.22749   -412979.23447                  21454160.3514
        48.5004         36.2504
  21189460.7694    -415067.55549   -307353.70647                  21189457.7884
        49.5004         37.2504
  21714604.5194    -424899.12949   -315383.34647                  21714602.7104
        45.5004         31.5004
  22265432.1674    -270198.83249   -202183.71647                  22265430.4684
        44.7504         29.2504
  23235382.9484     189985.23449    133625.94647                  23235382.6324
        43.5004         29.7504
  23992229.2304    -493731.23449   -371139.26347                  23992225.3274
        43.0004         26.7504
 04  7  7 13 54 29.9990000  0 11G 6G10G15G16G17G18G21G26G29G30G22
  20042734.8704    -227954.40249   -172920.59648                  20042732.9334
        50.0004         39.7504
  23658949.5654     228403.98849    162660.34046                  23658948.1984
        42.5004         23.2504
  24412369.5734    -456691.91849   -345242.44546                  24412367.8044
        40.5004         16.7504
  24026815.4014    -381993.33649   -289406.54646                  24026812.4994
        38.7504         22.0004
  23467392.6514      34848.11349     20982.49246                  23467391.3784
        41.2504         21.0004
  21446155.1204    -601094.45349   -445769.80847                  21446152.6714
        47.2504         37.0004
  21183475.0264    -446523.74249   -331865.02447                  21183471.7844
        50.5004         37.5004
  21708561.6284    -456655.26649   -340128.38047                  21708559.7764
        42.5004         31.2504
  22261572.5264    -290482.16849   -217988.90047                  22261570.6754
        45.2504         29.2504
  23238029.9094     203892.49249    144462.76147                  23238029.4054
        42.0004         28.5004
  23982252.1514    -546159.10249   -411992.20547                  23982248.0854
        42.0004         26.0004
 04  7  7 13 54 39.9990000  0 11G 6G10G15G16G17G18G21G26G29G30G22
  20039680.4404    -244005.55549   -185427.99948                  20039678.3474
        50.5004         39.7504
  23661924.6124     244036.25449    174841.35746                  23661923.2724
        42.2504         24.5004
  24404004.1204    -500657.17649   -379501.07446                  24404001.9764
        41.0004         17.7504
  24019862.7374    -418529.12949   -317876.03146                  24019860.2614
        39.7504         21.5004
  23467791.1444      36941.22349     22613.47046                  23467790.2144
        41.0004         20.5004
  21438148.6754    -643169.02749   -478555.18447                  21438146.3784
        46.0004         36.2504
  21177485.0814    -477999.51249   -356391.60447                  21177482.3744
        50.0004         37.2504
  21702524.0974    -488382.52349   -364850.92247                  21702522.9254
        43.5004         31.5004
  22257717.2764    -310740.10249   -233774.32247                  22257715.8394
        45.2504         29.7504
  23240670.3784     217770.74649    155276.96847                  23240669.9684
        42.0004         28.2504
  23972273.1444    -598602.28549   -452857.02547                  23972268.6054
        40.5004         25.7504
 04  7  7 13 54 49.9990000  0 11G 6G10G15G16G17G18G21G26G29G30G22
  20036629.6984    -260037.51649   -197920.44148                  20036627.3704
        50.5004         40.5004
  23664894.8704     259643.90649    187003.09546                  23664892.9214
        41.2504         22.5004
  24395631.7454    -544652.43049   -413783.20446                  24395629.7334
        40.7504         18.2504
  24012914.6204    -455046.84849   -346331.40046                  24012910.5934
        42.0004         21.5004
  23468184.3554      39006.96549     24223.08046                  23468183.5304
        42.0004         21.2504
  21430143.6984    -685235.39149   -511334.18147                  21430141.4134
        47.7504         36.7504
  21171492.2144    -509493.34049   -380932.25947                  21171488.8624
        49.5004         37.5004
  21696492.1754    -520079.44949   -389549.82247                  21696490.8154
        46.2504         31.7504
  22253866.8084    -330971.11749   -249538.76447                  22253866.1714
        46.0004         30.2504
  23243306.6054     231621.45749    166069.68147                  23243305.8194
        43.5004         29.0004
  23962290.9874    -651059.25849   -493732.61247                  23962286.5854
        43.0004         26.0004
 04  7  7 13 54 59.9990000  0 11G 6G10G15G16G17G18G21G26G29G30G22
  20033582.9564    -276048.96149   -210396.90648                  20033580.7804
        50.5004         40.2504
  23667860.1674     275227.94549    199146.46746                  23667858.8864
        41.7504         24.5004
  24387253.7144    -588676.54749   -448087.67846                  24387252.2614
        40.0004         19.0004
  24005968.4094    -491545.23449   -374771.70346                  24005965.4994
        40.7504         22.7504
  23468572.7844      41046.41049     25812.24446                  23468572.0074
        42.0004         21.2504
  21422140.4014    -727292.41449   -544105.88747                  21422138.2224
        47.0004         36.7504
  21165496.0814    -541004.10949   -405486.11147                  21165492.7064
        48.5004         37.7504
  21690466.5264    -551744.72349   -414224.07047                  21690465.1084
        46.0004         32.5004
  22250023.4484    -351174.01649   -265281.28647                  22250021.7064
        45.5004         30.5004
  23245937.3004     245445.60549    176841.72847                  23245936.1834
        43.5004         29.5004
  23952305.9724    -703528.74249   -534617.92247                  23952301.6984
        41.7504         26.0004
 04  7  7 13 55  9.9990000  0 11G 6G10G15G16G17G18G21G26G29G30G22
  20030540.0424    -292038.06249   -222855.96248                  20030538.1554
        50.5004         40.7504
  23670821.1834     290790.21949    211272.89946                  23670820.2694
        41.2504         23.7504
  24378871.9954    -632727.66049   -482413.24346                  24378869.9094
        41.5004         19.7504
  23999027.2844    -528022.30549   -403195.41046                  23999024.2064
        41.5004         24.7504
  23468956.2534      43061.30949     27382.27046                  23468955.2304
        42.2504         21.5004
  21414139.4334    -769338.11749   -576868.78147                  21414136.9524
        46.2504         37.2504
  21159496.6834    -572529.89849   -430051.66247                  21159493.4444
        48.2504         39.0004
  21684447.2454    -583376.45749   -438872.18047                  21684445.7104
        44.5004         32.7504
  22246184.3154    -371346.98449   -281000.47547                  22246182.9764
        46.0004         30.7504
  23248562.8154     259245.00849    187594.48447                  23248561.9724
        42.7504         28.7504
  23942319.4254    -756008.79349   -575511.45847                  23942314.9054
        39.5004         26.7504
 04  7  7 13 55 19.9990000  0 11G 6G10G15G16G17G18G21G26G29G30G22
  20027501.6444    -308004.48049   -235297.34048                  20027499.6164
        49.7504         40.2504
  23673779.0734     306331.04349    223382.65147                  23673777.4804
        41.7504         26.0004
  24370483.6984    -676805.37549   -516759.42146                  24370482.0194
        41.5004         19.7504
  23992089.7924    -564477.71149   -431602.21246                  23992087.1444
        41.2504         22.5004
  23469335.5974      45052.13349     28933.48846                  23469334.2534
        42.7504         22.0004
  21406140.9644    -811372.02049   -609622.49347                  21406138.5934
        47.5004         38.0004
  21153494.8554    -604070.41049   -454628.70147                  21153491.4644
        49.2504         38.0004
  21678434.4254    -614974.18449   -463493.78347                  21678433.2924
        44.5004         32.5004
  22242350.9564    -391489.52349   -296695.98347                  22242349.8234
        46.0004         30.7504
  23251184.2844     273019.89149    198328.13447                  23251183.4914
        42.0004         29.2504
  23932330.3864    -808499.04349   -616412.97047                  23932326.6634
        41.0004         26.5004
 04  7  7 13 55 29.9990000  0 11G 6G10G15G16G17G18G21G26G29G30G22
  20024467.9804    -323947.77049   -247720.68648                  20024465.8004
        50.2504         40.2504
  23676732.8864     321850.55549    235475.68147                  23676731.1754
        42.5004         26.0004
  24362091.5734    -720909.38749   -551126.24746                  24362089.0224
        41.2504         19.2504
  23985156.9014    -600911.01649   -459991.83046                  23985154.2024
        40.5004         22.7504
  23469710.0974      47019.21949     30466.24246                  23469708.1474
        43.0004         21.7504
  21398144.4014    -853393.89149   -642366.80247                  21398141.9724
        48.2504         37.2504
  21147490.0424    -635625.30949   -479216.93647                  21147486.5654
        49.5004         38.0004
  21672428.1444    -646537.43749   -488088.51847                  21672427.0734
        45.5004         32.5004
  22238524.3084    -411601.37149   -312367.54747                  22238522.6244
        46.0004         30.5004
  23253800.6364     286770.39549    209042.80447                  23253799.7184
        42.2504         28.5004
  23922340.7924    -860999.02749   -657322.03946                  23922336.7304
        42.0004         24.7504
 04  7  7 13 55 39.9990000  0 11G 6G10G15G16G17G18G21G26G29G30G22
  20021439.3314    -339864.46549   -260123.31048                  20021437.1834
        50.0004         39.7504
  23679682.5584     337352.14149    247554.81746                  23679680.8624
        43.0004         24.7504
  24353694.6054    -765036.26649   -585510.82646                  24353692.0034
        41.2504         19.0004
  23978228.8624    -637318.69149   -488361.42346                  23978225.7414
        42.2504         22.5004
  23470080.4174      48966.05549     31983.26846                  23470079.1014
        42.5004         22.2504
  21390150.5734    -895400.12949   -675098.93647                  21390147.9994
        48.0004         36.7504
  21141483.4804    -667191.05149   -503813.61747                  21141480.4174
        49.2504         37.7504
  21666429.3234    -678062.73849   -512653.68847                  21666427.9524
        46.0004         32.2504
  22234703.1054    -431678.91049   -328012.39747                  22234702.1124
        46.0004         30.5004
  23256413.7144     300500.05149    219741.23447                  23256412.1754
        41.5004         27.5004
  23912348.8624    -913505.22749   -698235.94647                  23912345.1054
        41.5004         26.7504
 04  7  7 13 55 49.9990000  0 11G 6G10G15G16G17G18G21G26G29G30G22
  20018415.1364    -355755.93049   -272506.26748                  20018413.1284
        51.0004         40.0004
  23682629.1834     352834.37549    259618.90546                  23682627.4054
        43.7504         25.5004
  24345292.4644    -809187.35949   -619914.27846                  24345289.8824
        41.2504         19.2504
  23971304.5034    -673702.07449   -516712.12146                  23971302.0974
        40.2504         22.2504
  23470446.5814      50891.31349     33483.45746                  23470445.7884
        43.5004         22.0004
  21382160.1124    -937392.11749   -707819.96147                  21382157.0114
        47.0004         36.5004
  21135474.1364    -698769.01249   -528419.82247                  21135470.7454
        48.0004         37.7504
  21660437.1284    -709551.21549   -537190.17447                  21660435.9054
        45.7504         32.2504
  22230889.3154    -451723.57049   -343631.61247                  22230887.2844
        46.0004         29.5004
  23259021.3154     314207.29749    230422.16547                  23259020.9374
        42.2504         27.7504
  23902355.2924    -966018.90249   -739155.71846                  23902352.1754
        41.7504         25.2504
 04  7  7 13 55 59.9990000  0 11G 6G10G15G16G17G18G21G26G29G30G22
  20015396.4724    -371618.84049   -284866.98748                  20015394.5264
        51.5004         40.5004
  23685571.0894     368300.43049    271670.37546                  23685570.6014
        43.0004         25.0004
  24336887.2374    -853359.36749   -654334.08246                  24336884.6324
        41.5004         17.7504
  23964387.0584    -710057.80949   -545041.29246                  23964384.2964
        42.5004         22.2504
  23470808.6444      52798.24649     34969.33446                  23470808.6404
        43.0004         23.7504
  21374172.7224    -979366.52349   -740527.29147                  21374169.8194
        44.5004         37.0004
  21129463.4484    -730355.85949   -553032.96347                  21129459.8234
        46.5004         37.7504
  21654452.4094    -740999.62549   -561695.43047                  21654451.6714
        45.7504         32.7504
  22227081.6284    -471732.03149   -359222.62047                  22227080.1054
        46.0004         30.0004
  23261626.0814     327895.31649    241088.14647                  23261626.0194
        43.5004         27.0004
  23892361.2614   -1018536.74249   -780078.70846                  23892358.0424
        43.2504         23.5004
 04  7  7 13 56  9.9990000  0 11G 6G10G15G16G17G18G21G26G29G30G22
  20012383.3154    -387453.09849   -297205.39448                  20012381.3864
        51.0004         40.5004
  23688512.0344     383750.37949    283709.23546                  23688510.1404
        43.0004         24.2504
  24328476.7064    -897552.23049   -688770.08646                  24328474.9444
        40.5004         19.5004
  23957473.9174    -746385.68449   -573348.74646                  23957471.2694
        42.0004         22.5004
  23471168.9804      54686.95749     36441.01146                  23471167.6634
        43.0004         22.5004
  21366188.4014   -1021323.11749   -773220.76147                  21366185.9524
        48.0004         37.0004
  21123451.1444    -761951.59049   -577653.02147                  21123447.6874
        48.2504         38.2504
  21648475.7924    -772407.70349   -586169.26147                  21648474.8394
        47.2504         33.0004
  22223281.4254    -491704.05949   -374785.24947                  22223279.2064
        46.2504         30.7504
  23264227.4724     341564.09449    251739.11347                  23264227.1754
        42.5004         26.5004
  23882367.5814   -1071058.57049   -821004.80046                  23882363.0814
        42.5004         24.2504
 04  7  7 13 56 19.9990000  0 11G 6G10G15G16G17G18G21G26G29G30G22
  20009375.5894    -403259.43749   -309522.01448                  20009373.6164
        51.0004         40.5004
  23691448.3394     399183.25049    295734.85746                  23691447.0304
        43.5004         24.7504
  24320063.4014    -941766.85249   -723222.99446                  24320061.4294
        40.5004         18.5004
  23950565.9254    -782686.62949   -601635.16046                  23950563.3784
        41.0004         24.2504
  23471524.6514      56556.58649     37897.84646                  23471524.1164
        42.5004         22.5004
  21358207.0894   -1063262.78149   -805901.01347                  21358204.4054
        47.2504         37.0004
  21117436.6834    -793557.09449   -602280.68347                  21117433.5624
        48.5004         38.0004
  21642506.9874    -803776.32449   -610612.33647                  21642505.6674
        46.5004         32.7504
  22219487.2924    -511640.64149   -390320.22447                  22219485.9014
        45.5004         30.0004
  23266824.6834     355212.68049    262374.34247                  23266824.5934
        42.5004         28.0004
  23872371.3864   -1123585.23449   -861934.66547                  23872367.6714
        40.5004         26.2504
 04  7  7 13 56 29.9990000  0 11G 6G10G15G16G17G18G21G26G29G30G22
  20006373.3474    -419035.77049   -321815.29548                  20006371.2884
        51.0004         40.5004
  23694382.5504     414601.16049    307748.77247                  23694381.1514
        43.7504         26.2504
  24311646.3784    -986001.00049   -757691.19646                  24311644.4374
        41.0004         19.7504
  23943663.2764    -818958.33249   -629898.87246                  23943660.3124
        39.7504         23.0004
  23471877.4644      58409.31349     39341.49246                  23471876.4484
        43.5004         23.5004
  21350230.3004   -1105183.28949   -838566.37447                  21350227.2184
        46.5004         37.2504
  21111420.8784    -825170.11349   -626914.21947                  21111417.5814
        48.2504         38.0004
  21636545.1204    -835103.27049   -635022.95247                  21636544.1014
        47.0004         33.0004
  22215700.8084    -531539.50849   -405825.86447                  22215698.5304
        45.5004         30.7504
  23269418.5894     368843.16849    272995.46347                  23269418.3744
        43.2504         26.5004
  23862375.3624   -1176114.49649   -902866.60046                  23862371.1054
        42.2504         24.2504
 04  7  7 13 56 39.9990000  0 11G 6G10G15G16G17G18G21G26G29G30G22
  20003376.8474    -434781.53549   -334084.72248                  20003375.1324
        51.2504         40.2504
  23697313.6674     430004.52749    319751.36847                  23697312.1084
        43.7504         26.7504
  24303224.7844   -1030254.19949   -792174.21246                  24303223.6444
        40.0004         19.5004
  23936767.2374    -855200.30549   -658139.38346                  23936764.5774
        40.5004         23.7504
  23472226.4254      60245.62549     40772.33646                  23472225.9134
        42.5004         23.5004
  21342256.9254   -1147084.16049   -871216.39947                  21342254.3904
        47.0004         37.0004
  21105403.6124    -856790.21949   -651553.27247                  21105400.0544
        49.5004         37.5004
  21630592.1054    -866387.94949   -659400.62747                  21630590.6904
        46.5004         32.5004
  22211921.0814    -551400.18749   -421301.71747                  22211919.3124
        46.0004         31.2504
  23272008.6444     382455.93449    283602.77146                  23272008.4484
        42.5004         25.5004
  23852379.2844   -1228645.75449   -943800.00246                  23852374.9444
        42.5004         22.5004
 04  7  7 13 56 49.9990000  0 11G 6G10G15G16G17G18G21G26G29G30G22
  20000386.9564    -450495.67249   -346329.51248                  20000384.7184
        51.2504         39.5004
  23700242.7144     445394.13349    331743.24447                  23700240.7654
        44.5004         26.5004
  24294800.1284   -1074525.53949   -826671.31946                  24294799.0974
        39.0004         19.5004
  23929876.5734    -891411.53949   -686355.90446                  23929873.6514
        40.5004         22.7504
  23472573.2144      62066.46549     42191.16146                  23472572.8044
        43.2504         23.5004
  21334287.0344   -1188964.47749   -903850.39947                  21334284.6364
        49.0004         37.0004
  21099385.6984    -888416.43449   -676197.06147                  21099381.9564
        50.5004         37.7504
  21624647.1594    -897629.25449   -683744.48347                  21624645.7724
        45.5004         32.5004
  22208149.1124    -571221.65249   -436747.02247                  22208147.7694
        46.0004         29.2504
  23274595.9804     396051.67249    294196.85846                  23274595.7764
        43.0004         24.0004
  23842382.5504   -1281178.08649   -984734.30746                  23842378.1714
        41.7504         22.5004
 04  7  7 13 56 59.9990000  0 11G 6G10G15G16G17G18G21G26G29G30G22
  19997402.7924    -466177.01249   -358548.74748                  19997400.3664
        51.2504         40.0004
  23703168.5504     460771.25849    343725.40447                  23703167.6404
        44.0004         26.0004
  24286372.7694   -1118813.66049   -861181.56346                  24286371.1634
        39.5004         19.5004
  23922991.6284    -927590.67649   -714547.47146                  23922989.0734
        40.0004         22.5004
  23472917.2224      63873.16849     43598.96646                  23472916.6834
        43.2504         25.5004
  21326322.0264   -1230822.78549   -936467.28047                  21326319.2454
        48.2504         37.0004
  21093366.5034    -920047.44949   -700844.62747                  21093362.8434
        48.2504         37.5004
  21618710.6904    -928825.87149   -708053.54647                  21618709.4094
        43.0004         33.2504
  22204384.8394    -591002.56649   -452160.73547                  22204383.7414
        45.7504         29.7504
  23277180.5264     409631.77049    304778.71346                  23277179.5544
        42.5004         24.5004
  23832385.8704   -1333710.02049  -1025668.29546                  23832382.0894
        41.2504         22.7504
 04  7  7 13 57  9.9990000  0 11G 6G10G15G16G17G18G21G26G29G30G22
  19994424.5974    -481826.88349   -370743.45048                  19994422.3704
        51.0004         40.0004
  23706092.1204     476134.39849    355696.65347                  23706091.2144
        42.7504         26.7504
  24277941.2374   -1163120.00849   -895706.06446                  24277939.7304
        39.7504         19.7504
  23916113.4804    -963739.06249   -742715.02946                  23916110.0654
        41.5004         23.0004
  23473257.7924      65664.29749     44994.63346                  23473257.3624
        43.2504         22.5004
  21318360.3624   -1272660.55549   -969068.12447                  21318357.9174
        48.0004         36.7504
  21087346.2764    -951684.68749   -725497.01547                  21087342.6794
        46.2504         37.0004
  21612782.3474    -959978.96949   -732328.68247                  21612781.1834
        41.5004         32.5004
  22200628.5264    -610744.39849   -467543.96847                  22200627.0694
        46.0004         30.0004
  23279761.3864     423194.61749    315347.15846                  23279760.1594
        43.0004         23.5004
  23822389.0194   -1386242.93449  -1066603.02646                  23822385.8864
        42.0004         23.5004
 04  7  7 13 57 19.9990000  0 11G 6G10G15G16G17G18G21G26G29G30G22
  19991452.8474    -497443.76649   -382912.46948                  19991450.7264
        51.0004         40.5004
  23709013.2224     491484.94949    367658.06546                  23709012.0344
        43.7504         25.5004
  24269506.6674   -1207443.07849   -930243.53346                  24269506.1714
        39.0004         21.0004
  23909240.4254    -999855.14849   -770857.46446                  23909237.1674
        42.0004         23.0004
  23473595.9724      67441.32849     46379.30046                  23473595.0584
        43.2504         24.2504
  21310403.5424   -1314476.08649  -1001651.67047                  21310400.7334
        48.0004         37.2504
  21081324.8554    -983326.62149   -750153.08747                  21081321.3194
        47.5004         37.2504
  21606862.6754    -991087.13749   -756568.81547                  21606861.3474
        42.5004         33.5004
  22196879.4174    -630445.61349   -482895.55747                  22196877.5854
        45.7504         30.7504
  23282338.8084     436741.58249    325903.22746                  23282338.0974
        43.2504         24.7504
  23812393.0114   -1438775.31649  -1107537.35747                  23812389.4134
        42.5004         25.7504
 04  7  7 13 57 29.9990000  0 11G 6G10G15G16G17G18G21G26G29G30G22
  19988487.5114    -513027.53549   -395055.66648                  19988485.2414
        50.7504         40.0004
  23711932.0114     506822.88749    379609.75646                  23711930.6444
        43.0004         25.0004
  24261069.1514   -1251782.87549   -964794.04246                  24261069.1554
        38.7504         20.7504
  23902373.5894   -1035938.86749   -798974.61846                  23902370.4994
        40.0004         22.7504
  23473931.6904      69204.32449     47753.02446                  23473930.5344
        42.5004         24.0004
  21302450.3084   -1356269.30549  -1034217.81747                  21302447.4404
        49.5004         36.2504
  21075302.9804   -1014973.19549   -774812.74847                  21075299.4724
        49.5004         37.2504
  21600951.5034   -1022150.18049   -780773.78047                  21600950.2494
        45.7504         33.2504
  22193137.9094    -650106.20349   -498215.51547                  22193136.4054
        45.7504         30.2504
  23284914.4874     450272.65649    336446.86346                  23284913.2334
        42.7504         24.0004
  23802397.0734   -1491307.02349  -1148471.11046                  23802393.0074
        43.2504         24.0004
 04  7  7 13 57 39.9990000  0 11G 6G10G15G16G17G18G21G26G29G30G22
  19985528.0584    -528577.98849   -407172.91748                  19985526.1324
        51.2504         40.2504
  23714848.2064     522148.38749    391551.62846                  23714846.6554
        43.0004         25.5004
  24252628.9174   -1296139.08249   -999357.32346                  24252627.8274
        40.0004         20.7504
  23895513.6904   -1071989.84849   -827066.30746                  23895510.4134
        40.5004         24.2504
  23474264.3394      70953.77349     49116.16146                  23474263.8974
        42.0004         24.5004
  21294501.5194   -1398040.02049  -1066766.43647                  21294498.6124
        48.7504         37.0004
  21069279.8554   -1046624.14149   -799475.83547                  21069276.5034
        50.0004         38.0004
  21595049.5734   -1053167.78549   -804943.36747                  21595048.0464
        47.0004         33.2504
  22189404.3554    -669725.77349   -513503.51047                  22189403.0224
        46.0004         30.0004
  23287486.4254     463788.00049    346978.31046                  23287484.9564
        42.2504         24.2504
  23792399.9874   -1543837.73449  -1189404.17647                  23792397.0694
        43.5004         26.5004
 04  7  7 13 57 49.9990000  0 11G 6G10G15G16G17G18G21G26G29G30G22
  19982575.6754    -544092.35549   -419262.04348                  19982573.8864
        51.0004         40.2504
  23717763.1594     537464.03149    403485.86246                  23717761.2104
        42.5004         24.0004
  24244185.5894   -1340509.04749  -1033931.32946                  24244184.0814
        39.2504         19.5004
  23888660.2614   -1108005.36749   -855130.39546                  23888657.2144
        39.2504         22.7504
  23474595.2304      72692.07049     50470.68746                  23474594.4804
        42.2504         25.2504
  21286557.7144   -1439785.46949  -1099295.35247                  21286554.5814
        49.5004         37.5004
  21063256.6364   -1078276.80949   -824140.26947                  21063252.9334
        50.0004         37.5004
  21589155.5424   -1084137.15249   -829075.33747                  21589154.0464
        48.0004         33.0004
  22185679.4174    -689301.55549   -528757.35047                  22185677.6444
        45.7504         30.5004
  23290055.1754     477290.21149    357499.51546                  23290054.2614
        43.0004         24.7504
  23782404.5034   -1596364.64549  -1230334.23546                  23782400.9134
        43.5004         25.5004
 04  7  7 13 57 59.9990000  0 11G 6G10G15G16G17G18G21G26G29G30G22
  19979630.1444    -559571.51649   -431323.72548                  19979628.5264
        51.2504         40.0004
  23720675.0734     552768.88349    415411.70246                  23720673.7064
        41.5004         24.7504
  24235739.2454   -1384893.61349  -1068516.68546                  24235737.7064
        39.0004         19.0004
  23881813.5584   -1143986.18049   -883167.35346                  23881810.1084
        39.5004         22.5004
  23474923.4014      74418.46149     51815.86146                  23474923.2264
        41.7504         24.2504
  21278618.2454   -1481506.40649  -1131805.18347                  21278615.5074
        49.2504         37.5004
  21057232.5894   -1109931.99649   -848806.63147                  21057228.8664
        50.7504         37.7504
  21583271.4874   -1115059.02349   -853170.29247                  21583270.1204
        49.0004         32.2504
  22181962.0504    -708834.49649   -543977.82347                  22181960.8044
        45.0004         30.0004
  23292622.8784     490778.29749    368009.65946                  23292621.3664
        43.5004         22.7504
  23772409.5814   -1648888.51249  -1271261.92046                  23772406.0074
        43.0004         24.5004
 04  7  7 13 58  9.9990000  0 11G 6G10G15G16G17G18G21G26G29G30G22
  19976691.7694    -575014.98049   -443357.60448                  19976689.6014
        51.2504         40.5004
  23723585.8084     568063.14849    427329.33146                  23723584.0264
        42.7504         24.0004
  24227290.8474   -1429292.46549  -1103113.19246                  24227289.2534
        39.7504         19.2504
  23874973.0504   -1179931.98449   -911177.07246                  23874969.8744
        41.0004         22.5004
  23475250.3004      76133.36749     53152.15646                  23475249.9334
        42.7504         25.0004
  21270684.1124   -1523202.64549  -1164295.76347                  21270681.0224
        50.7504         37.5004
  21051208.9254   -1141589.41849   -873474.76047                  21051204.8664
        51.5004         37.5004
  21577395.9484   -1145933.07449   -877227.99947                  21577395.2724
        48.0004         33.5004
  22178253.8554    -728324.17649   -559164.60547                  22178252.1474
        46.0004         29.5004
  23295186.7534     504252.44149    378508.96146                  23295185.3744
        43.5004         22.7504
  23762415.3004   -1701409.11349  -1312187.11046                  23762411.6834
        43.0004         23.2504
 04  7  7 13 58 19.9990000  0 11G 6G10G15G16G17G18G21G26G29G30G22
  19973759.4564    -590422.06249   -455363.13948                  19973757.6124
        51.0004         40.0004
  23726494.4174     583347.66849    439239.29947                  23726492.7534
        41.5004         25.7504
  24218839.3944   -1473704.76649  -1137720.22946                  24218837.4834
        38.5004         18.2504
  23868139.5344   -1215841.89149   -939158.84946                  23868136.4914
        41.0004         22.7504
  23475574.5504      77837.51249     54480.00946                  23475574.1014
        42.5004         23.7504
  21262754.4874   -1564873.12949  -1196766.27647                  21262751.3394
        50.7504         36.2504
  21045184.2694   -1173248.17649   -898143.93747                  21045180.3784
        51.7504         36.7504
  21571530.9564   -1176758.37549   -901247.71547                  21571529.4054
        48.0004         33.0004
  22174553.2534    -747769.82049   -574317.07347                  22174551.4914
        45.5004         30.0004
  23297748.2534     517713.42249    388998.02746                  23297747.0544
        43.7504         23.5004
  23752422.1364   -1753925.42249  -1353108.88746                  23752418.2724
        43.2504         22.7504
 04  7  7 13 58 29.9990000  0 11G 6G10G15G16G17G18G21G26G29G30G22
  19970834.6514    -605794.01649   -467341.28748                  19970832.5974
        51.0004         40.5004
  23729400.1514     598620.91849    451140.55546                  23729399.6284
        41.2504         24.2504
  24210385.1054   -1518131.98449  -1172338.74146                  24210383.0934
        38.7504         18.2504
  23861312.5264   -1251717.28549   -967113.67846                  23861309.6474
        40.5004         22.7504
  23475896.5194      79529.54349     55798.43146                  23475896.0114
        43.0004         24.2504
  21254829.4644   -1606519.21949  -1229217.77647                  21254826.6084
        51.0004         37.2504
  21039159.2224   -1204909.71949   -922815.27447                  21039155.6554
        51.7504         37.5004
  21565674.0654   -1207536.27349   -925230.49847                  21565672.8394
        48.5004         34.0004
  22170860.8864    -767172.80949   -589436.27747                  22170859.1084
        46.0004         30.0004
  23300306.6594     531159.73849    399475.64846                  23300306.0624
        43.7504         23.5004
  23742429.2694   -1806438.84449  -1394028.46646                  23742425.0624
        43.2504         23.0004
 04  7  7 13 58 39.9990000  0 11G 6G10G15G16G17G18G21G26G29G30G22
  19967916.0974    -621128.87549   -479290.52948                  19967914.6284
        51.0004         40.0004
  23732305.4334     613884.84849    463034.46846                  23732303.9954
        41.2504         22.7504
  24201928.5344   -1562572.07849  -1206967.41846                  24201926.2104
        38.5004         17.7504
  23854492.4954   -1287556.06649   -995040.03346                  23854490.0694
        40.5004         24.0004
  23476216.6754      81211.37549     57108.92546                  23476216.1594
        42.7504         25.2504
  21246909.3784   -1648139.03549  -1261648.80647                  21246906.7064
        50.0004         36.7504
  21033134.1444   -1236572.00849   -947487.19547                  21033130.7304
        50.7504         37.5004
  21559826.4014   -1238264.62149   -949174.66047                  21559825.1204
        48.2504         33.7504
  22167177.1984    -786531.06649   -604520.63747                  22167175.4994
        46.2504         30.2504
  23302863.5584     544593.23049    409943.29446                  23302862.3124
        43.2504         23.5004
  23732437.0734   -1858947.34449  -1434944.20746                  23732433.0114
        44.0004         23.0004
 04  7  7 13 58 49.9990000  0 11G 6G10G15G16G17G18G21G26G29G30G22
  19965005.4254    -636425.66049   -491210.11548                  19965003.5774
        50.5004         40.5004
  23735208.1674     629140.19949    474921.70346                  23735206.7534
        40.7504         23.2504
  24193469.2924   -1607024.06649  -1241605.33646                  24193467.4374
        38.7504         17.7504
  23847679.8474   -1323357.18049  -1022937.01746                  23847677.0114
        39.7504         21.7504
  23476535.0344      82884.10249     58412.31847                  23476534.7024
        42.7504         26.0004
  21238994.7844   -1689731.49649  -1294058.51347                  21238991.8084
        50.5004         37.5004
  21027108.9254   -1268234.12149   -972158.98247                  21027105.3584
        51.0004         37.7504
  21553988.7224   -1268942.49249   -973079.50047                  21553987.3824
        48.0004         34.0004
  22163502.0734    -805843.63749   -619569.38647                  22163500.9444
        46.5004         30.2504
  23305416.7144     558014.76249    420401.62246                  23305415.7184
        43.5004         22.0004
  23722446.0194   -1911449.84449  -1475855.25446                  23722442.0304
        43.2504         23.0004
 04  7  7 13 58 59.9990000  0 11G 6G10G15G16G17G18G21G26G29G30G22
  19962101.5424    -651685.37149   -503100.81448                  19962099.5814
        51.0004         40.7504
  23738108.9334     644386.05949    486801.57546                  23738108.4404
        40.0004         22.5004
  24185008.3864   -1651489.00049  -1276253.34446                  24185005.7304
        40.0004         17.7504
  23840874.0504   -1359121.65649  -1050805.43146                  23840871.3824
        39.7504         22.5004
  23476850.7304      84546.69949     59707.83747                  23476851.3154
        42.5004         27.0004
  21231084.6284   -1731297.51249  -1326447.63647                  21231082.3314
        48.7504         38.2504
  21021083.5424   -1299897.04749   -996831.39247                  21021080.0384
        49.5004         38.0004
  21548160.2614   -1299570.63749   -996945.59747                  21548158.9254
        48.5004         34.2504
  22159835.5654    -825111.51249   -634583.33047                  22159833.8234
        46.2504         30.2504
  23307968.4564     571423.26649    430849.76746                  23307967.7064
        43.5004         24.0004
  23712456.1284   -1963947.34449  -1516762.45446                  23712451.9094
        43.2504         22.2504
 04  7  7 13 59  9.9990000  0 11G 6G10G15G16G17G18G21G26G29G30G22
  19959204.9094    -666907.11349   -514961.92148                  19959202.7534
        51.0004         39.5004
  23741009.3004     659623.13749    498674.62246                  23741007.9684
        40.5004         22.5004
  24176543.8474   -1695965.93749  -1310910.66746                  24176542.3004
        38.5004         18.2504
  23834074.7064   -1394848.57849  -1078644.60546                  23834072.5694
        39.7504         22.5004
  23477166.0424      86200.01649     60996.09146                  23477165.9994
        43.0004         25.5004
  21223180.6284   -1772836.25049  -1358815.48647                  21223177.5974
        51.0004         37.5004
  21015057.9644   -1331559.93749  -1021503.77647                  21015054.8974
        50.0004         37.5004
  21542341.5504   -1330148.24649  -1020772.31047                  21542340.4524
        48.5004         33.5004
  22156177.6594    -844333.77049   -649561.71047                  22156176.4524
        46.5004         30.2504
  23310517.4564     584819.41849    441288.32647                  23310517.0384
        43.7504         25.7504
  23702467.0114   -2016438.86349  -1557664.83346                  23702463.1834
        42.5004         22.5004
 04  7  7 13 59 19.9990000  0 11G 6G10G15G16G17G18G21G26G29G30G22
  19956315.3944    -682091.19149   -526793.66648                  19956313.6244
        50.7504         39.7504
  23743907.0424     674850.93449    510540.36446                  23743905.7454
        39.0004         22.2504
  24168078.3474   -1740455.28949  -1345577.66146                  24168076.8704
        38.5004         18.2504
  23827284.3784   -1430538.17649  -1106454.65446                  23827281.0934
        39.2504         21.7504
  23477478.5734      87843.65249     62276.80746                  23477478.5034
        43.0004         23.7504
  21215280.7614   -1814348.00849  -1391162.29647                  21215278.1554
        49.2504         37.5004
  21009033.0974   -1363223.10549  -1046176.37247                  21009029.5694
        50.2504         37.5004
  21536532.7224   -1360675.53949  -1044559.80547                  21536531.0774
        48.0004         33.0004
  22152528.5584    -863510.83249   -664504.87747                  22152526.8824
        46.0004         29.0004
  23313064.5894     598202.87549    451716.96346                  23313063.7264
        43.5004         25.0004
  23692479.4644   -2068924.69149  -1598562.91946                  23692475.3314
        43.2504         23.7504
 04  7  7 13 59 29.9990000  0 11G 6G10G15G16G17G18G21G26G29G30G22
  19953434.0034    -697234.27749   -538593.48148                  19953431.8124
        50.2504         39.7504
  23746803.3394     690072.69549    522401.44746                  23746802.0424
        39.5004         22.0004
  24159610.8004   -1784953.83649  -1380251.86646                  24159608.8004
        38.5004         18.2504
  23820500.3944   -1466187.21149  -1134233.18246                  23820497.7264
        39.5004         22.0004
  23477790.5344      89480.95349     63552.59546                  23477789.9724
        42.0004         24.5004
  21207387.0264   -1855829.55149  -1423485.58547                  21207384.4134
        50.2504         37.0004
  21003008.4954   -1394883.34449  -1070846.69147                  21003004.9334
        50.5004         37.0004
  21530733.6204   -1391149.25849  -1068305.55147                  21530732.1364
        47.7504         33.2504
  22148888.0974    -882639.36749   -679410.21747                  22148887.0344
        45.7504         29.5004
  23315609.8234     611576.73449    462138.15546                  23315609.1874
        43.7504         22.7504
  23682493.8624   -2121401.50449  -1639453.95946                  23682488.9524
        43.0004         22.7504
 04  7  7 13 59 39.9990000  0 11G 6G10G15G16G17G18G21G26G29G30G22
  19950559.9014    -712337.27049   -550362.04648                  19950557.6474
        50.7504         39.7504
  23749698.2844     705287.50049    534257.14846                  23749697.4334
        40.2504         21.5004
  24151141.0424   -1829462.38749  -1414933.90946                  24151139.3744
        38.0004         18.2504
  23813723.5504   -1501796.46549  -1161980.66146                  23813721.0734
        40.2504         21.5004
  23478100.2144      91111.02349     64822.75046                  23478100.0424
        41.5004         25.5004
  21199498.8004   -1897281.62949  -1455785.90147                  21199496.3584
        49.2504         37.5004
  20996983.7144   -1426541.46149  -1095515.37347                  20996980.6794
        49.7504         37.2504
  21524944.7374   -1421570.08249  -1092010.09047                  21524943.1944
        47.0004         33.0004
  22145257.5194    -901720.15649   -694278.35847                  22145255.7844
        45.5004         29.2504
  23318152.5504     624939.97349    472551.04447                  23318152.0624
        44.0004         25.7504
  23672508.7144   -2173870.06249  -1680338.55046                  23672504.5424
        43.2504         22.7504
 04  7  7 13 59 49.9990000  0 11G 6G10G15G16G17G18G21G26G29G30G22
  19947693.2924    -727401.23449   -562100.22248                  19947691.1284
        51.0004         39.7504
  23752591.8864     720494.18849    546106.52746                  23752590.9374
        39.5004         22.2504
  24142669.3704   -1873981.95749  -1449624.51246                  24142667.1474
        36.5004         17.2504
  23806955.1754   -1537366.89549  -1189697.90946                  23806952.3554
        40.0004         22.0004
  23478409.1124      92732.86749     66086.49346                  23478408.5694
        43.0004         24.0004
  21191616.5114   -1938705.29349  -1488064.09747                  21191613.7654
        48.0004         37.2504
  20990959.5654   -1458198.47749  -1120183.19047                  20990956.3084
        48.2504         37.5004
  21519165.6124   -1451939.03549  -1115674.22247                  21519164.0974
        47.2504         33.5004
  22141635.2764    -920754.30949   -709110.19147                  22141633.6554
        45.7504         29.7504
  23320693.3624     638291.57849    482954.85646                  23320692.8624
        44.5004         25.2504
  23662525.8474   -2226331.37549  -1721217.56346                  23662521.7724
        43.2504         22.5004
 04  7  7 13 59 59.9990000  0 11G 6G10G15G16G17G18G21G26G29G30G22
  19944834.6904    -742424.97749   -573807.02748                  19944832.5384
        51.0004         40.0004
  23755484.5504     735693.85249    557950.35046                  23755483.4834
        39.5004         22.5004
  24134195.7144   -1918511.50849  -1484322.85546                  24134193.0074
        37.7504         17.7504
  23800193.9644   -1572897.33249  -1217383.87446                  23800191.3584
        41.0004         22.5004
  23478716.4484      94347.59849     67344.71446                  23478716.0654
        42.5004         24.5004
  21183739.4874   -1980099.34049  -1520319.19147                  21183736.5034
        49.5004         37.5004
  20984935.6594   -1489853.24649  -1144849.23447                  20984932.4214
        50.5004         37.5004
  21513396.6834   -1482254.89149  -1139296.95247                  21513395.6554
        47.7504         33.5004
  22138022.5264    -939740.56249   -723904.68647                  22138021.0734
        45.0004         30.2504
  23323232.5194     651632.45349    493350.35647                  23323231.9524
        44.5004         26.2504
  23652544.6754   -2278784.27349  -1762089.88546                  23652540.7264
        43.5004         23.2504
 04  7  7 14  0  9.9990000  0 11G 6G10G15G16G17G18G21G26G29G30G22
  19941983.1054    -757408.48449   -585482.52148                  19941981.3234
        50.5004         40.5004
  23758375.7144     750886.32849    569788.64446                  23758374.9684
        40.5004         22.0004
  24125719.4724   -1963050.98848  -1519028.95746                  24125717.5624
        35.5004         16.7504
  23793440.4564   -1608387.85249  -1245038.86546                  23793437.9564
        39.0004         22.7504
  23479022.1204      95955.12149     68597.25646                  23479021.6244
        41.2504         23.7504
  21175867.9094   -2021463.72749  -1552551.19947                  21175865.1324
        47.7504         38.2504
  20978912.7614   -1521505.90249  -1169513.65847                  20978908.9564
        48.2504         38.5004
  21507638.1594   -1512517.61749  -1162878.31347                  21507636.3234
        48.7504         34.0004
  22134418.8004    -958678.98849   -738661.91247                  22134417.0504
        45.5004         30.0004
  23325769.1674     664962.56649    503737.39047                  23325767.8944
        44.5004         26.5004
  23642565.0584   -2331228.75449  -1802955.72746                  23642560.9484
        43.7504         22.5004
 04  7  7 14  0 19.9990000  0 11G 6G10G15G16G17G18G21G26G29G30G22
  19939139.6514    -772351.94949   -597126.78648                  19939137.7024
        51.0004         40.5004
  23761265.2764     766071.32449    581621.08446                  23761264.5774
        41.0004         21.7504
  24117241.6594   -2007600.69149  -1553742.97746                  24117239.9404
        37.5004         16.7504
  23786693.9014   -1643838.48849  -1272662.74846                  23786692.1164
        40.0004         22.7504
  23479326.0114      97555.35549     69844.17746                  23479326.0224
        42.0004         22.7504
  21168002.2694   -2062798.77749  -1584760.33747                  21167999.3004
        49.2504         37.5004
  20972889.6514   -1553156.54349  -1194176.51147                  20972886.0854
        50.0004         38.2504
  21501889.2694   -1542727.35249  -1186418.35847                  21501887.5974
        48.2504         33.2504
  22130824.0974    -977569.83649   -753382.05247                  22130821.8824
        46.2504         29.7504
  23328303.3314     678281.55949    514115.80746                  23328302.1124
        44.5004         25.5004
  23632586.6054   -2383664.87149  -1843815.04146                  23632582.7884
        42.7504         23.0004
 04  7  7 14  0 29.9990000  0 11G 6G10G15G16G17G18G21G26G29G30G22
  19936303.6284    -787254.69149   -608739.31248                  19936301.8974
        50.7504         40.2504
  23764153.8474     781249.39849    593448.14246                  23764152.7414
        39.7504         21.5004
  24108762.6674   -2052159.95749  -1588464.50846                  24108760.4014
        37.0004         17.2504
  23779956.1594   -1679248.66849  -1300255.12846                  23779953.7494
        40.5004         22.2504
  23479629.6054      99148.92249     71085.83146                  23479629.7534
        41.0004         22.7504
  21160142.1594   -2104103.72749  -1616946.00047                  21160139.3864
        48.2504         36.7504
  20966867.5654   -1584804.58249  -1218837.30847                  20966864.0194
        48.5004         38.0004
  21496150.9724   -1572883.43049  -1209916.59147                  21496149.4014
        48.5004         33.2504
  22127238.2614    -996412.51249   -768064.64747                  22127236.3274
        46.5004         29.5004
  23330836.5504     691589.89849    524485.97046                  23330834.4604
        44.5004         25.0004
  23622609.8704   -2436092.05149  -1884667.40746                  23622606.4804
        43.5004         24.2504
 04  7  7 14  0 39.9990000  0 11G 6G10G15G16G17G18G21G26G29G30G22
  19933476.0974    -802114.35249   -620318.27148                  19933474.1204
        50.7504         40.0004
  23767040.7224     796422.79749    605271.51946                  23767039.9294
        40.7504         21.7504
  24100281.7614   -2096726.37949  -1623191.62446                  24100280.0624
        37.2504         19.5004
  23773225.9174   -1714615.94949  -1327814.01246                  23773223.2574
        40.5004         21.7504
  23479932.5424     100738.16449     72324.19146                  23479931.8314
        41.7504         22.2504
  21152287.9644   -2145376.14149  -1649106.33447                  21152285.2574
        47.0004         37.0004
  20960845.8704   -1616447.57449  -1243494.18447                  20960842.6674
        48.5004         37.0004
  21490422.5734   -1602983.29349  -1233371.03747                  21490421.1984
        48.2504         33.0004
  22123662.2924   -1015204.42649   -782707.67847                  22123660.6124
        46.0004         28.5004
  23333366.9094     704889.94549    534849.63247                  23333364.9954
        44.5004         25.7504
  23612635.3394   -2488507.75049  -1925510.82746                  23612632.1204
        43.0004         23.2504
 04  7  7 14  0 49.9990000  0 11G 6G10G15G16G17G18G21G26G29G30G22
  19930656.4954    -816932.55549   -631864.91748                  19930654.4684
        51.0004         40.0004
  23769927.3784     811589.90649    617090.08246                  23769925.9134
        41.0004         22.5004
  24091799.1444   -2141301.63749  -1657925.56146                  24091798.0154
        36.0004         18.5004
  23766503.3944   -1749941.91449  -1355340.76346                  23766500.5584
        39.5004         22.5004
  23480233.6594     102321.42649     73557.88846                  23480233.4834
        41.5004         22.0004
  21144440.4014   -2186617.61749  -1681242.53547                  21144437.0384
        48.0004         37.0004
  20954825.3234   -1648087.19949  -1268148.43547                  20954821.8824
        49.5004         37.2504
  21484705.5654   -1633028.55549  -1256782.92347                  21484703.5694
        48.7504         33.0004
  22120095.6904   -1033947.29749   -797312.49947                  22120093.9254
        45.7504         28.7504
  23335895.5974     718179.91849    545205.41046                  23335893.9684
        45.0004         23.5004
  23602663.2534   -2540913.55149  -1966346.51346                  23602659.0544
        43.2504         25.0004
 04  7  7 14  0 59.9990000  0 11G 6G10G15G16G17G18G21G26G29G30G22
  19927844.5654    -831708.81249   -643378.91048                  19927842.3084
        51.5004         40.2504
  23772812.2534     826751.03149    628903.84746                  23772811.5114
        40.7504         22.2504
  24083315.7844   -2185885.25049  -1692666.03846                  24083313.8864
        37.0004         18.2504
  23759789.2694   -1785225.93049  -1382834.83946                  23759786.3474
        40.0004         22.7504
  23480533.8154     103899.20349     74787.30746                  23480533.5304
        42.5004         22.7504
  21136598.2144   -2227827.58649  -1713354.21947                  21136595.3664
        47.0004         36.7504
  20948804.8784   -1679722.94949  -1292799.68247                  20948801.8554
        47.5004         37.7504
  21478998.7304   -1663018.65649  -1280151.84347                  21478997.0304
        47.7504         33.5004
  22116538.7224   -1052640.62549   -811878.76647                  22116536.6514
        45.7504         29.2504
  23338423.0034     731460.19549    555553.65046                  23338421.1874
        44.5004         24.0004
  23592692.4954   -2593308.98449  -2007174.13846                  23592688.7454
        43.0004         23.2504
 04  7  7 14  1  9.9990000  0 11G 6G10G15G16G17G18G21G26G29G30G22
  19925040.4804    -846442.23449   -654859.49748                  19925038.7144
        50.7504         40.5004
  23775696.9174     841907.00049    640713.76446                  23775694.9804
        40.7504         22.2504
  24074830.4644   -2230476.44549  -1727412.43046                  24074828.3234
        37.7504         17.7504
  23753082.8944   -1820467.32849  -1410295.65346                  23753079.7574
        40.2504         22.2504
  23480833.5654     105472.39849     76013.13846                  23480832.3234
        41.7504         22.5004
  21128762.4334   -2269005.33249  -1745440.76647                  21128759.5694
        46.7504         37.5004
  20942785.9874   -1711354.13749  -1317447.36447                  20942782.4834
        47.5004         38.2504
  21473302.2924   -1692952.71949  -1303477.08547                  21473300.9294
        48.2504         33.5004
  22112990.8234   -1071283.59049   -826405.74847                  22112989.0154
        46.2504         29.5004
  23340948.6124     744731.47749    565894.87847                  23340946.8624
        45.0004         25.7504
  23582724.0814   -2645693.09449  -2047992.86146                  23582720.9254
        43.7504         24.0004
 04  7  7 14  1 19.9990000  0 11G 6G10G15G16G17G18G21G26G29G30G22
  19922245.0424    -861133.68049   -666307.40148                  19922243.1284
        51.0004         40.7504
  23778579.6444     857056.85549    652518.79246                  23778577.8044
        40.0004         22.0004
  24066343.4954   -2275076.01249  -1762165.33246                  24066341.3584
        37.5004         17.7504
  23746384.8784   -1855666.72349  -1437723.76046                  23746381.4214
        38.7504         23.0004
  23481132.2924     107040.11349     77234.64346                  23481131.4564
        42.5004         21.5004
  21120932.5814   -2310151.52749  -1777502.75047                  21120929.4834
        48.0004         38.0004
  20936767.3784   -1742981.41849  -1342092.01847                  20936764.0224
        48.7504         38.7504
  21467616.1834   -1722831.54749  -1326759.31047                  21467615.2654
        47.7504         33.7504
  22109452.5264   -1089876.98449   -840894.12547                  22109450.2844
        46.2504         29.2504
  23343472.0974     757992.87949    576228.44647                  23343470.5894
        46.0004         27.2504
  23572757.7374   -2698066.67249  -2088803.50446                  23572754.3514
        44.2504         23.0004
 04  7  7 14  1 29.9990000  0 11G 6G10G15G16G17G18G21G26G29G30G22
  19919457.7764    -875781.82449   -677721.54148                  19919455.8354
        51.7504         40.7504
  23781461.7534     872201.79349    664320.04346                  23781460.0854
        41.2504         21.7504
  24057854.3864   -2319682.64149  -1796923.77046                  24057852.9914
        38.5004         17.7504
  23739694.9804   -1890822.85949  -1465118.17146                  23739691.9804
        40.5004         22.5004
  23481429.1834     108603.68849     78453.01246                  23481428.9644
        43.0004         22.0004
  21113109.0894   -2351264.91049  -1809539.16647                  21113106.0774
        49.2504         37.5004
  20930749.7304   -1774603.54749  -1366732.63447                  20930746.3944
        49.2504         37.7504
  21461941.4404   -1752653.65249  -1349997.30747                  21461940.0624
        48.2504         33.5004
  22105924.2064   -1108419.56249   -855342.88947                  22105922.1514
        46.2504         29.0004
  23345994.3394     771245.45349    586555.09846                  23345992.6944
        45.0004         25.5004
  23562793.6984   -2750428.37549  -2129604.83446                  23562790.1284
        44.5004         24.7504
 04  7  7 14  1 39.9990000  0 11G 6G10G15G16G17G18G21G26G29G30G22
  19916678.4174    -890386.75049   -689102.01048                  19916676.4374
        51.2504         40.0004
  23784342.3084     887341.62549    676117.31746                  23784341.2374
        42.0004         22.2504
  24049364.6284   -2364296.50049  -1831687.82646                  24049363.2414
        37.5004         18.2504
  23733013.3704   -1925935.73449  -1492478.82746                  23733010.1014
        39.0004         21.5004
  23481726.1284     110162.89549     79667.93846                  23481725.5584
        42.7504         22.0004
  21105291.3944   -2392345.57049  -1841550.05447                  21105288.5734
        49.5004         37.2504
  20924733.4174   -1806220.62949  -1391369.31447                  20924729.7804
        50.2504         37.2504
  21456277.3944   -1782419.14549  -1373191.19347                  21456275.6714
        47.5004         33.0004
  22102405.2064   -1126911.42249   -869752.10447                  22102402.9764
        46.5004         29.5004
  23348513.8864     784489.07849    596874.79747                  23348512.8274
        45.0004         26.7504
  23552832.1054   -2802778.28949  -2170396.97647                  23552828.6514
        43.2504         25.7504
 04  7  7 14  1 49.9990000  0 11G 6G10G15G16G17G18G21G26G29G30G22
  19913907.3944    -904947.82049   -700448.30948                  19913905.7654
        51.0004         39.7504
  23787222.9014     902476.80549    687910.94346                  23787221.6084
        40.7504         22.7504
  24040874.1514   -2408917.02349  -1866457.06346                  24040871.7724
        38.2504         18.2504
  23726339.4564   -1961004.85249  -1519805.44346                  23726336.6984
        40.5004         22.7504
  23482022.2064     111718.44949     80880.05846                  23482021.6714
        42.5004         22.0004
  21097480.7224   -2433392.91449  -1873535.01947                  21097477.8434
        48.2504         37.5004
  20918717.5814   -1837832.10949  -1416001.65947                  20918713.9404
        48.5004         37.5004
  21450623.8864   -1812127.48049  -1396340.55247                  21450622.2654
        48.0004         32.7504
  22098895.9334   -1145351.93449   -884121.36347                  22098894.3624
        46.0004         29.0004
  23351032.6754     797724.24649    607187.87247                  23351031.9054
        44.5004         26.0004
  23542872.7454   -2855115.75449  -2211179.39147                  23542869.2884
        44.2504         26.5004
 04  7  7 14  1 59.9990000  0 11G 6G10G15G16G17G18G21G26G29G30G22
  19911144.8784    -919465.07049   -711760.41548                  19911143.1754
        50.0004         39.5004
  23790101.8944     917607.38349    699701.02146                  23790100.9254
        40.0004         22.7504
  24032381.4954   -2453544.12549  -1901231.37546                  24032379.8624
        37.2504         19.0004
  23719674.3784   -1996029.97749  -1547097.71646                  23719671.0584
        39.7504         22.0004
  23482317.4954     113270.30549     82089.32746                  23482317.1364
        42.0004         21.5004
  21089676.1054   -2474406.87549  -1905493.91147                  21089673.2334
        48.5004         36.7504
  20912703.5734   -1869437.99249  -1440629.57547                  20912700.0464
        48.7504         37.2504
  21444981.8314   -1841778.39849  -1419445.13147                  21444980.0384
        47.2504         32.2504
  22095396.9874   -1163741.08249   -898450.54347                  22095394.8044
        46.0004         28.5004
  23353549.9404     810950.88749    617494.37447                  23353549.0584
        45.2504         26.7504
  23532915.5584   -2907440.59449  -2251952.01146                  23532911.7224
        44.0004         25.0004
 04  7  7 14  2  9.9990000  0 11G 6G10G15G16G17G18G21G26G29G30G22
  19908390.8234    -933939.27349   -723039.06148                  19908388.8864
        51.0004         39.5004
  23792979.7374     932732.35549    711486.62846                  23792979.2454
        40.5004         22.5004
  24023888.4644   -2498178.71549  -1936011.60146                  24023885.8624
        37.7504         19.5004
  23713017.5504   -2031012.02749  -1574356.49446                  23713014.4604
        39.7504         22.2504
  23482612.6594     114817.62149     83294.96246                  23482611.7764
        42.0004         21.0004
  21081877.6284   -2515388.22349  -1937427.46147                  21081874.8824
        49.5004         37.7504
  20906689.7224   -1901039.16449  -1465253.90947                  20906686.4564
        49.5004         37.7504
  21439350.2224   -1871372.71149  -1442505.67147                  21439348.2764
        47.5004         32.5004
  22091906.7694   -1182079.62149   -912740.33247                  22091905.1984
        45.5004         29.2504
  23356065.0264     824168.00049    627793.35447                  23356063.9374
        45.2504         26.0004
  23522960.5034   -2959753.68749  -2292715.50747                  23522956.3314
        44.7504         26.7504
 04  7  7 14  2 19.9990000  0 11G 6G10G15G16G17G18G21G26G29G30G22
  19905644.6594    -948369.92649   -734283.71348                  19905643.0424
        51.0004         39.7504
  23795857.2064     947852.27049    723268.33246                  23795856.0154
        41.7504         24.0004
  24015392.7764   -2542820.19149  -1970797.20046                  24015391.2884
        39.5004         19.2504
  23706369.0974   -2065950.37949  -1601581.19546                  23706365.8474
        40.7504         22.5004
  23482905.8554     116361.06649     84497.61946                  23482905.3974
        41.5004         20.0004
  21074085.0504   -2556336.38749  -1969335.11947                  21074082.2224
        50.0004         37.5004
  20900677.3314   -1932634.87549  -1489873.93447                  20900674.5654
        51.0004         37.2504
  21433729.1754   -1900909.82049  -1465521.59247                  21433727.7724
        47.5004         33.0004
  22088426.8624   -1200366.99249   -926990.23847                  22088425.0814
        46.0004         29.5004
  23358578.0584     837376.11749    638085.41747                  23358577.2334
        44.2504         26.2504
  23513008.3784   -3012054.43049  -2333469.27946                  23513004.1904
        44.5004         24.5004
 04  7  7 14  2 29.9990000  0 11G 6G10G15G16G17G18G21G26G29G30G22
  19902907.0344    -962756.78549   -745494.29048                  19902904.6364
        50.7504         40.7504
  23798733.7304     962967.06649    735046.07546                  23798732.7534
        42.2504         24.2504
  24006897.1984   -2587468.42649  -2005588.00346                  24006895.2764
        38.0004         19.5004
  23699728.6124   -2100844.81649  -1628771.67346                  23699725.5974
        40.2504         22.5004
  23483198.7764     117900.73049     85697.32146                  23483197.7964
        41.7504         20.2504
  21066299.4874   -2597251.17249  -2001216.78747                  21066296.8004
        49.7504         38.7504
  20894666.1284   -1964225.04349  -1514489.67847                  20894662.9254
        49.5004         38.0004
  21428119.9644   -1930389.50849  -1488492.79047                  21428118.0224
        47.5004         33.0004
  22084956.9094   -1218603.09849   -941200.19147                  22084955.0074
        46.2504         30.0004
  23361089.5974     850574.96949    648370.17547                  23361089.1834
        44.5004         26.0004
  23503057.7844   -3064342.61749  -2374213.36547                  23503054.0654
        44.7504         27.0004
 04  7  7 14  2 39.9990000  0 11G 6G10G15G16G17G18G21G26G29G30G22
  19900177.6834    -977098.48449   -756669.64148                  19900175.7144
        50.7504         40.2504
  23801609.7304     978078.04749    746820.82846                  23801608.3624
        41.2504         25.2504
  23998399.8864   -2632122.09049  -2040383.12946                  23998398.1634
        39.0004         19.0004
  23693097.9174   -2135693.93049  -1655926.83846                  23693094.4524
        38.7504         22.5004
  23483491.3234     119437.94949     86895.18546                  23483490.4874
        40.5004         19.7504
  21058520.1124   -2638131.22349  -2033071.38347                  21058517.7534
        49.7504         38.0004
  20888655.8704   -1995808.37149  -1539100.06047                  20888652.5424
        50.0004         38.5004
  21422520.9954   -1959810.31649  -1511418.10747                  21422519.0194
        47.5004         32.7504
  22081496.5974   -1236786.60949   -955369.18247                  22081494.5504
        46.2504         30.0004
  23363599.9724     863766.14849    658649.00046                  23363599.3194
        43.2504         24.0004
  23493110.5584   -3116616.86349  -2414946.55747                  23493106.7534
        45.2504         26.7504
 04  7  7 14  2 49.9990000  0 11G 6G10G15G16G17G18G21G26G29G30G22
  19897457.0424    -991395.84049   -767810.44448                  19897455.1944
        51.0004         39.5004
  23804484.4804     993184.32449    758591.96846                  23804482.9254
        42.5004         24.2504
  23989900.9954   -2676781.97749  -2075183.06146                  23989899.0934
        40.2504         20.2504
  23686474.4564   -2170498.56249  -1683047.31846                  23686471.1284
        40.0004         22.5004
  23483783.2304     120971.90649     88090.46446                  23483782.1324
        40.7504         20.2504
  21050747.3864   -2678977.28949  -2064899.48247                  21050744.6054
        50.0004         37.2504
  20882646.9874   -2027385.57449  -1563705.67747                  20882643.0774
        50.2504         37.5004
  21416933.2454   -1989173.12149  -1534298.19347                  21416931.6364
        47.5004         32.0004
  22078046.2764   -1254918.24649   -969497.70047                  22078044.5264
        46.2504         30.0004
  23366108.3784     876948.72349    668921.14246                  23366107.8194
        43.2504         24.0004
  23483166.1514   -3168877.93449  -2455669.48447                  23483162.3864
        45.5004         26.5004
 04  7  7 14  2 59.9990000  0 11G 6G10G15G16G17G18G21G26G29G30G22
  19894745.3084   -1005646.60549   -778914.93748                  19894743.1164
        51.0004         40.0004
  23807358.4644    1008288.02349    770361.02646                  23807357.1984
        41.5004         25.5004
  23981402.0344   -2721445.86749  -2109986.05246                  23981400.2184
        39.0004         19.5004
  23679859.8234   -2205256.45349  -1710131.38246                  23679857.1904
        40.0004         22.5004
  23484075.1364     122504.78149     89284.90846                  23484074.1204
        40.7504         19.7504
  21042981.5114   -2719787.16449  -2096699.39247                  21042978.8944
        50.5004         37.0004
  20876639.7224   -2058954.58249  -1588304.90347                  20876636.1794
        50.5004         37.5004
  21411357.6204   -2018475.47349  -1557131.19747                  21411356.2064
        48.0004         32.5004
  22074606.1834   -1272995.83249   -983584.16447                  22074604.3704
        46.5004         30.5004
  23368616.2064     890124.68049    679188.05046                  23368614.9214
        43.5004         25.5004
  23473223.2764   -3221123.47749  -2496380.30047                  23473219.6204
        44.2504         26.7504
 04  7  7 14  3  9.9990000  0 11G 6G10G15G16G17G18G21G26G29G30G22
  19892042.5194   -1019851.75849   -789983.90147                  19892040.0344
        50.7504         39.0004
  23810231.4254    1023388.12549    782127.37046                  23810230.0694
        42.0004         24.5004
  23972901.3704   -2766114.70749  -2144792.90946                  23972900.3704
        37.5004         20.2504
  23673254.8004   -2239968.45349  -1737179.71346                  23673251.7614
        40.0004         22.7504
  23484366.4484     124035.75449     90477.83246                  23484365.2414
        39.7504         20.2504
  21035222.1904   -2760561.78549  -2128471.82447                  21035219.7724
        50.5004         36.5004
  20870633.4334   -2090516.21549  -1612898.38847                  20870630.2764
        51.0004         36.0004
  21405792.3154   -2047718.36349  -1579917.85747                  21405791.2414
        47.5004         32.5004
  22071176.3154   -1291020.33649   -997629.21247                  22071174.6634
        45.7504         29.2504
  23371121.6594     903292.97749    689449.07446                  23371120.2724
        43.0004         25.0004
  23463284.1984   -3273354.41049  -2537079.70546                  23463280.7724
        43.5004         25.5004
 04  7  7 14  3 19.9990000  0 11G 6G10G15G16G17G18G21G26G29G30G22
  19889347.4254   -1034011.78949   -801017.70448                  19889345.0114
        51.0004         40.2504
  23813104.2844    1038484.16049    793890.42646                  23813103.1054
        41.7504         24.7504
  23964400.5114   -2810789.00849  -2179604.07146                  23964398.3904
        39.7504         20.5004
  23666657.8474   -2274634.92649  -1764192.54946                  23666655.1014
        41.0004         22.5004
  23484656.9174     125564.30549     91668.84646                  23484656.4644
        40.0004         20.5004
  21027469.7924   -2801301.41449  -2160216.99147                  21027467.2224
        50.7504         38.2504
  20864629.1834   -2122070.96949  -1637486.51147                  20864625.6444
        51.0004         37.7504
  21400239.1444   -2076902.16049  -1602658.48247                  21400238.1324
        48.0004         33.5004
  22067756.4564   -1308992.10949  -1011633.21847                  22067754.6834
        46.2504         30.0004
  23373625.9954     916453.10549    699703.67247                  23373624.9804
        43.5004         26.7504
  23453347.5814   -3325571.10949  -2577768.04646                  23453343.8314
        43.0004         25.2504
 04  7  7 14  3 29.9990000  0 11G 6G10G15G16G17G18G21G26G29G30G22
  19886661.5264   -1048126.41849   -812016.11548                  19886659.6244
        51.5004         39.7504
  23815976.3474    1053576.06649    805650.36146                  23815974.5074
        41.7504         24.5004
  23955897.3154   -2855468.59449  -2214419.40246                  23955895.8944
        39.2504         19.5004
  23660069.3944   -2309255.84049  -1791169.86246                  23660066.7224
        40.7504         22.5004
  23484947.3944     127090.57049     92858.11946                  23484946.6634
        40.0004         19.5004
  21019724.2764   -2842006.10949  -2191934.94147                  21019721.6514
        50.2504         38.0004
  20858625.6284   -2153618.75849  -1662069.20747                  20858622.5344
        50.7504         37.0004
  21394696.9724   -2106026.61349  -1625352.86647                  21394695.3314
        48.0004         33.0004
  22064346.7764   -1326911.00449  -1025595.96747                  22064344.8474
        46.2504         29.5004
  23376128.7614     929605.02749    709951.93346                  23376127.9724
        43.2504         24.5004
  23443413.6834   -3377773.40649  -2618445.14646                  23443409.9094
        43.2504         24.5004
 04  7  7 14  3 39.9990000  0 11G 6G10G15G16G17G18G21G26G29G30G22
  19883984.3154   -1062195.21949   -822978.82848                  19883982.4054
        51.0004         41.0004
  23818847.2614    1068664.34849    817407.45146                  23818846.2574
        42.5004         25.0004
  23947395.3084   -2900153.07849  -2249238.41746                  23947392.6674
        39.7504         19.7504
  23653489.8864   -2343830.66049  -1818111.30546                  23653488.0974
        38.0004         24.7504
  23485237.1364     128614.96149     94045.96946                  23485236.8974
        39.5004         19.7504
  21011984.9644   -2882675.31249  -2223625.23447                  21011982.2494
        50.2504         38.2504
  20852623.7224   -2185159.03149  -1686646.04347                  20852620.1474
        51.2504         38.0004
  21389166.4404   -2135091.25049  -1648000.63247                  21389164.6324
        48.0004         33.0004
  22060946.7304   -1344776.75849  -1039517.36447                  22060944.9804
        46.5004         29.5004
  23378630.3474     942749.26249    720194.16647                  23378629.2304
        43.2504         27.2504
  23433482.6124   -3429960.71949  -2659110.59046                  23433478.9294
        42.5004         23.5004
 04  7  7 14  3 49.9990000  0 11G 6G10G15G16G17G18G21G26G29G30G22
  19881316.2144   -1076217.37949   -833905.18448                  19881314.1084
        51.5004         40.5004
  23821718.1284    1083749.68449    829162.20547                  23821716.9294
        41.2504         25.7504
  23938890.9174   -2944841.57449  -2284060.63946                  23938888.9054
        39.5004         20.7504
  23646919.8864   -2378358.40649  -1845016.07946                  23646917.5074
        40.7504         24.2504
  23485527.3554     130138.41449     95232.99246                  23485526.6244
        39.5004         20.0004
  21004252.7844   -2923308.16849  -2255287.20247                  21004250.2024
        50.5004         38.2504
  20846623.3394   -2216691.07449  -1711216.47447                  20846619.9214
        51.0004         37.7504
  21383646.6444   -2164095.13749  -1670601.06547                  21383644.9954
        47.5004         32.2504
  22057557.4254   -1362588.32049  -1053396.49647                  22057555.9254
        46.5004         30.0004
  23381130.0894     955886.24249    730430.74447                  23381129.0624
        43.0004         26.0004
  23423555.3084   -3482132.24249  -2699763.73147                  23423551.5654
        42.5004         26.0004
 04  7  7 14  3 59.9990000  0 11G 6G10G15G16G17G18G21G26G29G30G22
  19878656.5584   -1090193.44949   -844795.64848                  19878654.7724
        51.2504         40.5004
  23824588.0734    1098831.35549    840914.16846                  23824586.7654
        41.7504         22.7504
  23930385.7224   -2989534.75449  -2318886.55446                  23930383.9214
        39.2504         21.0004
  23640358.5654   -2412839.77049  -1871884.66646                  23640356.5034
        40.2504         24.5004
  23485816.4334     131660.25049     96418.84446                  23485815.8354
        39.7504         20.2504
  20996527.2764   -2963905.23049  -2286921.27747                  20996524.7064
        51.0004         37.7504
  20840624.5424   -2248215.48449  -1735780.94747                  20840620.8744
        51.2504         38.2504
  21378138.7144   -2193038.83249  -1693154.58947                  21378137.4644
        47.5004         31.7504
  22054178.1444   -1380346.37549  -1067233.93647                  22054176.5934
        46.0004         30.2504
  23383628.0814     969015.34449    740661.20346                  23383627.4604
        42.7504         24.7504
  23413630.3624   -3534288.50849  -2740404.98646                  23413626.4804
        43.2504         23.7504
 04  7  7 14  4  9.9990000  0 11G 6G10G15G16G17G18G21G26G29G30G22
  19876005.9014   -1104122.83249   -855649.71248                  19876004.0114
        50.7504         39.7504
  23827457.2924    1113910.01649    852663.73146                  23827456.4684
        41.5004         24.5004
  23921881.4334   -3034231.91049  -2353715.48846                  23921878.3354
        40.5004         20.0004
  23633806.6594   -2447274.01249  -1898716.55546                  23633803.5814
        39.7504         25.2504
  23486106.4874     133181.05149     97603.85246                  23486106.0544
        40.0004         19.7504
  20988808.9014   -3004465.80549  -2318526.92347                  20988806.4874
        50.7504         37.2504
  20834627.4404   -2279731.44549  -1760338.84447                  20834623.8784
        51.2504         37.7504
  21372642.2454   -2221921.66049  -1715660.69347                  21372641.1834
        46.5004         31.7504
  22050809.4174   -1398050.27049  -1081029.17847                  22050807.1754
        46.5004         29.2504
  23386125.1124     982137.26249    750886.04046                  23386124.6634
        41.7504         22.5004
  23403708.5194   -3586428.74249  -2781033.76846                  23403704.6834
        43.0004         24.0004
 04  7  7 14  4 19.9990000  0 11G 6G10G15G16G17G18G21G26G29G30G22
  19873364.1674   -1118005.11349   -866467.08247                  19873362.1084
        50.2504         39.0004
  23830325.9094    1128985.86349    864411.12346                  23830324.9724
        42.0004         23.5004
  23913375.0734   -3078932.74249  -2388547.33646                  23913372.9014
        40.0004         19.2504
  23627262.4724   -2481660.72749  -1925511.38946                  23627259.8974
        39.0004         23.0004
  23486395.9874     134701.30549     98788.44746                  23486394.8584
        39.2504         19.5004
  20981097.7374   -3044989.57049  -2350103.89047                  20981095.0814
        50.2504         37.2504
  20828631.7144   -2311238.72749  -1784889.97947                  20828628.2064
        50.5004         37.5004
  21367158.0114   -2250743.17249  -1738119.00847                  21367156.1794
        47.0004         31.5004
  22047450.6594   -1415699.60249  -1094781.91247                  22047448.8744
        45.5004         29.2504
  23388620.4954     995252.00449    761105.30846                  23388620.1674
        42.2504         24.0004
  23393789.1514   -3638552.67649  -2821649.80246                  23393786.1594
        42.0004         23.0004
 04  7  7 14  4 29.9990000  0 11G 6G10G15G16G17G18G21G26G29G30G22
  19870731.2374   -1131840.57049   -877247.97448                  19870729.4334
        50.5004         40.0004
  23833194.3624    1144058.55549    876156.03546                  23833193.6014
        42.5004         24.0004
  23904867.3474   -3123637.57049  -2423382.25746                  23904865.6364
        39.5004         20.7504
  23620727.9874   -2516000.15649  -1952269.39646                  23620725.0934
        40.5004         24.0004
  23486685.3624     136220.72749     99972.31446                  23486684.5584
        40.0004         19.2504
  20973393.1124   -3085476.71149  -2381652.31847                  20973390.5264
        50.7504         38.0004
  20822637.6594   -2342737.52049  -1809434.50647                  20822634.4444
        51.0004         38.2504
  21361685.0264   -2279503.55549  -1760529.70547                  21361683.3584
        46.5004         32.5004
  22044102.4094   -1433294.57049  -1108492.28647                  22044100.2844
        46.2504         29.7504
  23391114.9564    1008359.53949    771318.91046                  23391114.9804
        42.0004         24.0004
  23383873.6284   -3690660.46549  -2862253.29646                  23383870.3354
        42.7504         25.2504
 04  7  7 14  4 39.9990000  0 11G 6G10G15G16G17G18G21G26G29G30G22
  19868107.4094   -1145628.75049   -887992.00247                  19868105.7924
        51.7504         39.2504
  23836062.2304    1159128.43449    887898.81046                  23836061.1284
        42.7504         24.7504
  23896360.0584   -3168345.91849  -2458219.92446                  23896358.1834
        41.0004         20.5004
  23614201.9014   -2550291.85549  -1978990.19246                  23614199.7264
        40.0004         22.7504
  23486974.9484     137739.68049    101155.86046                  23486973.7224
        39.2504         20.5004
  20965695.9254   -3125926.82849  -2413171.88647                  20965693.2884
        50.7504         38.0004
  20816645.3004   -2374227.49249  -1833972.13347                  20816641.8704
        51.0004         37.5004
  21356223.8004   -2308202.33649  -1782892.37847                  21356222.2184
        47.0004         31.7504
  22040764.4404   -1450834.85949  -1122160.03147                  22040762.8944
        46.5004         28.2504
  23393608.5424    1021459.85249    781526.92246                  23393607.8624
        42.0004         23.0004
  23373960.0504   -3742751.58649  -2902843.74446                  23373956.9444
        42.0004         25.0004
 04  7  7 14  4 49.9990000  0 11G 6G10G15G16G17G18G21G26G29G30G22
  19865493.0264   -1159369.14849   -898698.81948                  19865490.9334
        51.5004         40.7504
  23838930.0814    1174195.94949    899639.72146                  23838928.3944
        42.5004         25.5004
  23887851.6834   -3213057.25049  -2493059.96146                  23887850.0114
        40.0004         20.7504
  23607686.0974   -2584535.25449  -2005673.38346                  23607683.5624
        41.0004         24.0004
  23487263.4874     139258.79749    102339.62446                  23487263.0654
        39.7504         21.0004
  20958005.5504   -3166339.30149  -2444662.13047                  20958002.8864
        50.2504         38.2504
  20810654.4254   -2405708.11349  -1858502.49547                  20810651.3704
        51.0004         38.0004
  21350774.9874   -2336839.00849  -1805206.67347                  21350773.2614
        46.7504         32.0004
  22037437.5034   -1468319.99649  -1135784.82447                  22037435.1944
        46.7504         30.2504
  23396100.3624    1034553.58249    791729.80646                  23396099.2924
        42.0004         24.5004
  23364051.6054   -3794825.49649  -2943420.83946                  23364048.1244
        41.2504         25.2504
 04  7  7 14  4 59.9990000  0 11G 6G10G15G16G17G18G21G26G29G30G22
  19862887.3704   -1173061.16449   -909367.93448                  19862885.2924
        51.2504         40.5004
  23841795.7694    1189261.62949    911379.16646                  23841795.6124
        42.0004         25.5004
  23879342.7844   -3257770.96149  -2527901.78446                  23879341.8154
        40.7504         21.2504
  23601178.7764   -2618729.68749  -2032318.40246                  23601176.3864
        41.5004         22.7504
  23487552.5424     140778.63349    103523.84946                  23487552.1714
        40.2504         21.5004
  20950322.6284   -3206713.46549  -2476122.52547                  20950319.8084
        51.0004         38.5004
  20804665.8554   -2437178.70749  -1883025.04147                  20804662.5194
        51.2504         37.7504
  21345337.2224   -2365412.80149  -1827471.96747                  21345335.6444
        46.7504         32.5004
  22034120.7614   -1485749.18749  -1149366.01547                  22034119.1084
        46.2504         30.0004
  23398590.6754    1047641.13749    801927.88646                  23398590.1634
        42.5004         23.5004
  23354145.1444   -3846881.47349  -2983983.93146                  23354142.1244
        43.0004         25.5004
 04  7  7 14  5  9.9990000  0 11G 6G10G15G16G17G18G21G26G29G30G22
  19860290.4174   -1186707.04349   -920001.09448                  19860288.6284
        51.7504         40.0004
  23844662.0264    1204323.01249    923115.29846                  23844661.6244
        42.5004         22.7504
  23870833.5344   -3302489.39849  -2562747.34046                  23870832.3784
        40.5004         20.7504
  23594681.0424   -2652877.41049  -2058927.02946                  23594678.4834
        41.2504         23.2504
  23487841.5264     142296.85249    104706.83946                  23487840.8514
        40.0004         21.5004
  20942646.6054   -3247051.69949  -2507554.91347                  20942643.5304
        51.0004         37.5004
  20798678.6054   -2468641.63749  -1907541.61147                  20798675.7534
        51.0004         37.5004
  21339911.2764   -2393926.03549  -1849690.06947                  21339909.4764
        47.5004         32.5004
  22030813.8474   -1503124.89849  -1162905.53947                  22030812.3354
        46.5004         29.5004
  23401079.6834    1060720.09849    812119.26646                  23401079.0934
        41.2504         23.5004
  23344242.7374   -3898921.80149  -3024534.82047                  23344239.3584
        42.5004         26.5004
 04  7  7 14  5 19.9990000  0 11G 6G10G15G16G17G18G21G26G29G30G22
  19857703.1124   -1200304.61349   -930596.60148                  19857701.0694
        51.2504         39.7504
  23847528.1204    1219382.28549    934849.71346                  23847527.4214
        42.2504         24.2504
  23862322.8784   -3347210.25449  -2597594.73846                  23862321.6324
        40.0004         20.5004
  23588191.9404   -2686976.21149  -2085497.50946                  23588189.0074
        41.5004         25.0004
  23488130.3554     143815.63749    105890.31946                  23488129.5814
        40.2504         20.5004
  20934977.7534   -3287351.67649  -2538957.48047                  20934974.9834
        51.0004         37.5004
  20792693.3784   -2500094.61749  -1932050.42647                  20792690.4214
        50.5004         37.0004
  21334497.4564   -2422376.30149  -1871859.08747                  21334495.9564
        47.2504         32.2504
  22027518.3474   -1520444.75449  -1176401.53747                  22027516.8084
        45.7504         30.5004
  23403567.1904    1073792.53549    822305.57846                  23403566.2654
        42.0004         24.2504
  23334343.5584   -3950944.21549  -3065071.73947                  23334339.1834
        43.2504         26.7504
 04  7  7 14  5 29.9990000  0 11G 6G10G15G16G17G18G21G26G29G30G22
  19855124.7454   -1213854.57049   -941155.01448                  19855122.7454
        51.0004         39.5004
  23850392.8314    1234438.49649    946581.85746                  23850392.3704
        42.2504         23.0004
  23853812.8314   -3391934.47349  -2632444.79346                  23853810.6594
        40.2504         20.2504
  23581712.6754   -2721026.92649  -2112030.53446                  23581709.1714
        40.5004         23.0004
  23488419.5344     145334.27049    107073.61046                  23488418.3124
        40.5004         22.0004
  20927315.8784   -3327614.32449  -2570330.97847                  20927313.2064
        50.7504         37.5004
  20786709.6754   -2531538.55149  -1956552.18647                  20786706.7454
        50.5004         37.0004
  21329094.8474   -2450764.46549  -1893979.73847                  21329093.8784
        47.0004         32.0004
  22024232.9874   -1537709.71949  -1189854.74447                  22024231.2924
        46.5004         29.7504
  23406052.8864    1086857.54349    832486.05646                  23406052.4804
        41.5004         22.5004
  23324446.9484   -4002949.56649  -3105595.41147                  23324443.1674
        43.7504         27.0004
 04  7  7 14  5 39.9990000  0 11G 6G10G15G16G17G18G21G26G29G30G22
  19852555.1204   -1227357.84849   -951677.06348                  19852553.0624
        51.7504         40.5004
  23853257.3474    1249490.82849    958310.91546                  23853256.8394
        42.5004         23.7504
  23845300.2534   -3436662.90649  -2667298.05746                  23845299.2334
        39.0004         20.7504
  23575241.9014   -2755030.27049  -2138526.66346                  23575239.2454
        42.0004         22.5004
  23488708.2224     146851.83649    108256.14346                  23488707.8944
        41.0004         22.2504
  20919661.2534   -3367840.37549  -2601675.95247                  20919658.1984
        50.5004         38.5004
  20780728.0114   -2562974.19549  -1981047.50547                  20780724.9954
        50.5004         37.5004
  21323704.6984   -2479091.34849  -1916052.64347                  21323703.4954
        47.0004         33.2504
  22020957.2694   -1554920.59849  -1203265.81547                  22020955.7064
        47.0004         29.2504
  23408538.1444    1099914.29349    842660.13246                  23408537.3194
        42.5004         23.0004
  23314553.9874   -4054938.54349  -3146106.30947                  23314550.1554
        43.5004         26.0004
 04  7  7 14  5 49.9990000  0 11G 6G10G15G16G17G18G21G26G29G30G22
  19849994.4874   -1240813.00849   -962161.61248                  19849992.6874
        51.5004         40.0004
  23856121.7694    1264540.48049    970037.88646                  23856120.7724
        43.0004         23.2504
  23836788.3314   -3481394.16449  -2702153.64346                  23836787.4684
        39.7504         21.2504
  23568780.4484   -2788984.83649  -2164984.81146                  23568777.8824
        42.7504         23.0004
  23488997.4334     148369.78949    109438.89946                  23488997.2654
        39.5004         22.0004
  20912013.7924   -3408028.38749  -2632991.29547                  20912011.0384
        51.0004         38.0004
  20774747.6444   -2594400.16449  -2005535.28347                  20774744.9174
        51.2504         37.5004
  21318326.3234   -2507355.37949  -1938076.55947                  21318324.6874
        46.7504         31.7504
  22017693.3004   -1572076.00449  -1216633.69647                  22017691.0974
        46.5004         30.0004
  23411020.9874    1112963.87549    852828.63746                  23411020.3824
        42.0004         24.0004
  23304663.8474   -4106909.69549  -3186603.31847                  23304659.7614
        43.2504         26.7504
 04  7  7 14  5 59.9990000  0 11G 6G10G15G16G17G18G21G26G29G30G22
  19847443.5114   -1254219.65249   -972608.35348                  19847441.6084
        51.5004         40.0004
  23858985.0194    1279587.85949    981763.08446                  23858984.1554
        43.2504         23.5004
  23828275.7764   -3526127.73849  -2737010.89846                  23828274.7304
        40.0004         22.0004
  23562327.8554   -2822890.03949  -2191404.44846                  23562325.5304
        39.7504         24.5004
  23489286.9644     149888.57849    110622.34446                  23489286.7694
        39.7504         22.0004
  20904373.4254   -3448177.81649  -2664276.56247                  20904370.7724
        50.2504         37.7504
  20768769.5734   -2625816.06249  -2030015.20047                  20768766.3974
        51.0004         38.0004
  21312959.7304   -2535556.11349  -1960051.14947                  21312958.3624
        47.0004         32.0004
  22014438.9644   -1589175.41049  -1229957.88647                  22014437.7144
        45.5004         30.0004
  23413503.3004    1126006.73049    862991.86846                  23413501.8744
        42.2504         22.5004
  23294777.7064   -4158862.60249  -3227086.07847                  23294774.0384
        44.0004         27.0004
 04  7  7 14  6  9.9990000  0 11G 6G10G15G16G17G18G21G26G29G30G22
  19844901.5344   -1267577.34449   -983016.96648                  19844899.7104
        51.5004         41.0004
  23861848.2614    1294633.23049    993486.72646                  23861847.0464
        42.5004         22.7504
  23819763.5344   -3570863.40249  -2771869.89446                  23819761.9174
        39.5004         20.0004
  23555885.8154   -2856745.72749  -2217785.49446                  23555883.5934
        40.2504         23.0004
  23489575.6054     151408.49649    111806.66546                  23489575.9014
        39.5004         22.2504
  20896740.7694   -3488288.40649  -2695531.57747                  20896737.6054
        50.7504         38.0004
  20762793.1594   -2657221.78549  -2054487.21347                  20762790.0624
        50.0004         38.0004
  21307605.5974   -2563693.14849  -1981976.13047                  21307604.2334
        47.5004         32.2504
  22011196.3944   -1606218.55149  -1243238.27747                  22011194.6904
        46.0004         30.2504
  23415983.7144    1139043.10549    873150.06046                  23415982.5344
        43.2504         23.0004
  23284894.9804   -4210796.85549  -3267554.36747                  23284891.3514
        42.5004         27.2504
 04  7  7 14  6 19.9990000  0 11G 6G10G15G16G17G18G21G26G29G30G22
  19842368.8624   -1280887.34849   -993388.39748                  19842366.6634
        51.7504         40.2504
  23864710.2224    1309675.21149   1005207.74046                  23864709.2264
        42.5004         22.5004
  23811248.6904   -3615602.42249  -2806731.50046                  23811248.1474
        39.2504         19.5004
  23549453.0504   -2890553.02349  -2244128.83746                  23549449.4804
        40.5004         22.7504
  23489864.4404     152928.33649    112990.92946                  23489864.8904
        40.5004         22.0004
  20889114.8154   -3528361.44549  -2726757.32547                  20889112.2844
        49.7504         38.2504
  20756818.5654   -2688618.24649  -2078951.97947                  20756815.4874
        50.5004         38.0004
  21302262.9404   -2591767.69549  -2003852.38847                  21302262.0224
        47.0004         32.7504
  22007963.1514   -1623206.63749  -1256475.74347                  22007962.1754
        46.0004         30.0004
  23418462.8394    1152071.61349    883302.12446                  23418462.2104
        43.5004         24.5004
  23275015.2064   -4262713.69149  -3308009.01247                  23275011.6634
        43.5004         27.0004
 04  7  7 14  6 29.9990000  0 11G 6G10G15G16G17G18G21G26G29G30G22
  19839844.9404   -1294150.50049  -1003723.31147                  19839842.8864
        51.0004         39.2504
  23867571.5584    1324712.95749   1016925.46946                  23867570.9374
        42.7504         23.2504
  23802734.5114   -3660345.58649  -2841596.30346                  23802733.8314
        40.5004         20.0004
  23543028.4174   -2924312.66849  -2270435.04046                  23543025.2334
        39.5004         22.7504
  23490154.2764     154447.28949    114174.46946                  23490153.6594
        41.0004         22.0004
  20881496.4954   -3568397.66449  -2757954.36447                  20881493.4014
        50.5004         37.5004
  20750845.5894   -2720006.27349  -2103410.17947                  20750842.3784
        51.0004         37.5004
  21296932.2144   -2619780.58649  -2025680.60747                  21296931.0934
        48.0004         32.0004
  22004740.5894   -1640140.53549  -1269670.96747                  22004739.8004
        46.2504         30.0004
  23420940.3084    1165091.30949    893447.30546                  23420939.8434
        42.0004         23.5004
  23265139.2374   -4314613.77049  -3348450.64047                  23265135.5344
        43.7504         26.5004
 04  7  7 14  6 39.9990000  0 11G 6G10G15G16G17G18G21G26G29G30G22
  19837330.2454   -1307365.91049  -1014021.05948                  19837328.1054
        51.0004         39.5004
  23870432.7844    1339747.29749   1028640.47546                  23870432.0304
        42.0004         22.5004
  23794220.2374   -3705091.94549  -2876463.52646                  23794219.1124
        41.0004         20.5004
  23536613.1444   -2958023.77749  -2296703.45446                  23536609.6474
        41.2504         22.2504
  23490442.7224     155966.23849    115358.07746                  23490442.8904
        41.0004         21.7504
  20873884.7924   -3608396.18749  -2789122.05547                  20873882.2334
        50.7504         38.0004
  20744874.5584   -2751384.95749  -2127861.10847                  20744870.9604
        50.5004         37.2504
  21291613.6364   -2647730.78549  -2047459.99047                  21291611.8554
        47.5004         31.5004
  22001528.4564   -1657019.27749  -1282823.24847                  22001527.7534
        46.5004         29.5004
  23423416.4174    1178102.99649    903586.25046                  23423415.6984
        42.5004         22.7504
  23255266.3314   -4366496.12549  -3388878.44447                  23255262.5654
        44.5004         27.5004
 04  7  7 14  6 49.9990000  0 11G 6G10G15G16G17G18G21G26G29G30G22
  19834824.7224   -1320532.56249  -1024280.74947                  19834822.5304
        50.7504         38.7504
  23873293.2694    1354779.12149   1040353.61046                  23873292.7724
        41.0004         22.0004
  23785704.8704   -3749840.57449  -2911332.63046                  23785703.1514
        39.7504         20.7504
  23530207.9174   -2991685.33649  -2322933.26146                  23530204.8004
        40.7504         22.7504
  23490732.1754     157486.09849    116542.34146                  23490732.0424
        40.2504         22.0004
  20866280.6204   -3648355.93449  -2820259.47747                  20866278.2884
        50.5004         37.2504
  20738905.2144   -2782753.34849  -2152303.97547                  20738902.2454
        50.0004         37.5004
  21286306.9404   -2675617.23449  -2069189.62447                  21286305.3824
        46.7504         31.7504
  21998327.8394   -1673841.91849  -1295931.75347                  21998326.3944
        45.7504         28.0004
  23425892.1754    1191107.62549    913719.71446                  23425890.3904
        42.0004         22.5004
  23245396.8154   -4418359.82849  -3429291.66947                  23245393.5854
        43.0004         27.5004
 04  7  7 14  6 59.9990000  0 11G 6G10G15G16G17G18G21G26G29G30G22
  19832328.2614   -1333650.27349  -1034502.38548                  19832326.4914
        51.5004         40.5004
  23876153.3084    1369808.54749   1052064.80246                  23876152.2454
        41.0004         22.5004
  23777188.8784   -3794591.16049  -2946203.25346                  23777187.6874
        40.2504         19.7504
  23523811.8704   -3025296.99649  -2349124.16446                  23523808.9994
        41.0004         25.0004
  23491021.3474     159007.19149    117727.62946                  23491021.0304
        41.0004         22.5004
  20858684.1904   -3688276.57049  -2851366.50747                  20858681.1904
        49.7504         38.5004
  20732938.2454   -2814111.23849  -2176738.73947                  20732935.3394
        50.2504         38.5004
  21281012.9804   -2703439.66849  -2090869.49147                  21281011.3974
        47.0004         32.0004
  21995137.2304   -1690608.22349  -1308996.47247                  21995136.0384
        46.0004         30.2504
  23428364.9564    1204105.22749    923847.69446                  23428363.5424
        42.2504         22.7504
  23235531.0814   -4470204.41449  -3469690.10547                  23235528.1444
        43.2504         27.2504
 04  7  7 14  7  9.9990000  0 11G 6G10G15G16G17G18G21G26G29G30G22
  19829841.3084   -1346720.04749  -1044686.61348                  19829839.5624
        51.5004         40.0004
  23879012.8314    1384834.41049   1063773.26846                  23879011.3584
        39.7504         20.7504
  23768673.0194   -3839344.96549  -2981076.27946                  23768671.2304
        39.7504         20.2504
  23517425.4014   -3058859.95349  -2375277.14046                  23517421.9174
        41.2504         23.0004
  23491310.9484     160528.32049    118912.88346                  23491310.9874
        41.5004         22.7504
  20851094.4094   -3728159.27049  -2882443.93047                  20851092.3124
        50.5004         38.0004
  20726972.5814   -2845459.82049  -2201166.19047                  20726969.7924
        50.5004         37.5004
  21275730.1284   -2731199.08649  -2112500.18947                  21275728.9604
        46.7504         31.2504
  21991957.2374   -1707319.37949  -1322018.14147                  21991955.6324
        46.5004         29.5004
  23430836.7844    1217094.58249    933969.27046                  23430835.8514
        41.0004         22.7504
  23225668.7064   -4522031.14149  -3510074.54147                  23225665.6244
        44.0004         25.7504
 04  7  7 14  7 19.9980000  0 11G 6G10G15G16G17G18G21G26G29G30G22
  19827363.5764   -1359739.68749  -1054831.81348                  19827361.9594
        51.2504         40.5004
  23881870.5224    1399856.04349   1075478.36946                  23881870.1434
        39.0004         21.0004
  23760156.9514   -3884096.50849  -3015947.63346                  23760155.2994
        41.2504         20.0004
  23511048.5224   -3092369.83649  -2401388.78346                  23511045.1154
        40.7504         22.5004
  23491600.8344     162050.30149    120098.75746                  23491600.4714
        42.2504         23.2504
  20843513.5064   -3767999.15249  -2913488.00847                  20843510.9164
        50.7504         38.7504
  20721010.1704   -2876794.93749  -2225583.17947                  20721006.9004
        49.7504         38.2504
  21270460.4364   -2758891.77349  -2134078.93247                  21270459.3424
        47.0004         32.5004
  21988788.5064   -1723972.70349  -1334994.78547                  21988786.6704
        45.5004         30.2504
  23433307.1314    1230075.28549    944084.02246                  23433306.5454
        41.0004         24.0004
  23215810.8504   -4573833.80549  -3550440.28247                  23215807.4204
        43.5004         27.5004
 04  7  7 14  7 29.9980000  0 11G 6G10G15G16G17G18G21G26G29G30G22
  19824894.9904   -1372712.92249  -1064940.84248                  19824893.0924
        51.0004         40.5004
  23884728.2484    1414875.25049   1087181.60546                  23884727.8184
        38.0004         19.2504
  23751639.9514   -3928855.98049  -3050825.20746                  23751637.7294
        39.7504         19.0004
  23504680.6004   -3125834.46149  -2427465.10246                  23504677.5374
        41.2504         23.7504
  23491890.4984     163572.30149    121284.77646                  23491890.5574
        42.0004         22.0004
  20835938.8034   -3807805.28549  -2944505.79147                  20835935.9044
        50.5004         38.2504
  20715047.9904   -2908124.02349  -2249995.46647                  20715044.8894
        50.2504         38.0004
  21265202.3184   -2786524.45749  -2155610.88547                  21265200.8814
        47.2504         32.0004
  21985629.1154   -1740572.66849  -1347929.82147                  21985627.9674
        46.2504         31.0004
  23435775.6474    1243048.54349    954193.04646                  23435774.7094
        41.7504         22.5004
  23205955.8814   -4625623.87549  -3590796.16747                  23205952.6074
        43.0004         27.2504
 04  7  7 14  7 39.9980000  0 11G 6G10G15G16G17G18G21G26G29G30G22
  19822435.2014   -1385638.65649  -1075012.83748                  19822433.2174
        51.5004         40.2504
  23887586.3184    1429890.15249   1098881.49046                  23887584.8034
        39.2504         18.2504
  23743121.8344   -3973619.12149  -3085705.53046                  23743120.3344
        40.5004         19.0004
  23498321.3504   -3159250.67649  -2453503.70746                  23498318.4284
        41.0004         23.2504
  23492180.4594     165093.94549    122470.33346                  23492179.5294
        42.0004         22.5004
  20828370.5844   -3847573.92649  -2975494.32847                  20828368.3264
        50.5004         37.7504
  20709088.0454   -2939444.22749  -2274400.82047                  20709084.8264
        50.5004         37.7504
  21259956.0534   -2814094.47349  -2177094.01747                  21259954.7094
        47.2504         31.7504
  21982480.9674   -1757117.88349  -1360822.19647                  21982479.0644
        45.7504         30.5004
  23438242.6314    1256012.87949    964295.16846                  23438241.7134
        40.7504         22.2504
  23196103.7874   -4677396.28149  -3631138.30347                  23196100.8304
        43.5004         27.5004
 04  7  7 14  7 49.9980000  0 11G 6G10G15G16G17G18G21G26G29G30G22
  19819984.5924   -1398517.36349  -1085048.20648                  19819982.9044
        51.0004         39.5004
  23890443.0684    1444900.24249   1110577.68246                  23890441.1114
        39.2504         19.2504
  23734602.7484   -4018386.25849  -3120589.04446                  23734601.3344
        41.7504         19.5004
  23491971.4364   -3192618.94149  -2479504.97146                  23491968.8614
        42.0004         22.5004
  23492469.7484     166614.81349    123655.45646                  23492469.1504
        43.0004         22.7504
  20820810.2014   -3887305.44949  -3006453.96747                  20820807.3504
        50.0004         38.0004
  20703129.6394   -2970755.95749  -2298799.57447                  20703126.3344
        51.7504         38.0004
  21254721.2254   -2841602.15249  -2198528.57147                  21254720.2794
        47.2504         31.5004
  21979342.8114   -1773608.78149  -1373672.23747                  21979341.0844
        46.0004         30.5004
  23440707.5144    1268967.64149    974389.73746                  23440706.8544
        41.0004         22.5004
  23186255.2724   -4729151.37949  -3671466.95747                  23186252.1894
        44.2504         28.0004
 04  7  7 14  7 59.9980000  0 11G 6G10G15G16G17G18G21G26G29G30G22
  19817542.8814   -1411348.54349  -1095046.53947                  19817541.0924
        50.5004         39.2504
  23893298.8184    1459906.12149   1122270.56746                  23893296.7644
        40.2504         18.2504
  23726082.8814   -4063156.80949  -3155475.21846                  23726081.5884
        40.0004         20.2504
  23485631.1314   -3225938.48049  -2505468.22546                  23485628.3814
        41.5004         22.7504
  23492758.8894     168135.55949    124840.42246                  23492758.5184
        43.2504         22.7504
  20813256.7324   -3926999.19949  -3037384.14547                  20813254.0644
        50.7504         37.7504
  20697173.2324   -3002058.58649  -2323191.24247                  20697169.7254
        51.0004         37.5004
  21249498.3344   -2869046.87149  -2219914.06247                  21249497.9674
        46.7504         32.7504
  21976215.0454   -1790044.73449  -1386479.48547                  21976213.5144
        46.2504         30.5004
  23443171.2874    1281913.36749    984477.34846                  23443170.3774
        40.7504         22.0004
  23176409.9984   -4780888.53549  -3711781.61847                  23176407.2794
        44.5004         27.0004
 04  7  7 14  8  9.9980000  0 11G 6G10G15G16G17G18G21G26G29G30G22
  19815110.3424   -1424130.37949  -1105006.42648                  19815108.2994
        51.2504         40.2504
  23896153.6864    1474909.37149   1133961.40346                  23896151.7444
        41.5004         19.7504
  23717563.3574   -4107929.19549  -3190362.73146                  23717562.0104
        41.2504         21.5004
  23479300.2324   -3259207.64149  -2531392.27146                  23479297.7644
        41.0004         22.7504
  23493048.4204     169657.80549    126026.58047                  23493048.2604
        42.5004         25.7504
  20805710.8114   -3966653.48049  -3068283.60047                  20805708.1074
        50.0004         38.2504
  20691218.4364   -3033350.43449  -2347574.49947                  20691215.0684
        50.5004         38.2504
  21244288.1074   -2896426.90249  -2241249.16447                  21244287.2644
        47.0004         33.0004
  21973098.3654   -1806424.05149  -1399242.59247                  21973096.4244
        46.2504         30.0004
  23445633.4754    1294851.64149    994559.01646                  23445632.3774
        40.7504         22.5004
  23166568.8974   -4832606.05149  -3752081.00347                  23166565.6394
        44.0004         26.5004
 04  7  7 14  8 19.9980000  0 11G 6G10G15G16G17G18G21G26G29G30G22
  19812687.4434   -1436863.14149  -1114928.05948                  19812685.9364
        51.0004         40.0004
  23899007.8034    1489909.69549   1145649.85046                  23899006.1074
        41.7504         20.5004
  23709042.4514   -4152703.54749  -3225251.85346                  23709041.3894
        40.7504         21.2504
  23472978.4364   -3292426.62149  -2557277.17446                  23472976.2294
        40.7504         22.2504
  23493338.7564     171181.37949    127213.70646                  23493338.7134
        43.0004         22.7504
  20798172.0534   -4006268.50449  -3099152.44047                  20798169.9754
        50.0004         38.0004
  20685265.6314   -3064631.72749  -2371949.52147                  20685262.4004
        51.0004         38.2504
  21239090.1004   -2923742.36349  -2262533.91947                  21239089.2014
        47.5004         32.7504
  21969992.0764   -1822746.95749  -1411961.72347                  21969990.6234
        46.5004         29.0004
  23448094.0844    1307782.21549   1004634.82146                  23448092.4324
        41.5004         22.0004
  23156730.9434   -4884304.05549  -3792365.14646                  23156727.9124
        43.2504         25.2504
 04  7  7 14  8 29.9980000  0 11G 6G10G15G16G17G18G21G26G29G30G22
  19810273.9824   -1449547.80549  -1124812.21948                  19810271.8264
        51.7504         40.5004
  23901861.0534    1504905.82049   1157335.23846                  23901860.0964
        41.5004         21.0004
  23700521.7644   -4197481.09449  -3260143.40346                  23700520.4554
        40.2504         20.5004
  23466667.1474   -3325596.57849  -2583123.89546                  23466664.0294
        43.0004         24.0004
  23493628.2874     172705.08249    128400.98746                  23493628.6584
        42.7504         25.0004
  20790640.8114   -4045845.33649  -3129991.53247                  20790638.1114
        51.0004         38.5004
  20679314.8654   -3095903.60549  -2396317.23147                  20679311.6154
        50.7504         38.5004
  21233904.4204   -2950994.39549  -2283769.26847                  21233903.4794
        47.0004         33.0004
  21966896.1544   -1839014.62549  -1424637.83747                  21966895.1974
        46.2504         29.7504
  23450553.3424    1320703.80549   1014703.53046                  23450552.0844
        42.0004         24.7504
  23146896.3654   -4935983.64549  -3832634.94347                  23146892.9864
        43.5004         26.5004
 04  7  7 14  8 39.9980000  0 11G 6G10G15G16G17G18G21G26G29G30G22
  19807869.2794   -1462183.65649  -1134658.35148                  19807867.2794
        51.2504         40.7504
  23904714.5614    1519898.50049   1169017.76546                  23904712.9634
        41.2504         20.7504
  23691999.9824   -4242261.05149  -3295036.94046                  23691998.6864
        40.7504         20.0004
  23460364.4044   -3358716.69149  -2608931.80546                  23460361.3974
        41.0004         24.2504
  23493918.5454     174229.72749    129588.99446                  23493919.0144
        42.5004         22.5004
  20783117.4044   -4085383.18049  -3160800.26547                  20783114.7914
        50.5004         38.2504
  20673365.8734   -3127165.24649  -2420676.95647                  20673362.6394
        50.7504         39.0004
  21228730.6394   -2978182.14149  -2304954.53647                  21228729.2644
        47.2504         33.2504
  21963811.5144   -1855226.35249  -1437270.35847                  21963810.2604
        46.2504         30.7504
  23453010.4044    1333617.00849   1024765.75246                  23453009.6664
        42.5004         24.5004
  23137065.5064   -4987644.05949  -3872889.84746                  23137061.6154
        43.5004         25.2504
 04  7  7 14  8 49.9980000  0 11G 6G10G15G16G17G18G21G26G29G30G22
  19805474.0534   -1474771.28949  -1144466.90148                  19805471.9124
        51.0004         40.0004
  23907567.3344    1534887.20749   1180697.30246                  23907565.3974
        40.7504         20.5004
  23683478.9284   -4287043.79349  -3329932.53946                  23683477.3544
        40.7504         19.7504
  23454071.4904   -3391787.28949  -2634701.13746                  23454068.3264
        41.0004         24.0004
  23494209.0924     175754.89849    130777.40246                  23494208.9474
        43.0004         22.0004
  20775600.7094   -4124882.45349  -3191578.90847                  20775598.2294
        50.5004         38.0004
  20667419.1474   -3158417.06249  -2445029.02947                  20667415.5334
        50.0004         38.0004
  21223568.9824   -3005305.93449  -2326089.94547                  21223568.0374
        47.2504         32.7504
  21960737.0454   -1871382.34849  -1449859.45147                  21960735.7324
        46.5004         30.0004
  23455466.6704    1346521.27749   1034821.01546                  23455465.3384
        43.0004         25.0004
  23127238.4044   -5039285.58249  -3913129.99146                  23127234.4714
        41.2504         25.0004
 04  7  7 14  8 59.9980000  0 11G 6G10G15G16G17G18G21G26G29G30G22
  19803087.6474   -1487310.64549  -1154237.83448                  19803086.2014
        51.0004         40.0004
  23910418.1314    1549871.66449   1192373.52746                  23910416.9164
        41.0004         21.5004
  23674956.2794   -4331829.59849  -3364830.59046                  23674954.6044
        40.7504         20.5004
  23447787.1784   -3424808.55549  -2660431.99846                  23447785.1354
        42.2504         22.7504
  23494499.8264     177280.40649    131966.08846                  23494499.4044
        42.0004         22.7504
  20768091.6074   -4164343.31649  -3222327.63347                  20768088.9124
        50.7504         38.0004
  20661473.9364   -3189659.20749  -2469373.55247                  20661470.1474
        50.5004         37.7504
  21218420.1314   -3032366.01249  -2347175.72447                  21218418.6504
        47.5004         32.7504
  21957673.1934   -1887482.95749  -1462405.37747                  21957671.9904
        45.7504         29.7504
  23457920.2954    1359416.43049   1044869.15346                  23457919.3934
        43.0004         24.5004
  23117415.4434   -5090908.34849  -3953355.52446                  23117411.4714
        41.7504         25.5004
 04  7  7 14  9  9.9980000  0 11G 6G10G15G16G17G18G21G26G29G30G22
  19800710.8974   -1499801.78949  -1163971.19948                  19800708.8544
        51.5004         39.5004
  23913268.9674    1564851.82049   1204046.33146                  23913267.4364
        41.0004         21.5004
  23666433.3264   -4376618.37949  -3399730.93346                  23666431.2604
        41.2504         21.5004
  23441513.1624   -3457780.45349  -2686124.36946                  23441510.4794
        41.5004         25.2504
  23494789.4364     178806.30949    133155.06246                  23494789.5254
        42.0004         22.2504
  20760589.8424   -4203765.77049  -3253046.42747                  20760587.2564
        51.0004         38.5004
  20655530.4984   -3220891.68049  -2493710.54647                  20655527.0844
        50.7504         37.5004
  21213282.9824   -3059362.19149  -2368211.69847                  21213281.6044
        47.2504         32.5004
  21954619.9824   -1903528.12549  -1474908.12047                  21954618.4434
        46.5004         30.5004
  23460372.1784    1372302.30949   1054910.10046                  23460370.6934
        43.2504         22.7504
  23107594.9284   -5142512.31649  -3993566.41546                  23107591.7484
        43.0004         24.7504
 04  7  7 14  9 19.9980000  0 11G 6G10G15G16G17G18G21G26G29G30G22
  19798343.0374   -1512244.22749  -1173666.61848                  19798340.9474
        50.5004         39.5004
  23916118.8974    1579828.06649   1215716.00346                  23916118.0064
        40.5004         21.0004
  23657910.1234   -4421409.63349  -3434633.27346                  23657908.1974
        41.5004         20.2504
  23435248.7094   -3490702.40649  -2711777.86746                  23435245.7134
        40.5004         24.7504
  23495080.4824     180333.09049    134344.71246                  23495080.3074
        42.5004         22.2504
  20753095.3504   -4243149.19949  -3283734.82747                  20753092.9434
        51.0004         39.0004
  20649589.2484   -3252114.00849  -2518039.64047                  20649585.8814
        51.0004         37.7504
  21208157.8654   -3086293.93749  -2389197.47347                  21208156.7484
        47.5004         33.0004
  21951577.3574   -1919517.29749  -1487367.20047                  21951576.0224
        46.2504         31.0004
  23462822.6474    1385179.35949   1064944.16646                  23462821.6074
        43.7504         24.0004
  23097779.2564   -5194096.84449  -4033762.14747                  23097775.7994
        43.5004         26.7504
 04  7  7 14  9 29.9980000  0 11G 6G10G15G16G17G18G21G26G29G30G22
  19795984.1704   -1524638.73449  -1183324.68848                  19795982.7444
        50.7504         40.0004
  23918968.4284    1594799.51249   1227382.08046                  23918966.9164
        41.0004         22.5004
  23649385.5224   -4466204.22749  -3469538.12646                  23649384.1194
        41.7504         20.7504
  23428992.3654   -3523575.15249  -2737393.01546                  23428990.1354
        40.7504         24.5004
  23495370.8114     181859.97749    135534.45446                  23495371.1934
        42.0004         24.2504
  20745608.2564   -4282494.43049  -3314393.44747                  20745605.2524
        51.0004         37.5004
  20643649.4124   -3283326.99649  -2542361.46147                  20643645.7954
        50.7504         38.7504
  21203044.9514   -3113161.97749  -2410133.61447                  21203044.1784
        47.2504         33.2504
  21948545.4594   -1935451.37549  -1499783.38747                  21948543.5064
        46.7504         31.2504
  23465271.1394    1398046.68849   1074970.64846                  23465270.2724
        43.0004         24.0004
  23087966.2014   -5245662.75049  -4073943.40546                  23087962.8774
        42.7504         24.2504
 04  7  7 14  9 39.9980000  0 11G 6G10G15G16G17G18G21G26G29G30G22
  19793635.2644   -1536984.56649  -1192944.82048                  19793633.1934
        50.7504         39.7504
  23921816.7014    1609766.97749   1239045.01446                  23921814.7094
        41.2504         21.5004
  23640860.9824   -4511001.37149  -3504444.93346                  23640859.2874
        40.5004         21.5004
  23422746.6154   -3556397.99649  -2762969.23146                  23422743.8574
        39.7504         24.7504
  23495661.4204     183387.76249    136724.92046                  23495661.0454
        42.0004         23.0004
  20738128.6234   -4321800.64149  -3345021.65647                  20738125.8074
        51.0004         38.2504
  20637711.7794   -3314529.83249  -2566675.36447                  20637708.3814
        50.5004         38.7504
  21197944.6394   -3139965.55149  -2431019.50047                  21197943.5804
        47.2504         33.2504
  21945523.5764   -1951329.53949  -1512155.98347                  21945522.2954
        46.5004         30.7504
  23467717.7324    1410905.00849   1084990.08746                  23467716.7604
        42.7504         23.2504
  23078157.6474   -5297209.21149  -4114109.47546                  23078153.5644
        41.7504         24.5004
 04  7  7 14  9 49.9980000  0 11G 6G10G15G16G17G18G21G26G29G30G22
  19791295.4044   -1549280.84049  -1202526.34348                  19791292.9864
        51.0004         40.5004
  23924664.4364    1624731.09049   1250705.33446                  23924662.5294
        41.5004         22.5004
  23632336.1074   -4555800.21949  -3539353.17746                  23632333.9754
        41.7504         21.5004
  23416510.0684   -3589170.03949  -2788505.93246                  23416507.7564
        41.2504         23.2504
  23495953.1234     184917.22749    137916.69346                  23495952.1474
        42.5004         22.7504
  20730656.4204   -4361067.09049  -3375618.90847                  20730653.6234
        50.7504         38.7504
  20631776.0844   -3345721.69949  -2590980.71947                  20631772.8654
        50.5004         39.2504
  21192856.5224   -3166703.78149  -2451854.48747                  21192855.0844
        47.5004         34.5004
  21942513.0454   -1967150.89549  -1524484.31647                  21942511.6664
        46.2504         31.0004
  23470163.4204    1423754.87149   1095002.91446                  23470162.5414
        42.2504         24.0004
  23068352.2254   -5348735.37949  -4154259.73647                  23068348.4634
        43.2504         27.2504
 04  7  7 14  9 59.9980000  0 11G 6G10G15G16G17G18G21G26G29G30G22
  19788964.8974   -1561527.68749  -1212069.35048                  19788962.8974
        50.7504         40.0004
  23927510.9754    1639691.76649   1262362.96746                  23927509.2914
        42.0004         22.5004
  23623810.8654   -4600600.94549  -3574262.82246                  23623808.3574
        40.7504         21.5004
  23410283.9984   -3621891.30549  -2814002.99946                  23410280.8894
        40.5004         23.7504
  23496244.2014     186448.34049    139109.72646                  23496242.6394
        41.5004         22.7504
  20723191.4984   -4400293.83649  -3406185.20247                  20723188.6314
        50.2504         38.0004
  20625842.7014   -3376902.67649  -2615277.59247                  20625839.5024
        50.5004         38.2504
  21187780.7794   -3193376.61349  -2472638.53047                  21187779.3934
        47.5004         33.5004
  21939512.9434   -1982915.66849  -1536768.54847                  21939511.5064
        46.0004         31.7504
  23472606.8504    1436596.16849   1105009.11946                  23472606.2294
        43.2504         22.2504
  23058551.2094   -5400241.22349  -4194394.15047                  23058547.4864
        43.7504         27.0004
 04  7  7 14 10  9.9980000  0 11G 6G10G15G16G17G18G21G26G29G30G22
  19786643.5144   -1573725.41049  -1221574.06348                  19786641.6194
        50.5004         39.7504
  23930357.4284    1654648.56349   1274017.60046                  23930355.5494
        41.2504         22.2504
  23615285.3264   -4645403.82049  -3609174.16146                  23615282.8344
        40.7504         21.7504
  23404067.0764   -3654562.12149  -2839460.81546                  23404063.8574
        41.0004         25.5004
  23496535.5144     187980.64549    140303.75646                  23496535.1624
        41.0004         22.0004
  20715734.9124   -4439481.03949  -3436720.67347                  20715731.7014
        50.7504         38.0004
  20619910.9364   -3408073.02749  -2639566.16947                  20619907.9674
        50.7504         38.0004
  21182716.9754   -3219984.45749  -2493371.90247                  21182716.0924
        47.2504         32.5004
  21936523.6004   -1998624.16449  -1549008.94047                  21936522.6274
        46.2504         31.0004
  23475048.3974    1449428.51649   1115008.30846                  23475047.6004
        42.5004         22.5004
  23048754.4204   -5451727.07049  -4234513.00747                  23048750.1784
        43.7504         27.2504
 04  7  7 14 10 19.9980000  0 11G 6G10G15G16G17G18G21G26G29G30G22
  19784331.7874   -1585874.63749  -1231041.00648                  19784329.5454
        51.0004         40.2504
  23933202.5764    1669600.80149   1285668.73146                  23933200.5924
        40.7504         21.5004
  23606758.8654   -4690209.43749  -3644087.65746                  23606756.6824
        41.0004         21.0004
  23397859.5684   -3687183.00049  -2864879.67646                  23397856.7914
        41.5004         25.2504
  23496826.3344     189513.72349    141498.32246                  23496826.6474
        40.2504         22.2504
  20708285.0684   -4478629.27749  -3467225.80647                  20708282.1544
        50.7504         38.0004
  20613981.5684   -3439233.46949  -2663847.04347                  20613978.2794
        51.0004         38.2504
  21177666.4594   -3246527.80549  -2514055.02047                  21177665.2094
        47.2504         32.5004
  21933545.4904   -2014276.93049  -1561205.90447                  21933544.4434
        45.7504         30.7504
  23477489.2094    1462251.24649   1125000.05646                  23477487.8034
        43.0004         22.7504
  23038960.4594   -5503193.44149  -4274616.67747                  23038956.3974
        43.5004         27.5004
 04  7  7 14 10 29.9980000  0 11G 6G10G15G16G17G18G21G26G29G30G22
  19782028.6934   -1597975.55549  -1240470.26948                  19782026.9514
        50.0004         39.5004
  23936047.3734    1684548.17649   1297316.05646                  23936045.1474
        40.7504         21.7504
  23598231.9594   -4735018.16449  -3679003.48746                  23598229.5924
        40.5004         20.0004
  23391661.0764   -3719754.27049  -2890259.88346                  23391658.9434
        40.0004         23.5004
  23497119.5684     191047.19149    142693.18146                  23497119.2954
        39.7504         21.5004
  20700843.1234   -4517738.95749  -3497700.84547                  20700839.8974
        50.2504         37.5004
  20608053.6154   -3470384.22349  -2688120.32847                  20608050.4674
        50.0004         37.7504
  21172627.8734   -3273006.87549  -2534688.03847                  21172626.0104
        47.0004         32.2504
  21930577.2014   -2029874.28949  -1573359.65547                  21930575.8114
        45.2504         29.7504
  23479927.0534    1475063.87149   1134983.95846                  23479926.0334
        42.5004         22.2504
  23029170.6864   -5554640.52349  -4314705.27947                  23029166.5454
        43.0004         26.7504
 04  7  7 14 10 39.9980000  0 11G 6G10G15G16G17G18G21G26G29G30G22
  19779736.0684   -1610026.39149  -1249860.57248                  19779733.8654
        50.7504         40.0004
  23938890.3504    1699492.34449   1308960.77946                  23938888.8974
        40.7504         21.5004
  23589704.6234   -4779828.07049  -3713920.36046                  23589703.1154
        40.7504         21.7504
  23385472.7954   -3752274.03549  -2915599.96946                  23385470.1864
        41.0004         24.7504
  23497411.3814     192582.96949    143889.78546                  23497411.4044
        41.0004         21.2504
  20693408.2404   -4556808.14549  -3528144.40847                  20693405.4514
        50.7504         38.5004
  20602128.0764   -3501523.46149  -2712384.71347                  20602124.5644
        50.0004         38.5004
  21167601.3974   -3299419.72349  -2555269.51747                  21167600.3264
        48.0004         33.5004
  21927619.8504   -2045414.45349  -1585468.92347                  21927618.7794
        46.2504         31.2504
  23482363.4514    1487868.11349   1144961.21746                  23482362.6004
        43.0004         22.5004
  23019384.1544   -5606066.52349  -4354777.53247                  23019379.8694
        42.0004         27.5004
 04  7  7 14 10 49.9980000  0 11G 6G10G15G16G17G18G21G26G29G30G22
  19777451.8264   -1622029.72349  -1259213.80648                  19777449.9824
        51.5004         39.7504
  23941733.1154    1714430.71149   1320601.07146                  23941731.9944
        42.0004         22.0004
  23581176.8974   -4824641.78949  -3748840.11146                  23581175.5224
        40.2504         21.7504
  23379293.5534   -3784744.85549  -2940901.86946                  23379291.4514
        40.5004         24.2504
  23497703.9904     194118.38349    145086.23646                  23497703.3184
        41.0004         21.5004
  20685980.6234   -4595839.37149  -3558558.33747                  20685978.1394
        50.7504         38.0004
  20596203.9984   -3532653.75849  -2736642.07647                  20596200.9714
        51.5004         37.7504
  21162586.8654   -3325768.93749  -2575801.35647                  21162586.1154
        47.5004         33.0004
  21924673.5684   -2060899.87949  -1597535.47147                  21924671.7914
        45.7504         30.5004
  23484798.3734    1500661.28149   1154929.93546                  23484797.1824
        42.5004         22.2504
  23009601.5374   -5657473.85949  -4394835.16646                  23009597.4674
        43.0004         25.5004
 04  7  7 14 10 59.9980000  0 11G 6G10G15G16G17G18G21G26G29G30G22
  19775176.7254   -1633984.14549  -1268528.96548                  19775174.9204
        50.5004         41.0004
  23944575.5294    1729364.64149   1332237.86646                  23944574.1194
        41.5004         21.7504
  23572648.9204   -4869457.83249  -3783761.75346                  23572647.2644
        40.7504         21.0004
  23373124.5764   -3817165.18749  -2966164.53047                  23373122.1474
        42.0004         26.0004
  23497995.7094     195654.87549    146283.46746                  23497995.9244
        38.5004         21.5004
  20678560.8184   -4634831.25849  -3588941.64347                  20678558.0614
        51.0004         39.0004
  20590282.3344   -3563773.56249  -2760891.29747                  20590278.8934
        50.5004         38.7504
  21157585.5454   -3352053.00849  -2596282.46247                  21157584.5064
        47.7504         34.0004
  21921737.0924   -2076329.21949  -1609558.34347                  21921735.7754
        45.5004         31.7504
  23487230.6624    1513444.78949   1164891.01846                  23487229.8574
        42.2504         22.2504
  22999822.8114   -5708861.06649  -4434877.15847                  22999818.6934
        42.5004         27.0004
 04  7  7 14 11  9.9980000  0 11G 6G10G15G16G17G18G21G26G29G30G22
  19772911.5924   -1645888.85249  -1277805.37348                  19772909.4904
        50.0004         40.5004
  23947416.3504    1744294.69149   1343871.64546                  23947414.8224
        41.5004         22.0004
  23564120.1154   -4914275.57449  -3818684.66146                  23564119.4204
        39.7504         21.0004
  23366965.3974   -3849534.46949  -2991387.33447                  23366962.5184
        41.5004         26.0004
  23498288.6704     197193.24249    147482.12246                  23498288.2644
        37.7504         20.2504
  20671148.4904   -4673783.21549  -3619293.82947                  20671145.5804
        51.0004         38.5004
  20584362.4824   -3594882.32449  -2785131.89547                  20584358.7914
        50.2504         38.5004
  21152596.3264   -3378271.31649  -2616712.30947                  21152595.6784
        47.5004         33.2504
  21918811.9674   -2091701.80149  -1621537.00247                  21918810.5224
        45.7504         31.5004
  23489661.3974    1526219.15649   1174845.11146                  23489660.0184
        42.2504         21.5004
  22990048.1004   -5760227.49649  -4474902.96647                  22990044.5724
        41.5004         27.7504
 04  7  7 14 11 19.9980000  0 11G 6G10G15G16G17G18G21G26G29G30G22
  19770655.0294   -1657744.60249  -1287043.61848                  19770653.5534
        50.2504         40.0004
  23950256.3574    1759220.12149   1355501.83046                  23950255.1664
        42.0004         22.7504
  23555591.3734   -4959095.67649  -3853609.36046                  23555590.2324
        41.0004         20.7504
  23360814.7324   -3881853.22349  -3016570.77846                  23360812.6784
        42.5004         25.2504
  23498581.0374     198732.67249    148681.67746                  23498581.2484
        38.2504         20.0004
  20663743.4754   -4712695.71949  -3649615.25447                  20663740.8974
        50.7504         38.0004
  20578444.4824   -3625980.67649  -2809364.37147                  20578441.2014
        50.5004         38.5004
  21147620.0844   -3404424.35549  -2637091.30347                  21147618.6354
        48.2504         33.5004
  21915897.0064   -2107018.26649  -1633471.88947                  21915895.8344
        47.0004         31.0004
  23492090.1934    1538983.62149   1184791.44346                  23492089.0644
        42.0004         22.5004
  22980277.2874   -5811573.71949  -4514912.99647                  22980273.7914
        42.5004         28.0004
 04  7  7 14 11 29.9980000  0 11G 6G10G15G16G17G18G21G26G29G30G22
  19768408.9514   -1669550.10549  -1296242.72848                  19768406.5964
        49.7504         39.7504
  23953096.3264    1774142.09849   1367129.33446                  23953094.8894
        42.0004         22.0004
  23547062.0294   -5003916.85949  -3888534.95846                  23547060.8974
        40.5004         21.0004
  23354674.8814   -3914120.21949  -3041713.91746                  23354671.8734
        40.7504         25.5004
  23498875.5614     200274.50449    149883.06146                  23498874.5454
        39.0004         19.7504
  20656346.5844   -4751567.44149  -3679904.90947                  20656343.8614
        51.0004         38.0004
  20572529.0924   -3657067.39149  -2833587.80047                  20572525.8614
        50.0004         38.0004
  21142655.4434   -3430510.87549  -2657418.46547                  21142654.4594
        48.0004         33.5004
  21912993.6704   -2122277.38749  -1645362.12547                  21912991.8734
        45.5004         31.2504
  23494517.9284    1551739.44949   1194731.00546                  23494516.0494
        40.7504         21.0004
  22970510.2724   -5862898.41849  -4554906.25547                  22970507.3224
        41.7504         27.0004
 04  7  7 14 11 39.9980000  0 11G 6G10G15G16G17G18G21G26G29G30G22
  19766171.6154   -1681307.55949  -1305404.36347                  19766169.4674
        49.2504         39.0004
  23955934.5764    1789058.46549   1378752.53446                  23955933.4514
        42.5004         22.5004
  23538532.7404   -5048741.22749  -3923462.99846                  23538531.0574
        39.5004         21.2504
  23348543.7874   -3946337.44549  -3066818.23446                  23348541.4754
        41.7504         24.7504
  23499168.8184     201816.70749    151084.71446                  23499168.5454
        38.7504         19.2504
  20648956.8574   -4790400.48049  -3710164.40847                  20648954.2014
        50.5004         37.2504
  20566615.2484   -3688144.45349  -2857803.67047                  20566611.7954
        49.2504         37.7504
  21137703.8344   -3456532.86349  -2677695.33247                  21137702.6744
        47.7504         33.5004
  21910100.1934   -2137481.31249  -1657209.33147                  21910098.7754
        45.5004         31.0004
  23496943.0844    1564484.26249   1204662.09846                  23496941.7954
        41.2504         19.7504
  22960747.4364   -5914203.56649  -4594884.26647                  22960744.2604
        42.0004         27.0004
 04  7  7 14 11 49.9980000  0 11G 6G10G15G16G17G18G21G26G29G30G22
  19763943.3734   -1693017.03949  -1314528.65848                  19763941.1744
        49.7504         40.5004
  23958772.0294    1803968.94149   1390370.97046                  23958770.6974
        42.5004         24.5004
  23530002.3184   -5093569.05549  -3958393.86646                  23530000.3774
        40.7504         21.5004
  23342422.5764   -3978505.21949  -3091884.08746                  23342420.1784
        42.0004         24.2504
  23499461.6624     203359.08149    152286.59546                  23499462.3144
        39.0004         19.2504
  20641574.3814   -4829195.10549  -3740394.00747                  20641572.0804
        50.7504         38.5004
  20560703.3734   -3719212.09849  -2882012.24847                  20560700.0764
        49.5004         39.2504
  21132764.5454   -3482490.61749  -2697922.15647                  21132763.4284
        48.2504         34.5004
  21907217.4434   -2152630.23049  -1669013.69647                  21907216.2324
        46.0004         31.2504
  23499365.0844    1577217.82849   1214584.25346                  23499365.1194
        40.5004         20.7504
  22950987.5454   -5965489.48849  -4634847.35547                  22950984.5924
        41.2504         28.0004
 04  7  7 14 11 59.9980000  0 11G 6G10G15G16G17G18G21G26G29G30G22
  19761724.0374   -1704677.90249  -1323615.04548                  19761721.9864
        49.5004         40.2504
  23961608.6544    1818874.14849   1401985.43746                  23961607.0064
        41.5004         23.0004
  23521470.7794   -5138399.68049  -3993326.81046                  23521469.3734
        40.7504         21.5004
  23336310.8734   -4010622.81249  -3116910.78646                  23336308.1394
        42.7504         25.0004
  23499756.0844     204902.02349    153488.85846                  23499755.5764
        38.2504         19.2504
  20634199.6394   -4867950.63749  -3770593.10347                  20634197.0294
        50.5004         38.5004
  20554793.3894   -3750269.74249  -2906213.01547                  20554790.3934
        49.5004         38.2504
  21127836.9364   -3508383.32449  -2718098.29547                  21127836.3074
        48.0004         33.5004
  21904345.5144   -2167723.48049  -1680774.66447                  21904343.9474
        46.2504         30.2504
  23501786.9284    1589940.67249   1224498.14946                  23501785.9634
        41.2504         20.2504
  22941232.6074   -6016755.41849  -4674794.80347                  22941229.1974
        41.5004         26.7504
 04  7  7 14 12  9.9980000  0 11G 6G10G15G16G17G18G21G26G29G30G22
  19759514.5924   -1716289.79349  -1332663.28448                  19759512.6044
        48.7504         41.0004
  23964444.1784    1833774.43049   1413595.97646                  23964442.2724
        41.2504         24.0004
  23512939.5454   -5183232.61349  -4028261.56446                  23512938.3734
        41.2504         21.2504
  23330208.7954   -4042689.69949  -3141897.93646                  23330206.0254
        41.7504         25.0004
  23500049.7794     206446.27049    154692.07846                  23500049.1154
        37.5004         19.0004
  20626832.0924   -4906666.53949  -3800761.35747                  20626829.6154
        50.5004         39.2504
  20548885.1234   -3781316.87149  -2930405.60047                  20548881.7874
        48.7504         39.0004
  21122922.0374   -3534210.59049  -2738223.43047                  21122921.0644
        48.0004         34.7504
  21901483.9284   -2182760.69949  -1692492.00147                  21901482.7994
        45.5004         32.2504
  23504206.8654    1602653.14849   1234403.90546                  23504205.4004
        42.5004         21.2504
  22931480.7094   -6068000.83649  -4714726.32147                  22931477.1934
        40.7504         27.5004
 04  7  7 14 12 19.9980000  0 11G 6G10G15G16G17G18G21G26G29G30G22
  19757314.8184   -1727849.72349  -1341671.04948                  19757312.6704
        49.5004         41.0004
  23967278.3344    1848672.49649   1425204.86246                  23967277.3384
        40.7504         22.0004
  23504408.3264   -5228065.07449  -4063195.91246                  23504406.4044
        41.2504         21.5004
  23324117.2564   -4074703.03949  -3166843.45346                  23324114.0764
        39.7504         22.7504
  23500343.3574     207994.71549    155898.61746                  23500344.2364
        37.5004         19.5004
  20619472.9514   -4945340.00449  -3830896.53347                  20619470.2684
        50.2504         39.2504
  20542979.7094   -3812350.66449  -2954587.78047                  20542976.4044
        48.7504         39.0004
  21118020.4674   -3559969.43449  -2758295.27247                  21118019.2564
        48.0004         34.7504
  21898633.9594   -2197738.96949  -1704163.39147                  21898632.5224
        46.5004         31.7504
  23506623.9284    1615358.02749   1244303.78846                  23506622.9474
        42.5004         21.5004
  22921733.3814   -6119222.85949  -4754639.55347                  22921730.2094
        40.0004         26.2504
 04  7  7 14 12 29.9980000  0 11G 6G10G15G16G17G18G21G26G29G30G22
  19755124.6154   -1739359.61749  -1350639.79648                  19755122.7914
        49.0004         40.2504
  23970113.1004    1863566.50449   1436810.62346                  23970112.1314
        40.0004         21.5004
  23495876.4044   -5272898.83649  -4098131.33446                  23495874.8074
        41.0004         21.7504
  23318034.3894   -4106664.61749  -3191748.61046                  23318031.7094
        41.2504         22.5004
  23500639.8504     209545.34849    157106.85446                  23500639.2134
        37.5004         19.2504
  20612121.4044   -4983972.79349  -3861000.00847                  20612118.5414
        50.0004         38.0004
  20537076.3734   -3843372.91449  -2978760.95347                  20537073.4004
        48.7504         38.7504
  21113130.9514   -3585661.55549  -2778315.09547                  21113130.3574
        47.7504         34.0004
  21895794.5294   -2212660.05549  -1715790.20347                  21895793.1584
        46.5004         31.0004
  23509040.0534    1628053.40249   1254196.26646                  23509039.1624
        42.5004         22.0004
  22911990.3814   -6170423.26249  -4794535.99647                  22911987.5924
        40.7504         26.5004
 04  7  7 14 12 39.9980000  0 11G 6G10G15G16G17G18G21G26G29G30G22
  19752943.6474   -1750819.67249  -1359569.71248                  19752941.8114
        48.0004         40.2504
  23972946.3814    1878456.16449   1448412.88346                  23972945.6624
        38.5004         20.0004
  23487344.7954   -5317734.16849  -4133067.95846                  23487342.9164
        40.7504         22.0004
  23311962.5454   -4138574.60249  -3216613.50946                  23311959.1744
        41.0004         23.7504
  23500934.7874     211097.94548    158316.69546                  23500934.8814
        35.7504         18.5004
  20604777.6314   -5022565.15649  -3891071.98247                  20604774.7364
        50.2504         38.0004
  20531175.2484   -3874383.84449  -3002925.32447                  20531171.8854
        47.5004         38.7504
  21108255.1074   -3611287.24249  -2798283.16447                  21108254.3854
        47.7504         33.7504
  21892965.4284   -2227524.30149  -1727372.72047                  21892964.7094
        46.0004         31.7504
  23511453.7174    1640738.86349   1264080.99346                  23511452.9904
        42.0004         22.5004
  22902251.6474   -6221602.12949  -4834415.62747                  22902247.7404
        42.2504         26.0004
 04  7  7 14 12 49.9980000  0 11G 6G10G15G16G17G18G21G26G29G30G22
  19750771.9904   -1762231.27749  -1368461.88048                  19750770.3184
        48.5004         39.7504
  23975778.2094    1893340.01249   1460010.63346                  23975777.3894
        37.0004         20.2504
  23478811.8654   -5362572.40649  -4168006.84646                  23478810.7134
        41.0004         22.2504
  23305899.3894   -4170434.38749  -3241439.33246                  23305896.5024
        42.0004         24.0004
  23501230.1474     212651.25449    159527.05846                  23501230.7794
        36.0004         18.5004
  20597441.1704   -5061118.44149  -3921113.50447                  20597438.4084
        50.5004         38.0004
  20525275.8114   -3905384.84049  -3027081.95147                  20525273.0184
        48.0004         38.0004
  21103391.3184   -3636847.83249  -2818200.51347                  21103389.7524
        48.0004         33.0004
  21890147.2324   -2242333.01249  -1738911.97347                  21890146.4944
        45.2504         31.5004
  23513865.9984    1653413.02749   1273956.94046                  23513865.2914
        42.5004         22.2504
  22892516.2404   -6272760.83249  -4874279.54447                  22892512.8184
        40.5004         26.2504
 04  7  7 14 12 59.9980000  0 11G 6G10G15G16G17G18G21G26G29G30G22
  19748609.8654   -1773594.27349  -1377316.17648                  19748607.8974
        48.0004         40.7504
  23978609.5224    1908218.08249   1471603.95346                  23978609.2134
        38.2504         19.2504
  23470279.0144   -5407413.43449  -4202947.89146                  23470277.6544
        39.7504         22.7504
  23299846.7874   -4202243.81649  -3266225.90346                  23299843.5454
        39.7504         24.5004
  23501525.8344     214205.31649    160737.95346                  23501527.0294
        36.0004         19.2504
  20590111.8974   -5099632.55149  -3951124.50047                  20590109.1974
        51.2504         38.5004
  20519378.5924   -3936375.75449  -3051230.71047                  20519375.2604
        48.2504         39.0004
  21098539.2174   -3662343.14849  -2838066.99647                  21098538.2094
        47.7504         34.0004
  21887340.3424   -2257086.17649  -1750407.94947                  21887339.3544
        45.5004         32.0004
  23516275.9824    1666075.84449   1283824.04046                  23516274.5964
        43.0004         22.7504
  22882784.8734   -6323899.23049  -4914127.63847                  22882780.6474
        40.5004         27.2504
 04  7  7 14 13  9.9980000  0 11G 6G10G15G16G17G18G21G26G29G30G22
  19746456.7874   -1784908.02349  -1386132.08348                  19746455.2014
        48.0004         39.7504
  23981439.3894    1923091.04749   1483193.17646                  23981439.2404
        37.7504         19.7504
  23461745.8894   -5452256.65649  -4237890.65546                  23461744.1154
        40.5004         22.0004
  23293802.4124   -4234002.22349  -3290972.69946                  23293799.8694
        41.5004         23.2504
  23501822.0614     215760.82048    161949.96046                  23501823.0644
        35.5004         19.0004
  20582790.5764   -5138106.70349  -3981104.34947                  20582788.3344
        50.7504         38.0004
  20513482.9284   -3967355.87549  -3075371.06747                  20513479.9554
        48.7504         38.2504
  21093700.3654   -3687772.47749  -2857882.05247                  21093699.2644
        47.5004         33.2504
  21884543.4514   -2271783.02749  -1761860.05947                  21884542.2254
        45.7504         31.5004
  23518683.3734    1678727.98049   1293682.87546                  23518682.2444
        43.0004         22.5004
  22873057.6314   -6375016.55149  -4953959.31147                  22873053.7054
        40.5004         26.5004
 04  7  7 14 13 19.9980000  0 11G 6G10G15G16G17G18G21G26G29G30G22
  19744313.3184   -1796172.82849  -1394909.87148                  19744311.4394
        49.7504         40.2504
  23984268.9754    1937958.41849   1494778.12246                  23984268.5644
        38.2504         19.7504
  23453212.1704   -5497102.30949  -4272835.33546                  23453210.5614
        40.5004         21.7504
  23287769.2174   -4265709.77749  -3315679.91446                  23287766.2094
        42.0004         25.2504
  23502118.1234     217317.53949    163162.98946                  23502118.9594
        38.2504         19.2504
  20575476.9204   -5176541.11349  -4011053.24547                  20575474.0534
        50.5004         38.5004
  20507589.9284   -3998325.50849  -3099503.25547                  20507586.6894
        49.7504         39.0004
  21088874.2254   -3713136.00449  -2877645.85247                  21088872.9514
        48.7504         34.0004
  21881757.6004   -2286423.84049  -1773268.46447                  21881756.1624
        46.5004         32.5004
  23521089.0224    1691368.98049   1303533.01646                  23521088.0064
        44.0004         22.5004
  22863334.2954   -6426113.06649  -4993774.78147                  22863330.4364
        40.2504         26.7504
 04  7  7 14 13 29.9980000  0 11G 6G10G15G16G17G18G21G26G29G30G22
  19742179.6624   -1807386.81249  -1403648.05548                  19742177.4474
        49.2504         40.5004
  23987097.3184    1952821.99649   1506360.07646                  23987097.3034
        38.2504         21.0004
  23444677.9204   -5541948.60549  -4307780.49046                  23444676.6434
        40.0004         22.5004
  23281745.9674   -4297364.74649  -3340346.10746                  23281742.4824
        41.0004         24.5004
  23502415.3814     218877.24649    164378.35646                  23502415.4714
        36.7504         19.5004
  20568170.9754   -5214934.05549  -4040969.83147                  20568167.6934
        50.2504         38.5004
  20501698.9124   -4029282.86749  -3123625.87747                  20501695.4284
        48.7504         39.2504
  21084060.0614   -3738431.96549  -2897356.99247                  21084059.1434
        48.2504         34.2504
  21878982.4434   -2301006.92249  -1784631.91647                  21878981.2484
        45.7504         32.2504
  23523492.4434    1704000.51649   1313375.71746                  23523491.2324
        43.2504         22.7504
  22853614.9984   -6477186.89149  -5033572.56347                  22853611.6274
        40.0004         26.5004
 04  7  7 14 13 39.9980000  0 11G 6G10G15G16G17G18G21G26G29G30G22
  19740055.1704   -1818551.35249  -1412347.70748                  19740052.8304
        49.7504         40.5004
  23989925.4984    1967680.38349   1517938.07246                  23989924.3384
        38.2504         21.2504
  23436143.8264   -5586796.79349  -4342727.14546                  23436142.3224
        40.2504         22.5004
  23275731.7564   -4328968.35249  -3364972.34746                  23275728.6394
        42.0004         24.5004
  23502711.9594     220438.61749    165594.96446                  23502712.1584
        37.2504         18.5004
  20560872.5844   -5253286.79349  -4070855.07247                  20560869.8344
        51.5004         38.5004
  20495809.9514   -4060229.28549  -3147739.97047                  20495806.8144
        49.0004         38.5004
  21079259.1474   -3763661.52749  -2917016.38947                  21079257.7134
        48.0004         34.0004
  21876218.6624   -2315533.62149  -1795951.42547                  21876217.4244
        46.0004         31.7504
  23525893.6704    1716621.19549   1323210.02346                  23525893.1074
        43.0004         21.7504
  22843900.2014   -6528239.27749  -5073353.64647                  22843896.4794
        40.2504         26.7504
 04  7  7 14 13 49.9980000  0 11G 6G10G15G16G17G18G21G26G29G30G22
  19737939.7794   -1829665.55949  -1421008.11848                  19737938.0064
        50.0004         39.5004
  23992751.1704    1982534.33249   1529512.53546                  23992751.1474
        39.0004         21.0004
  23427609.2484   -5631646.08649  -4377674.62046                  23427607.7684
        40.2504         22.7504
  23269728.2174   -4360519.71549  -3389557.81846                  23269724.7444
        41.7504         25.5004
  23503010.4044     222002.70749    166813.68846                  23503009.6394
        36.2504         19.0004
  20553582.1394   -5291598.42649  -4100708.30147                  20553579.1474
        50.0004         38.2504
  20489923.0374   -4091163.75049  -3171844.75047                  20489920.0064
        49.5004         38.5004
  21074471.2874   -3788823.76649  -2936623.32447                  21074469.8074
        48.2504         34.0004
  21873464.9434   -2330002.99649  -1807226.27447                  21873463.6234
        45.7504         31.7504
  23528293.9514    1729231.80549   1333036.43246                  23528293.0104
        42.2504         21.0004
  22834189.5294   -6579269.35249  -5113117.33947                  22834185.6434
        40.0004         27.7504
 04  7  7 14 13 59.9980000  0 11G 6G10G15G16G17G18G21G26G29G30G22
  19735834.7404   -1840729.30949  -1429629.23948                  19735832.8304
        49.7504         40.0004
  23995577.3654    1997384.03149   1541083.75246                  23995576.7564
        39.0004         20.7504
  23419074.3894   -5676496.35249  -4412622.87946                  23419073.1154
        40.2504         22.0004
  23263733.5374   -4392018.76649  -3414102.51946                  23263730.5374
        42.2504         25.5004
  23503308.3654     223569.29349    168034.37646                  23503308.5064
        39.2504         19.0004
  20546299.2564   -5329868.84849  -4130529.40147                  20546296.5614
        51.0004         38.2504
  20484038.8344   -4122086.36749  -3195940.30347                  20484035.8734
        50.0004         38.5004
  21069695.4594   -3813918.60249  -2956177.74447                  21069694.3544
        47.5004         33.7504
  21870722.2954   -2344414.95749  -1818456.36247                  21870721.0964
        46.2504         31.5004
  23530691.2094    1741832.36749   1342855.04946                  23530690.9364
        42.0004         22.0004
  22824483.2324   -6630276.96549  -5152863.53647                  22824479.3974
        41.7504         27.2504
 04  7  7 14 14  9.9980000  0 11G 6G10G15G16G17G18G21G26G29G30G22
  19733738.3894   -1851744.51249  -1438212.52348                  19733736.4634
        49.5004         39.7504
  23998402.2174    2012227.32449   1552649.89746                  23998401.8114
        39.2504         20.2504
  23410539.2644   -5721349.50849  -4447573.40946                  23410538.0104
        40.7504         22.2504
  23257749.3114   -4423467.28149  -3438607.88747                  23257746.2294
        41.5004         25.7504
  23503606.7564     225136.73049    169255.68646                  23503606.5924
        37.7504         20.2504
  20539024.3814   -5368100.07449  -4160319.98147                  20539021.8934
        50.5004         38.2504
  20478156.5294   -4152999.12149  -3220028.16247                  20478153.2564
        50.0004         39.2504
  21064932.6234   -3838947.92249  -2975681.11447                  21064931.2254
        47.7504         34.2504
  21867990.7094   -2358771.50049  -1829643.29847                  21867989.1194
        47.0004         33.0004
  23533086.7874    1754420.76249   1352664.13446                  23533085.7564
        41.5004         22.2504
  22814780.7324   -6681263.96149  -5192593.67347                  22814777.0294
        40.7504         28.5004
 04  7  7 14 14 19.9980000  0 11G 6G10G15G16G17G18G21G26G29G30G22
  19731651.7094   -1862710.69949  -1446757.61648                  19731649.8114
        50.5004         39.7504
  24001225.8504    2027064.68449   1564211.46746                  24001225.1394
        38.5004         19.7504
  23402003.3114   -5766205.11749  -4482525.78546                  23402002.6704
        40.0004         22.7504
  23251774.6544   -4454864.81249  -3463073.50846                  23251771.3184
        41.7504         25.2504
  23503905.7954     226705.41449    170478.03046                  23503905.4554
        40.0004         21.2504
  20531756.8894   -5406291.48049  -4190079.52847                  20531753.8614
        50.5004         38.2504
  20472275.9594   -4183901.24249  -3244107.74947                  20472272.6044
        50.0004         39.0004
  21060182.2954   -3863911.24649  -2995133.05047                  21060180.8934
        48.0004         33.5004
  21865269.1784   -2373072.09449  -1840786.61647                  21865268.1474
        46.5004         33.0004
  23535479.9824    1766997.45349   1362464.15946                  23535479.3544
        41.0004         22.2504
  22805082.3894   -6732229.75449  -5232307.27647                  22805078.8144
        41.5004         29.2504
 04  7  7 14 14 29.9980000  0 11G 6G10G15G16G17G18G21G26G29G30G22
  19729574.1074   -1873627.44149  -1455264.16348                  19729572.6704
        49.7504         40.5004
  24004048.4674    2041896.46549   1575768.67746                  24004047.3144
        39.5004         19.7504
  23393467.5924   -5811062.60549  -4517479.67746                  23393466.7524
        41.7504         22.5004
  23245809.9904   -4486210.79749  -3487498.96746                  23245807.0374
        40.2504         24.0004
  23504204.2564     228275.84449    171701.74346                  23504204.6934
        40.0004         21.5004
  20524497.1234   -5444442.61349  -4219807.67347                  20524494.1194
        51.0004         39.0004
  20466397.8114   -4214792.19549  -3268178.60847                  20466394.4554
        51.5004         39.2504
  21055445.0924   -3888807.93049  -3014533.06447                  21055443.4324
        47.5004         34.0004
  21862558.6314   -2387316.17649  -1851885.88947                  21862557.3424
        46.5004         32.5004
  23537871.2724    1779562.91049   1372255.38246                  23537870.1154
        40.5004         23.0004
  22795387.2564   -6783173.89149  -5272004.00847                  22795384.1784
        41.7504         27.7504
 04  7  7 14 14 39.9980000  0 11G 6G10G15G16G17G18G21G26G29G30G22
  19727506.4674   -1884492.61349  -1463730.55448                  19727504.8144
        50.2504         41.0004
  24006869.5064    2056724.69949   1587323.14346                  24006869.4714
        38.5004         19.5004
  23384931.7014   -5855920.06649  -4552433.60546                  23384929.9904
        40.5004         22.5004
  23239855.3184   -4517503.24649  -3511882.70447                  23239852.0614
        42.5004         25.7504
  23504504.6074     229850.15649    172928.42846                  23504504.0254
        40.5004         21.5004
  20517245.0224   -5482551.33649  -4249502.79248                  20517242.0614
        50.5004         39.7504
  20460521.6394   -4245670.01649  -3292239.27248                  20460518.2794
        50.5004         40.0004
  21050719.8734   -3913635.92649  -3033879.56047                  21050718.6544
        47.0004         34.0004
  21859858.9904   -2401501.80549  -1862939.65447                  21859858.2294
        46.2504         32.7504
  23540260.8264    1792118.90649   1382039.19946                  23540259.7754
        40.7504         22.2504
  22785697.5064   -6834094.22349  -5311682.18647                  22785694.8384
        42.0004         28.7504
 04  7  7 14 14 49.9980000  0 11G 6G10G15G16G17G18G21G26G29G30G22
  19725448.7724   -1895306.94149  -1472157.31548                  19725446.7364
        50.2504         40.2504
  24009690.8184    2071548.51249   1598874.13446                  24009690.6624
        39.5004         19.5004
  23376394.9514   -5900778.16049  -4587387.92646                  23376394.0884
        42.7504         23.5004
  23233910.1864   -4548742.89549  -3536225.30446                  23233907.3974
        42.0004         25.0004
  23504803.8654     231427.50049    174157.52246                  23504803.3694
        39.7504         21.2504
  20510000.9204   -5520618.45749  -4279165.47047                  20509998.1894
        51.2504         39.2504
  20454648.1234   -4276535.45749  -3316290.26448                  20454645.3114
        51.0004         39.7504
  21046008.3344   -3938396.02349  -3053173.15447                  21046007.0684
        47.0004         34.0004
  21857170.7954   -2415629.79749  -1873948.46847                  21857169.5144
        45.2504         32.7504
  23542648.5454    1804664.67649   1391815.12946                  23542647.6864
        41.5004         22.7504
  22776012.0144   -6884991.46549  -5351342.35547                  22776009.7054
        41.0004         28.5004
 04  7  7 14 14 59.9980000  0 11G 6G10G15G16G17G18G21G26G29G30G22
  19723400.4824   -1906071.38349  -1480545.18048                  19723398.7604
        50.0004         40.0004
  24012510.5454    2086366.94549   1610420.99846                  24012510.3264
        39.0004         19.0004
  23367859.2324   -5945637.80949  -4622343.46146                  23367857.4394
        41.2504         22.2504
  23227975.2484   -4579930.56649  -3560527.33546                  23227972.6004
        41.2504         24.5004
  23505104.5294     233006.95749    175388.23246                  23505104.1784
        38.2504         20.0004
  20502764.7954   -5558644.77349  -4308796.35647                  20502762.2054
        50.5004         38.7504
  20448776.7254   -4307389.38749  -3340332.28747                  20448773.8144
        50.0004         38.7504
  21041309.5924   -3963088.95749  -3072414.40447                  21041308.4514
        47.7504         33.7504
  21854492.7794   -2429700.98849  -1884913.02047                  21854491.9984
        45.7504         32.7504
  23545033.4674    1817199.26249   1401582.35046                  23545033.0964
        41.0004         22.0004
  22766331.6624   -6935866.39849  -5390985.15447                  22766328.5224
        43.0004         29.0004
 04  7  7 14 15  9.9980000  0 11G 6G10G15G16G17G18G21G26G29G30G22
  19721361.4824   -1916786.10949  -1488894.34148                  19721359.7014
        49.5004         40.5004
  24015329.1074    2101179.76649   1621963.42446                  24015329.0224
        39.5004         19.2504
  23359321.8574   -5990499.21549  -4657300.44246                  23359320.3144
        41.7504         23.0004
  23222050.5614   -4611066.44549  -3584789.09146                  23222047.4904
        40.5004         25.0004
  23505405.3184     234588.39549    176620.51146                  23505405.3614
        39.7504         20.2504
  20495536.3264   -5596630.57849  -4338395.70047                  20495533.9944
        50.5004         39.2504
  20442908.0294   -4338231.98849  -3364365.48647                  20442905.1504
        49.7504         38.7504
  21036623.5684   -3987714.95349  -3091603.48247                  21036622.1004
        48.2504         33.7504
  21851826.2014   -2443715.61349  -1895833.52547                  21851824.5144
        46.5004         32.7504
  23547416.7324    1829722.28549   1411340.50346                  23547416.2054
        40.2504         22.5004
  22756654.8734   -6986719.23449  -5430610.76047                  22756651.3894
        41.7504         29.5004
 04  7  7 14 15 19.9980000  0 11G 6G10G15G16G17G18G21G26G29G30G22
  19719332.2174   -1927450.41449  -1497204.16748                  19719330.6194
        48.7504         39.5004
  24018146.8894    2115987.71549   1633502.06546                  24018146.3544
        38.7504         19.0004
  23350784.9364   -6035361.57849  -4692258.07946                  23350783.3854
        41.2504         24.5004
  23216135.7254   -4642149.65649  -3609009.78146                  23216132.1114
        41.0004         22.2504
  23505707.5684     236172.63749    177854.98746                  23505706.4244
        39.5004         19.7504
  20488316.2254   -5634574.94949  -4367962.71547                  20488313.0844
        50.0004         38.0004
  20437040.8974   -4369062.53949  -3388389.28147                  20437037.9674
        49.2504         37.7504
  21031950.0614   -4012273.04749  -3110739.63947                  21031948.8614
        47.5004         33.2504
  21849169.9984   -2457672.84049  -1906709.26647                  21849169.2724
        45.5004         31.7504
  23549797.5064    1842234.64149   1421090.39046                  23549797.2564
        41.2504         22.0004
  22746981.8654   -7037549.15249  -5470218.45847                  22746978.4244
        42.0004         29.0004
 04  7  7 14 15 29.9980000  0 11G 6G10G15G16G17G18G21G26G29G30G22
  19717312.3344   -1938064.17249  -1505474.66648                  19717310.5614
        49.2504         40.2504
  24020964.8034    2130790.68049   1645036.82746                  24020963.2954
        40.5004         19.2504
  23342247.6394   -6080224.97349  -4727216.60146                  23342246.4674
        41.0004         23.5004
  23210230.3734   -4673180.21949  -3633189.42346                  23210227.4554
        40.2504         24.2504
  23506009.2404     237759.68049    179091.60346                  23506008.8144
        38.5004         20.5004
  20481103.0614   -5672477.84849  -4397497.47147                  20481100.2214
        50.0004         39.2504
  20431176.5224   -4399881.05949  -3412403.74347                  20431173.2524
        49.5004         38.7504
  21027289.7794   -4036763.30549  -3129822.99347                  21027288.6154
        48.0004         34.0004
  21846525.0764   -2471572.79349  -1917540.42547                  21846523.9794
        47.7504         32.5004
  23552177.3814    1854735.93849   1430831.66146                  23552176.4794
        40.5004         22.0004
  22737313.1784   -7088356.00049  -5509808.23247                  22737309.9554
        41.0004         28.2504
 04  7  7 14 15 39.9980000  0 11G 6G10G15G16G17G18G21G26G29G30G22
  19715302.1624   -1948628.93049  -1513706.93248                  19715300.8034
        48.7504         40.2504
  24023779.8264    2145587.21149   1656566.58046                  24023779.2604
        40.7504         19.5004
  23333710.1934   -6125090.79749  -4762176.95946                  23333708.7724
        42.0004         23.2504
  23204335.2954   -4704159.55149  -3657329.15946                  23204332.3264
        40.5004         22.7504
  23506312.1544     239348.10949    180329.32946                  23506311.3734
        40.2504         21.0004
  20473898.1784   -5710340.76249  -4427001.02547                  20473895.3574
        50.5004         39.0004
  20425313.7094   -4430688.89849  -3436409.84247                  20425310.6504
        48.5004         38.2504
  21022642.3814   -4061187.14549  -3148854.54447                  21022640.8544
        48.0004         33.7504
  21843891.2484   -2485416.73449  -1928327.88847                  21843889.4794
        47.2504         32.0004
  23554552.9124    1867224.74249   1440563.20846                  23554552.6154
        40.2504         22.5004
  22727649.4204   -7139141.32049  -5549381.18347                  22727645.8344
        41.0004         28.7504
 04  7  7 14 15 49.9980000  0 11G 6G10G15G16G17G18G21G26G29G30G22
  19713301.3654   -1959142.22349  -1521899.13648                  19713299.8074
        49.5004         41.2504
  24026594.7564    2160379.57849   1668093.08446                  24026594.4904
        40.0004         21.2504
  23325172.8184   -6169956.61349  -4797137.33347                  23325171.2644
        42.0004         26.5004
  23198450.0764   -4735085.23049  -3681427.12946                  23198447.5844
        40.0004         24.0004
  23506614.6934     240940.33249    181569.94446                  23506614.5064
        39.5004         22.0004
  20466701.3574   -5748161.31649  -4456471.60547                  20466698.2134
        51.0004         39.0004
  20419453.5844   -4461483.68749  -3460405.79347                  20419450.6474
        48.2504         38.7504
  21018007.9044   -4085542.13749  -3167832.46547                  21018006.2604
        48.5004         34.5004
  21841267.7644   -2499202.46149  -1939070.03947                  21841265.7364
        48.0004         33.2504
  23556927.5224    1879703.49249   1450286.81046                  23556927.4124
        40.5004         23.0004
  22717989.2254   -7189902.59849  -5588935.44547                  22717986.1194
        41.5004         28.0004
 04  7  7 14 15 59.9980000  0 11G 6G10G15G16G17G18G21G26G29G30G22
  19711310.5924   -1969604.09449  -1530051.25248                  19711308.6044
        48.5004         40.2504
  24029408.8264    2175167.61749   1679616.16646                  24029408.3224
        40.2504         21.5004
  23316634.6234   -6214822.48049  -4832097.80646                  23316633.7994
        42.5004         22.7504
  23192575.5764   -4765957.30549  -3705483.32746                  23192572.4324
        42.0004         24.5004
  23506918.8344     242536.24249    182813.52646                  23506918.3774
        41.5004         21.7504
  20459512.1074   -5785939.50849  -4485909.16247                  20459509.2014
        50.7504         38.7504
  20413596.2644   -4492265.49249  -3484391.62247                  20413593.0844
        48.7504         38.7504
  21013385.9514   -4109828.28949  -3186756.74947                  21013384.8974
        48.2504         34.5004
  21838655.3574   -2512930.01649  -1949766.86047                  21838653.7444
        47.2504         33.0004
  23559300.5294    1892171.80549   1460002.37646                  23559300.2484
        39.0004         22.0004
  22708334.8424   -7240639.84049  -5628470.97147                  22708331.2754
        42.0004         27.7504
 04  7  7 14 16  9.9980000  0 11G 6G10G15G16G17G18G21G26G29G30G22
  19709329.3974   -1980014.98049  -1538163.63648                  19709327.7604
        49.2504         39.7504
  24032222.1544    2189950.92649   1691135.67246                  24032221.3734
        39.7504         20.5004
  23308097.1004   -6259688.84049  -4867058.57846                  23308095.4124
        41.0004         22.7504
  23186710.5374   -4796776.21549  -3729498.05146                  23186708.3854
        41.2504         24.5004
  23507222.5614     244135.48049    184059.64146                  23507223.0454
        41.7504         22.5004
  20452331.2874   -5823675.70349  -4515313.98647                  20452328.1934
        50.5004         38.7504
  20407740.9044   -4523034.66449  -3508367.59647                  20407737.6704
        48.7504         38.2504
  21008777.7564   -4134045.91049  -3205627.61847                  21008776.1744
        47.5004         34.0004
  21836054.1934   -2526599.70749  -1960418.55547                  21836052.9044
        47.0004         32.5004
  23561670.4754    1904629.41049   1469709.63646                  23561670.4324
        39.5004         22.5004
  22698684.2014   -7291353.35249  -5667987.99747                  22698681.0414
        41.7504         29.0004
 04  7  7 14 16 19.9980000  0 11G 6G10G15G16G17G18G21G26G29G30G22
  19707358.0374   -1990374.98049  -1546236.37148                  19707356.0454
        47.5004         40.0004
  24035034.0534    2204729.25849   1702651.21846                  24035033.9164
        39.0004         20.7504
  23299558.8574   -6304555.73449  -4902019.79446                  23299557.7484
        42.0004         23.5004
  23180856.2644   -4827541.96949  -3753471.36846                  23180854.1434
        40.2504         24.5004
  23507527.4434     245737.95749    185308.29646                  23507528.0614
        42.0004         21.7504
  20445158.2404   -5861369.97349  -4544686.15047                  20445155.2994
        50.7504         38.5004
  20401888.2724   -4553791.19549  -3532333.72947                  20401884.5924
        48.0004         38.5004
  21004182.2874   -4158195.09849  -3224445.16547                  21004180.9124
        48.2504         34.0004
  21833463.6704   -2540211.69549  -1971025.30847                  21833462.2444
        46.0004         32.0004
  23564039.8344    1917076.01249   1479408.21546                  23564038.9594
        39.7504         21.5004
  22689038.6474   -7342043.15249  -5707486.52447                  22689035.3114
        41.0004         28.5004
 04  7  7 14 16 29.9980000  0 11G 6G10G15G16G17G18G21G26G29G30G22
  19705396.0064   -2000686.22349  -1554271.11647                  19705394.4674
        48.0004         38.7504
  24037845.0764    2219500.43049   1714161.10946                  24037845.4904
        38.7504         21.5004
  23291020.5764   -6349425.40649  -4936983.15546                  23291019.4554
        43.0004         21.5004
  23175011.6784   -4858256.73849  -3777404.98846                  23175009.3304
        38.2504         23.0004
  23507832.4984     247341.49649    186557.76546                  23507832.3144
        42.0004         22.2504
  20437992.5924   -5899024.52749  -4574027.35947                  20437990.2794
        50.7504         38.5004
  20396037.3264   -4584537.40649  -3556291.80147                  20396034.1074
        48.5004         38.0004
  20999599.0294   -4182277.93749  -3243211.00947                  20999597.8264
        48.0004         33.5004
  21830884.1394   -2553768.17249  -1981588.80847                  21830883.0374
        46.5004         32.5004
  23566405.9044    1929509.23049   1489096.43846                  23566404.9324
        39.5004         21.2504
  22679396.8184   -7392711.41049  -5746968.29547                  22679393.0884
        42.0004         28.7504
 04  7  7 14 16 39.9980000  0 11G 6G10G15G16G17G18G21G26G29G30G22
  19703443.8504   -2010944.88749  -1562264.89148                  19703442.0024
        48.0004         39.7504
  24040655.7014    2234268.25049   1725668.51546                  24040655.5224
        39.5004         21.0004
  23282481.5684   -6394293.98049  -4971945.71146                  23282480.7994
        41.2504         22.7504
  23169177.3574   -4888916.60549  -3801295.78046                  23169174.5764
        41.0004         24.5004
  23508138.5924     248949.96149    187811.08546                  23508138.2644
        42.7504         21.7504
  20430835.6624   -5936635.44549  -4603334.58047                  20430832.8814
        50.7504         39.2504
  20390189.3424   -4615269.37949  -3580238.81447                  20390185.8814
        47.7504         38.5004
  20995029.9124   -4206290.65649  -3261922.22747                  20995028.4474
        48.0004         33.7504
  21828315.7094   -2567265.40649  -1992106.12047                  21828314.6274
        47.5004         32.7504
  23568769.8504    1941932.96549   1498777.25846                  23568769.2954
        38.5004         21.7504
  22669759.5144   -7443354.22349  -5786430.23747                  22669756.6004
        41.2504         28.5004
 04  7  7 14 16 49.9980000  0 10G 6G15G16G17G18G21G26G29G30G22
  19701501.0374   -2021153.41449  -1570219.60148                  19701499.2404
        48.7504         39.5004
  23273943.4514   -6439163.87549  -5006909.25346                  23273942.4164
        42.0004         22.7504
  23163352.8974   -4919524.03549  -3825145.71346                  23163350.6624
        40.7504         24.2504
  23508445.4984     250560.87549    189066.29246                  23508444.4824
        42.5004         22.0004
  20423686.3264   -5974205.21549  -4632609.72247                  20423683.4754
        50.5004         39.0004
  20384343.2324   -4645989.48449  -3604176.56347                  20384340.5724
        48.5004         38.7504
  20990473.3264   -4230235.48049  -3280580.53047                  20990472.1394
        46.7504         33.7504
  21825758.2094   -2580705.70749  -2002579.08447                  21825757.1154
        45.7504         33.0004
  23571132.2724    1954344.55649   1508448.56746                  23571131.7484
        38.5004         21.2504
  22660126.6394   -7493974.05949  -5825874.24547                  22660123.7724
        40.7504         28.0004
 04  7  7 14 16 59.9980000  0 10G 6G15G16G17G18G21G26G29G30G22
  19699568.1704   -2031311.60249  -1578135.07248                  19699566.1784
        48.5004         40.5004
  23265405.5224   -6484034.81649  -5041873.67146                  23265403.5574
        41.2504         22.0004
  23157538.5614   -4950078.61349  -3848954.47346                  23157536.1544
        39.5004         25.2504
  23508751.9904     252174.57849    190323.73746                  23508751.5644
        42.5004         22.2504
  20416545.1234   -6011733.46149  -4661852.51647                  20416542.3614
        50.7504         39.0004
  20378499.8184   -4676697.43449  -3628104.84247                  20378496.6074
        48.5004         39.0004
  20985929.8184   -4254112.20349  -3299185.77847                  20985928.3544
        48.0004         34.2504
  21823210.9284   -2594088.78949  -2013007.47447                  21823210.2644
        45.7504         33.2504
  23573491.0534    1966744.34449   1518110.74146                  23573490.9434
        40.0004         22.0004
  22650498.5064   -7544570.43049  -5865299.97947                  22650495.9864
        42.2504         29.7504
 04  7  7 14 17  9.9980000  0 10G 6G15G16G17G18G21G26G29G30G22
  19697644.8654   -2041419.55549  -1586011.40648                  19697642.7524
        48.5004         40.5004
  23256865.6934   -6528906.98849  -5076838.95046                  23256864.7094
        41.5004         22.0004
  23151734.1704   -4980580.56249  -3872722.26646                  23151731.4674
        41.2504         24.7504
  23509060.5224     253790.94549    191583.25046                  23509060.1194
        42.7504         22.7504
  20409411.7484   -6049220.35949  -4691063.07948                  20409409.0254
        51.0004         39.5004
  20372658.7874   -4707393.48849  -3652023.85247                  20372655.2214
        48.0004         39.0004
  20981398.7644   -4277920.93049  -3317738.03347                  20981397.6584
        47.5004         33.5004
  21820675.4674   -2607414.95349  -2023391.48947                  21820674.1974
        46.2504         33.0004
  23575848.7484    1979131.93849   1527763.38446                  23575848.0414
        40.0004         21.7504
  22640874.8574   -7595143.49649  -5904707.55747                  22640871.2724
        43.5004         29.7504
 04  7  7 14 17 19.9980000  0 10G 6G15G16G17G18G21G26G29G30G22
  19695730.7954   -2051476.19549  -1593847.75448                  19695729.2524
        50.0004         40.0004
  23248326.9284   -6573779.26249  -5111804.38146                  23248325.6194
        41.0004         21.5004
  23145940.3574   -5011028.77749  -3896448.14546                  23145937.2094
        42.2504         24.7504
  23509368.7724     255410.97749    192845.54546                  23509368.6394
        42.5004         24.0004
  20402285.9434   -6086664.85949  -4720240.61447                  20402283.6624
        50.7504         38.7504
  20366819.7954   -4738076.46549  -3675932.67047                  20366816.6434
        49.7504         38.5004
  20976881.6544   -4301660.55149  -3336236.42647                  20976879.8574
        48.5004         34.2504
  21818150.2794   -2620683.09049  -2033730.30447                  21818149.3264
        47.7504         33.0004
  23578204.2014    1991508.38349   1537407.36846                  23578203.7564
        40.5004         24.0004
  22631256.0684   -7645692.13749  -5944096.11547                  22631252.0254
        44.0004         28.5004
 04  7  7 14 17 29.9980000  0 10G 6G15G16G17G18G21G26G29G30G22
  19693826.8574   -2061481.41849  -1601644.03348                  19693825.1934
        49.7504         40.0004
  23239787.9674   -6618651.56249  -5146769.82346                  23239786.4864
        41.2504         22.0004
  23140156.1234   -5041423.21549  -3920132.14046                  23140153.3144
        42.0004         22.7504
  23509677.6704     257034.88749    194110.84646                  23509677.7644
        42.2504         22.5004
  20395168.8574   -6124066.78949  -4749384.96147                  20395165.9084
        50.7504         39.2504
  20360983.8184   -4768746.29349  -3699831.22847                  20360980.3184
        49.7504         38.5004
  20972377.1934   -4325330.91449  -3354680.86047                  20972375.3934
        47.7504         34.0004
  21815636.8344   -2633893.05949  -2044023.78147                  21815635.5454
        47.2504         32.7504
  23580557.5684    2003873.67249   1547042.61246                  23580556.0334
        40.2504         21.7504
  22621641.4044   -7696216.19549  -5983465.52347                  22621637.6864
        42.7504         26.7504
 04  7  7 14 17 39.9980000  0 10G 6G15G16G17G18G21G26G29G30G22
  19691932.7644   -2071435.06249  -1609400.14148                  19691931.3574
        50.0004         40.2504
  23231249.1234   -6663523.73049  -5181735.13846                  23231247.4004
        41.5004         22.0004
  23134383.0924   -5071763.59049  -3943773.98446                  23134379.7014
        41.5004         24.0004
  23509986.8424     258662.85549    195379.41646                  23509988.1354
        40.7504         22.7504
  20388059.6394   -6161425.98449  -4778496.04247                  20388057.3734
        50.7504         38.5004
  20355149.8424   -4799402.80149  -3723719.43347                  20355146.8934
        50.2504         38.5004
  20967885.9044   -4348931.84449  -3373071.21147                  20967884.8144
        48.2504         33.2504
  21813134.1154   -2647044.72749  -2054271.84447                  21813132.7724
        47.5004         32.0004
  23582907.6934    2016227.85549   1556669.23646                  23582906.6894
        40.7504         22.0004
  22612031.8894   -7746715.63349  -6022815.74947                  22612027.8694
        42.0004         26.5004
 04  7  7 14 17 49.9980000  0 10G 6G15G16G17G18G21G26G29G30G22
  19690048.9754   -2081335.84449  -1617115.04748                  19690046.9674
        49.7504         40.2504
  23222711.2794   -6708394.47349  -5216699.34746                  23222709.1504
        42.0004         22.7504
  23128620.0294   -5102048.52349  -3967372.67946                  23128616.8344
        41.7504         22.2504
  23510298.7874     260296.10249    196652.00546                  23510298.7604
        41.0004         23.0004
  20380958.7954   -6198741.13349  -4807572.78247                  20380955.8654
        50.7504         39.0004
  20349318.9204   -4830044.68049  -3747596.22747                  20349315.9634
        49.5004         39.2504
  20963408.5454   -4372461.92649  -3391406.34147                  20963407.1274
        47.7504         34.2504
  21810642.9434   -2660136.79349  -2064473.46347                  21810641.5924
        46.5004         33.2504
  23585257.2254    2028572.17649   1566288.15646                  23585255.8184
        41.0004         23.0004
  22602427.1394   -7797188.86349  -6062145.53547                  22602423.0224
        42.0004         27.2504
 04  7  7 14 17 59.9980000  0 10G 6G15G16G17G18G21G26G29G30G22
  19688174.7724   -2091184.30149  -1624789.17048                  19688173.1864
        50.0004         40.5004
  23214172.6314   -6753264.43449  -5251662.93046                  23214170.5104
        42.0004         22.2504
  23122866.6154   -5132278.70349  -3990928.63946                  23122864.0494
        41.5004         22.5004
  23510609.7404     261934.07849    197928.33446                  23510610.3734
        39.7504         22.5004
  20373865.9594   -6236012.83649  -4836615.66047                  20373863.4394
        51.0004         39.2504
  20343490.4434   -4860672.47349  -3771462.03047                  20343487.6704
        50.0004         38.7504
  20958944.0144   -4395921.84449  -3409686.78947                  20958942.9794
        46.7504         34.0004
  21808162.5294   -2673169.93449  -2074629.16347                  21808161.3304
        45.0004         32.5004
  23587604.0064    2040905.85949   1575898.84946                  23587603.4634
        42.2504         22.7504
  22592827.4674   -7847636.57049  -6101455.45947                  22592824.2014
        43.5004         27.7504
 04  7  7 14 18  9.9980000  0 10G 6G15G16G17G18G21G26G29G30G22
  19686310.5764   -2100982.16049  -1632423.87548                  19686308.6474
        50.0004         41.0004
  23205633.6234   -6798135.27049  -5286627.21646                  23205631.6824
        40.7504         22.7504
  23117124.0534   -5162455.75449  -4014443.25046                  23117121.1314
        41.0004         25.2504
  23510921.5614     263575.17649    199207.14646                  23510921.9364
        39.5004         21.7504
  20366781.2644   -6273242.64849  -4865625.90848                  20366778.8894
        51.0004         39.5004
  20337664.8814   -4891287.86349  -3795318.18347                  20337661.7324
        50.0004         39.0004
  20954492.4364   -4419313.13749  -3427913.76947                  20954491.4754
        47.5004         34.5004
  21805693.3114   -2686145.87949  -2084740.29447                  21805691.8464
        46.2504         33.2504
  23589948.3894    2053227.18849   1585499.85346                  23589948.3694
        42.0004         23.5004
  22583232.0534   -7898060.28949  -6140746.64347                  22583229.4554
        44.5004         29.0004
 04  7  7 14 18 19.9980000  0 10G 6G15G16G17G18G21G26G29G30G22
  19684455.6234   -2110728.13749  -1640018.15748                  19684453.7134
        51.0004         41.0004
  23197095.3974   -6843005.56649  -5321591.12846                  23197093.8734
        42.2504         22.5004
  23111392.2954   -5192578.29349  -4037915.34946                  23111389.1584
        40.5004         25.0004
  23511235.0924     265220.68449    200489.29246                  23511235.3424
        40.7504         21.7504
  20359705.3264   -6310429.32849  -4894602.55248                  20359702.8074
        50.5004         39.5004
  20331841.5684   -4921889.46949  -3819163.59547                  20331838.3224
        50.5004         38.7504
  20950055.1234   -4442634.46949  -3446086.23847                  20950053.5614
        47.7504         34.5004
  21803235.3034   -2699063.22349  -2094805.77647                  21803233.9004
        46.2504         33.5004
  23592291.1784    2065537.48449   1595092.29146                  23592291.1274
        42.0004         22.5004
  22573641.8894   -7948458.63749  -6180018.08947                  22573638.6114
        44.0004         29.2504
 04  7  7 14 18 29.9980000  0 10G 6G15G16G17G18G21G26G29G30G22
  19682611.0064   -2120422.67249  -1647572.33348                  19682608.9044
        50.5004         40.7504
  23188556.2724   -6887875.99249  -5356555.04946                  23188555.0184
        41.7504         22.5004
  23105670.1544   -5222646.89849  -4061345.44546                  23105667.8544
        40.7504         24.5004
  23511548.5144     266870.00849    201774.52746                  23511549.3144
        39.2504         19.5004
  20352636.7954   -6347573.32849  -4923545.92747                  20352634.3464
        50.2504         38.7504
  20326020.4984   -4952477.83649  -3842998.68947                  20326017.3264
        49.5004         38.2504
  20945630.1624   -4465886.32049  -3464204.56747                  20945628.8424
        47.5004         34.0004
  21800788.2794   -2711922.54749  -2104826.03247                  21800786.7644
        45.0004         32.5004
  23594631.7324    2077835.99249   1604675.52146                  23594631.4244
        42.2504         23.0004
  22564055.8814   -7998832.12549  -6219270.16447                  22564052.8074
        44.2504         29.2504
 04  7  7 14 18 39.9980000  0 10G 6G15G16G17G18G21G26G29G30G22
  19680776.3034   -2130063.88349  -1655084.96648                  19680774.7014
        50.7504         40.7504
  23180018.3504   -6932744.46949  -5391517.52546                  23180016.8544
        42.7504         22.5004
  23099959.6864   -5252659.50049  -4084731.88346                  23099956.5534
        41.0004         24.0004
  23511864.4364     268525.29349    203064.24946                  23511864.4244
        41.2504         21.5004
  20345576.9674   -6384672.66449  -4952454.49447                  20345574.4244
        50.7504         38.5004
  20320202.7564   -4983050.91849  -3866821.86247                  20320199.5964
        50.0004         38.5004
  20941219.2404   -4489066.67649  -3482267.17347                  20941217.9284
        47.0004         33.5004
  21798352.6314   -2724721.89849  -2114799.54047                  21798350.9284
        45.7504         32.0004
  23596970.0924    2090124.67649   1614251.09446                  23596969.2524
        41.7504         22.7504
  22554475.1154   -8049178.70749  -6258501.27347                  22554471.7604
        44.0004         28.5004
 04  7  7 14 18 49.9980000  0 10G 6G15G16G17G18G21G26G29G30G22
  19678951.1624   -2139654.80949  -1662558.42248                  19678949.4514
        51.0004         40.2504
  23171479.7324   -6977614.09049  -5426480.83746                  23171478.5924
        42.2504         22.5004
  23094258.4674   -5282619.19549  -4108077.13046                  23094255.5764
        40.5004         25.0004
  23512179.4044     270183.28149    204356.13346                  23512179.8304
        39.7504         21.0004
  20338525.3734   -6421730.40649  -4981330.66947                  20338522.7724
        50.7504         38.5004
  20314387.1784   -5013611.87149  -3890635.58747                  20314384.1434
        50.7504         38.5004
  20936821.4674   -4512178.59849  -3500276.45947                  20936820.0804
        47.5004         33.2504
  21795927.9044   -2737464.36349  -2124728.73947                  21795925.7644
        46.5004         32.5004
  23599305.6004    2102400.27749   1623816.49346                  23599305.2054
        42.0004         22.7504
  22544899.2254   -8099501.39849  -6297713.76147                  22544895.4554
        43.0004         28.5004
 04  7  7 14 18 59.9980000  0 10G 6G15G16G17G18G21G26G29G30G22
  19677135.9984   -2149193.78549  -1669991.40248                  19677134.0574
        50.7504         40.5004
  23162941.6704   -7022483.33649  -5461443.89346                  23162940.1154
        42.0004         23.0004
  23088567.2254   -5312524.36749  -4131379.87846                  23088564.1584
        40.7504         24.5004
  23512495.2794     271845.78949    205651.64646                  23512496.4824
        39.7504         21.2504
  20331481.5534   -6458744.89149  -5010173.11947                  20331478.7524
        51.0004         39.2504
  20308574.3114   -5044158.97349  -3914438.54247                  20308571.2724
        50.5004         38.2504
  20932436.4044   -4535220.47349  -3518231.17147                  20932434.7294
        48.0004         34.0004
  21793514.2324   -2750148.28949  -2134612.33747                  21793512.4324
        47.2504         32.7504
  23601639.7794    2114664.50449   1633373.05046                  23601639.3384
        42.5004         24.0004
  22535327.5764   -8149798.57049  -6336906.37747                  22535323.9364
        44.2504         28.7504
 04  7  7 14 19  9.9980000  0 10G 6G15G16G17G18G21G26G29G30G22
  19675330.5294   -2158681.61749  -1677384.52648                  19675329.1074
        51.0004         40.7504
  23154403.1864   -7067352.80949  -5496407.11646                  23154402.0184
        42.5004         22.2504
  23082886.6314   -5342375.61749  -4154640.57147                  23082884.2014
        40.2504         26.2504
  23512812.2724     273511.89849    206949.82146                  23512813.0454
        39.2504         21.0004
  20324445.9434   -6495716.84049  -5038982.44347                  20324443.1354
        51.0004         39.0004
  20302764.2174   -5074693.01249  -3938231.30047                  20302760.5924
        50.0004         39.0004
  20928065.1474   -4558192.93049  -3536131.79447                  20928063.7404
        47.0004         34.2504
  21791111.4514   -2762774.44549  -2144450.90847                  21791109.9754
        46.0004         32.7504
  23603971.0614    2126916.28949   1642919.87046                  23603970.5334
        41.2504         24.5004
  22525760.9364   -8200070.91049  -6376079.62447                  22525757.7174
        43.5004         28.5004
 04  7  7 14 19 19.9980000  0 10G 6G15G16G17G18G21G26G29G30G22
  19673534.5374   -2168119.23449  -1684738.51648                  19673533.0104
        50.5004         40.0004
  23145864.0764   -7112223.54349  -5531371.30646                  23145863.3814
        41.5004         22.7504
  23077216.5614   -5372174.01249  -4177860.09846                  23077214.0414
        41.0004         25.0004
  23513129.7404     275180.81649    208250.28246                  23513130.8144
        39.5004         21.2504
  20317418.4594   -6532647.28949  -5067759.41047                  20317415.7134
        50.5004         39.2504
  20296956.1074   -5105214.94549  -3962014.62547                  20296952.6974
        50.2504         38.7504
  20923706.5144   -4581096.98449  -3553979.09747                  20923705.2214
        46.7504         34.7504
  21788719.9824   -2775343.85549  -2154245.25647                  21788718.0574
        45.5004         33.0004
  23606300.0224    2139154.66049   1652456.24846                  23606299.5224
        41.5004         23.7504
  22516199.3114   -8250319.34849  -6415234.23347                  22516196.1664
        43.0004         29.7504
 04  7  7 14 19 29.9980000  0 10G 6G15G16G17G18G21G26G29G30G22
  19671748.7644   -2177505.27749  -1692052.34248                  19671746.9204
        51.2504         40.5004
  23137326.9594   -7157093.98849  -5566335.31646                  23137324.7754
        42.2504         24.0004
  23071556.4984   -5401917.96149  -4201037.22746                  23071553.4864
        41.2504         25.2504
  23513448.5454     276854.05149    209554.01946                  23513449.1074
        40.0004         20.7504
  20310398.9674   -6569534.60549  -5096502.78948                  20310396.4284
        50.7504         39.5004
  20291150.3814   -5135723.34049  -3985787.42448                  20291147.1074
        50.5004         39.5004
  20919361.5224   -4603930.98049  -3571771.83847                  20919360.3034
        47.7504         34.7504
  21786338.7564   -2787855.10249  -2163994.30647                  21786337.4434
        46.5004         33.7504
  23608627.1784    2151381.14149   1661983.32846                  23608626.3114
        40.7504         22.7504
  22506642.1154   -8300542.30949  -6454369.02647                  22506638.6894
        43.5004         29.5004
 04  7  7 14 19 39.9980000  0 10G 6G15G16G17G18G21G26G29G30G22
  19669972.4754   -2186838.30149  -1699324.82548                  19669970.7524
        51.2504         40.5004
  23128787.6314   -7201962.82449  -5601298.05146                  23128786.4434
        41.7504         23.5004
  23065906.9204   -5431606.11749  -4224170.84646                  23065904.3464
        41.2504         24.7504
  23513768.6544     278532.79349    210862.12346                  23513768.5144
        40.5004         20.5004
  20303388.0294   -6606377.55949  -5125211.58147                  20303385.2684
        50.7504         38.7504
  20285347.7094   -5166216.78549  -4009548.53847                  20285344.3734
        50.2504         39.0004
  20915029.6934   -4626693.64549  -3589508.96147                  20915028.7484
        48.2504         34.0004
  21783969.4364   -2800306.73049  -2173696.87347                  21783968.0224
        47.0004         32.7504
  23610951.7014    2163596.72349   1671501.96146                  23610950.9634
        41.2504         22.7504
  22497090.0684   -8350738.42649  -6493482.89847                  22497085.8894
        42.5004         27.7504
 04  7  7 14 19 49.9980000  0 10G 6G15G16G17G18G21G26G29G30G22
  19668205.6624   -2196121.13349  -1706558.20448                  19668204.4674
        51.0004         40.0004
  23120249.3574   -7246832.90249  -5636261.72346                  23120248.5644
        41.5004         22.7504
  23060267.2404   -5461241.36749  -4247263.27747                  23060264.6074
        42.2504         26.2504
  23514088.5764     280214.37549    212172.41146                  23514088.0334
        41.2504         20.5004
  20296384.7794   -6643178.85949  -5153887.91747                  20296382.4244
        51.2504         38.7504
  20279547.2324   -5196698.05949  -4033300.16947                  20279544.1314
        51.0004         38.7504
  20910711.2794   -4649387.73849  -3607192.66147                  20910710.0184
        48.0004         34.0004
  21781610.7644   -2812701.62949  -2183355.22247                  21781609.4674
        47.2504         32.5004
  23613273.3344    2175798.70349   1681010.01046                  23613273.0574
        41.2504         22.7504
  22487542.9514   -8400910.35549  -6532577.89547                  22487538.2684
        43.5004         27.0004
 04  7  7 14 19 59.9980000  0 10G 6G15G16G17G18G21G26G29G30G22
  19666449.1864   -2205353.07049  -1713751.93448                  19666447.8424
        51.0004         40.2504
  23111710.7254   -7291703.48849  -5671225.84546                  23111709.5614
        42.0004         22.5004
  23054638.1474   -5490822.89149  -4270313.81846                  23054634.7914
        41.5004         23.7504
  23514409.2404     281899.39849    213485.43246                  23514408.4324
        42.0004         20.7504
  20289390.1234   -6679937.81649  -5182531.26147                  20289387.5644
        51.2504         39.2504
  20273749.1234   -5227166.57849  -4057041.88747                  20273746.2754
        49.7504         38.7504
  20906405.9514   -4672012.57449  -3624822.40747                  20906404.7874
        48.5004         34.0004
  21779263.1004   -2825039.18449  -2192968.91347                  21779261.6474
        47.0004         32.0004
  23615592.4124    2187987.53549   1690507.76146                  23615592.9824
        41.2504         22.0004
  22477999.6704   -8451057.43749  -6571653.55847                  22477995.8544
        42.7504         27.2504
 04  7  7 14 20  9.9970000  0 10G 6G15G16G17G18G21G26G29G30G22
  19664702.3924   -2214532.65649  -1720904.83748                  19664700.8254
        50.2504         39.5004
  23103172.6814   -7336569.57049  -5706186.42846                  23103171.6424
        41.2504         22.2504
  23049019.8604   -5520347.18749  -4293319.74546                  23049017.1464
        39.0004         24.7504
  23514730.3994     283588.41849    214801.53246                  23514729.9314
        39.7504         20.0004
  20282403.7674   -6716650.11749  -5211138.21347                  20282401.1424
        50.7504         38.7504
  20267954.0794   -5257618.55549  -4080770.67447                  20267951.3254
        50.0004         38.0004
  20902114.2514   -4694565.21949  -3642395.86847                  20902113.0524
        47.5004         33.2504
  21776926.0244   -2837317.51249  -2202536.43147                  21776925.0094
        46.2504         31.5004
  23617909.5174    2200162.60249   1699994.87046                  23617909.6574
        39.7504         22.7504
  22468463.0714   -8501173.97349  -6610705.38747                  22468459.4074
        42.5004         27.7504
 04  7  7 14 20 19.9970000  0 10G 6G15G16G17G18G21G26G29G30G22
  19662965.2904   -2223661.52749  -1728018.27948                  19662963.4544
        50.7504         40.5004
  23094634.1104   -7381439.89849  -5741150.27546                  23094633.5174
        41.5004         22.5004
  23043411.1964   -5549820.07449  -4316285.65046                  23043408.9894
        39.7504         24.2504
  23515052.5954     285281.74649    216120.95546                  23515052.4854
        40.0004         21.5004
  20275425.3294   -6753323.08249  -5239714.58848                  20275422.9424
        50.7504         39.5004
  20262161.1964   -5288059.92649  -4104491.25347                  20262158.3884
        50.0004         38.5004
  20897835.6814   -4717050.03149  -3659916.52347                  20897834.1854
        47.7504         34.7504
  21774600.6574   -2849538.89849  -2212059.60947                  21774599.3844
        45.2504         31.7504
  23620224.5014    2212326.41049   1709473.10946                  23620224.7634
        39.7504         22.5004
  22458930.2744   -8551269.92649  -6649741.21847                  22458927.3494
        43.0004         29.5004
 04  7  7 14 20 29.9970000  0 10G 6G15G16G17G18G21G26G29G30G22
  19661237.9854   -2232738.29349  -1735091.08048                  19661236.2004
        50.7504         40.5004
  23086096.0794   -7426309.57449  -5776113.69646                  23086094.9934
        42.0004         22.5004
  23037813.1734   -5579238.02749  -4339208.75046                  23037810.9624
        41.5004         24.7504
  23515375.5094     286979.76249    217444.03946                  23515376.1494
        39.5004         21.0004
  20268454.7124   -6789952.54749  -5268257.01147                  20268452.3334
        51.2504         38.7504
  20256371.3454   -5318487.14149  -4128200.76447                  20256368.4234
        49.7504         38.2504
  20893570.3374   -4739464.25049  -3677382.14547                  20893569.3024
        47.5004         34.0004
  21772286.4544   -2861701.84049  -2221537.22947                  21772284.9624
        46.5004         31.5004
  23622536.7284    2224478.03949   1718941.87146                  23622536.9354
        40.0004         22.0004
  22449402.5324   -8601339.68049  -6688756.58547                  22449399.4154
        43.7504         29.5004
 04  7  7 14 20 39.9970000  0 10G 6G15G16G17G18G21G26G29G30G22
  19659520.4934   -2241763.45349  -1742123.69348                  19659518.7904
        51.0004         40.7504
  23077557.6574   -7471178.96949  -5811076.89246                  23077556.7434
        42.0004         22.0004
  23032225.6884   -5608601.36749  -4362089.29346                  23032222.9584
        41.0004         24.0004
  23515699.8454     288682.20349    218770.59646                  23515700.1464
        39.2504         20.2504
  20261492.6264   -6826538.81649  -5296765.81148                  20261490.3804
        51.0004         39.7504
  20250583.8994   -5348900.74249  -4151899.70348                  20250581.0014
        50.0004         39.5004
  20889318.2284   -4761808.27749  -3694793.08947                  20889316.8994
        47.7504         34.7504
  21769982.9464   -2873806.68749  -2230969.60447                  21769981.3294
        46.0004         32.0004
  23624846.3844    2236616.98449   1728400.79246                  23624846.6574
        39.2504         22.2504
  22439879.2284   -8651383.55949  -6727751.82047                  22439876.4034
        43.7504         30.7504
 04  7  7 14 20 49.9970000  0 10G 6G15G16G17G18G21G26G29G30G22
  19657812.4704   -2250738.66049  -1749117.36348                  19657810.8564
        51.2504         40.5004
  23069018.8214   -7516049.77749  -5846041.14546                  23069018.1854
        42.5004         22.7504
  23026647.9624   -5637911.83649  -4384928.63546                  23026645.2554
        41.0004         24.2504
  23516024.6344     290387.33649    220099.27946                  23516024.4934
        39.5004         20.0004
  20254538.5484   -6863083.55549  -5325242.22948                  20254536.1184
        50.2504         40.0004
  20244798.6344   -5379302.23849  -4175589.16447                  20244795.5634
        50.2504         39.2504
  20885079.4234   -4784083.68749  -3712150.53247                  20885078.0094
        48.0004         34.2504
  21767689.9704   -2885855.03149  -2240357.93047                  21767688.9074
        47.2504         32.0004
  23627152.8134    2248741.55949   1737848.42246                  23627153.6964
        39.0004         21.7504
  22430361.1654   -8701403.21549  -6766728.19847                  22430358.0674
        43.5004         30.0004
 04  7  7 14 20 59.9970000  0 10G 6G15G16G17G18G21G26G29G30G22
  19656114.6264   -2259662.40249  -1756070.92748                  19656112.7634
        51.0004         39.7504
  23060480.3534   -7560920.53949  -5881005.35146                  23060479.3174
        42.5004         23.7504
  23021081.1344   -5667167.94949  -4407725.59746                  23021078.4704
        42.5004         24.5004
  23516349.4624     292096.57449    221431.11846                  23516350.3564
        37.5004         19.7504
  20247592.6344   -6899585.33649  -5353685.17247                  20247589.9934
        50.7504         39.0004
  20239016.0014   -5409690.18049  -4199268.09047                  20239013.1614
        50.0004         38.7504
  20880854.0324   -4806289.08249  -3729453.42747                  20880852.5954
        48.2504         34.0004
  21765408.2594   -2897845.53149  -2249701.17447                  21765406.9974
        46.7504         32.0004
  23629457.9154    2260853.05149   1747285.94246                  23629458.2864
        39.7504         21.0004
  22420847.4384   -8751397.22349  -6805684.56147                  22420843.6034
        45.2504         29.0004
 04  7  7 14 21  9.9970000  0 10G 6G15G16G17G18G21G26G29G30G22
  19654426.1424   -2268534.23849  -1762984.05848                  19654424.9234
        51.0004         40.2504
  23051942.1884   -7605790.66849  -5915969.11346                  23051940.8564
        42.5004         24.7504
  23015524.9074   -5696369.17649  -4430479.85046                  23015521.4074
        40.5004         24.2504
  23516675.5954     293810.45749    222766.61046                  23516676.3024
        38.2504         19.7504
  20240654.6184   -6936043.58649  -5382094.21448                  20240652.2004
        51.0004         39.5004
  20233236.0634   -5440064.00449  -4222936.00647                  20233232.8214
        50.0004         38.5004
  20876641.7744   -4828423.89849  -3746701.35847                  20876640.1384
        48.2504         34.2504
  21763137.8134   -2909777.62549  -2258998.92047                  21763136.5094
        47.5004         33.0004
  23631760.6964    2272951.96549   1756713.69746                  23631760.1734
        40.0004         20.7504
  22411338.8684   -8801364.92249  -6844620.44447                  22411335.3924
        42.5004         27.5004
 04  7  7 14 21 19.9970000  0 10G 6G15G16G17G18G21G26G29G30G22
  19652747.8374   -2277353.71549  -1769856.36747                  19652746.0054
        50.7504         39.2504
  23043404.3294   -7650659.82449  -5950932.01546                  23043402.4544
        42.5004         24.5004
  23009978.4384   -5725515.09049  -4453190.94446                  23009975.0834
        42.2504         23.0004
  23517002.3064     295529.46149    224106.05946                  23517003.9384
        37.7504         19.2504
  20233725.2824   -6972457.84449  -5410468.93347                  20233722.6304
        50.7504         38.0004
  20227458.7904   -5470423.42649  -4246592.69247                  20227455.8494
        49.7504         38.0004
  20872443.0874   -4850487.65249  -3763893.86047                  20872441.9154
        48.2504         33.0004
  21760878.3844   -2921651.01649  -2268250.90947                  21760876.7984
        46.2504         31.5004
  23634061.1034    2285038.46949   1766131.70146                  23634060.6814
        40.0004         20.7504
  22401835.2984   -8851305.81249  -6883535.42147                  22401831.9704
        44.5004         29.2504
 04  7  7 14 21 29.9970000  0 10G 6G15G16G17G18G21G26G29G30G22
  19651079.3534   -2286123.47749  -1776689.97548                  19651077.5564
        50.2504         40.5004
  23034865.5714   -7695530.55949  -5985896.30146                  23034863.6064
        43.2504         24.5004
  23004441.7354   -5754608.26649  -4475860.96446                  23004439.2824
        39.7504         24.5004
  23517330.5714     297251.02049    225447.49446                  23517331.9114
        36.2504         19.0004
  20226803.7984   -7008830.78149  -5438811.50548                  20226801.0284
        50.5004         39.5004
  20221684.0564   -5500770.89849  -4270240.09147                  20221680.8334
        50.0004         38.7504
  20868257.7824   -4872482.86749  -3781033.00547                  20868255.7434
        48.0004         34.5004
  21758629.7044   -2933468.28149  -2277459.17847                  21758628.0174
        47.2504         31.5004
  23636358.2514    2297109.96949   1775538.02446                  23636357.3254
        40.5004         22.0004
  22392337.2514   -8901222.48849  -6922431.55747                  22392333.3334
        45.0004         30.7504
 04  7  7 14 21 39.9970000  0 10G 6G15G16G17G18G21G26G29G30G22
  19649419.9854   -2294840.97749  -1783482.82848                  19649418.4274
        51.0004         40.0004
  23026327.0014   -7740400.34449  -6020859.74746                  23026325.3374
        42.5004         24.2504
  22998916.2594   -5783646.10249  -4498487.86946                  22998913.4034
        41.5004         22.7504
  23517658.7124     298977.57448    226792.91946                  23517660.2824
        35.2504         18.5004
  20219890.2824   -7045159.77049  -5467119.79648                  20219888.0834
        50.7504         39.7504
  20215911.9464   -5531103.93049  -4293876.21648                  20215908.8564
        50.5004         39.5004
  20864085.4234   -4894407.02749  -3798116.76347                  20864084.0874
        47.7504         34.0004
  21756391.8374   -2945226.80149  -2286621.65647                  21756390.3494
        46.2504         32.0004
  23638652.4384    2309168.94949   1784934.62746                  23638652.3924
        40.0004         21.7504
  22382842.9234   -8951112.40649  -6961306.82347                  22382839.6494
        45.5004         29.2504
 04  7  7 14 21 49.9970000  0 10G 6G15G16G17G18G21G26G29G30G22
  19647771.3374   -2303505.99249  -1790234.81648                  19647769.4854
        51.0004         41.0004
  23017788.7744   -7785268.92249  -6055822.28346                  23017787.0444
        43.0004         25.5004
  22993400.9464   -5812628.42249  -4521071.52046                  22993398.1854
        41.2504         24.0004
  23517988.1034     300709.42649    228142.29046                  23517989.3844
        37.0004         18.5004
  20212986.1344   -7081444.64549  -5495393.73648                  20212983.1264
        49.7504         40.5004
  20210142.4934   -5561422.23449  -4317500.88047                  20210139.1144
        50.0004         39.0004
  20859927.2284   -4916259.87549  -3815144.97747                  20859925.6614
        48.0004         35.7504
  21754165.4234   -2956926.45749  -2295738.31447                  21754164.5794
        46.7504         32.2504
  23640944.9854    2321215.46149   1794321.52246                  23640944.3964
        39.2504         21.5004
  22373353.9154   -9000975.23449  -7000160.97647                  22373351.3764
        45.0004         29.2504
 04  7  7 14 21 59.9970000  0 10G 6G15G16G17G18G21G26G29G30G22
  19646132.0014   -2312120.48049  -1796947.41548                  19646130.4274
        50.7504         40.7504
  23009250.7594   -7830138.40249  -6090785.51946                  23009248.4354
        42.2504         23.5004
  22987896.0714   -5841557.11749  -4543613.33746                  22987892.8804
        41.0004         22.7504
  23518318.6654     302444.56349    229494.26546                  23518319.2824
        36.0004         18.2504
  20206088.9074   -7117687.39149  -5523634.84748                  20206086.3644
        50.5004         40.0004
  20204375.2514   -5591727.82449  -4341115.62447                  20204372.2204
        50.2504         39.2504
  20855782.4384   -4938043.39149  -3832119.12647                  20855780.1964
        48.0004         35.0004
  21751949.7124   -2968569.31249  -2304810.65347                  21751948.4234
        46.7504         32.2504
  23643234.5714    2333247.52749   1803697.12146                  23643234.0914
        39.7504         21.5004
  22363870.2284   -9050812.92649  -7038995.53847                  22363867.5674
        43.5004         29.5004
 04  7  7 14 22  9.9970000  0 10G 6G15G16G17G18G21G26G29G30G22
  19644502.5564   -2320682.73449  -1803619.30448                  19644501.2944
        50.5004         39.7504
  23000711.8214   -7875006.84449  -6125747.93846                  23000710.4584
        42.5004         22.7504
  22982401.6964   -5870430.36349  -4566111.97046                  22982398.3024
        40.7504         23.2504
  23518649.6734     304184.90249    230850.39846                  23518650.2984
        37.0004         16.7504
  20199200.7284   -7153886.03949  -5551841.56747                  20199197.9784
        50.0004         38.7504
  20198610.8294   -5622018.72749  -4364718.92047                  20198608.0754
        50.0004         39.0004
  20851650.0634   -4959755.65649  -3849037.77947                  20851648.5014
        48.7504         34.5004
  21749745.1734   -2980153.39849  -2313837.21747                  21749744.1424
        46.0004         31.7504
  23645521.8764    2345266.81349   1813062.75046                  23645521.2474
        40.2504         20.2504
  22354391.8684   -9100623.52749  -7077809.00247                  22354388.5714
        43.7504         28.7504
 04  7  7 14 22 19.9970000  0 10G 6G15G16G17G18G21G26G29G30G22
  19642883.0484   -2329193.37949  -1810250.97748                  19642881.6734
        50.7504         40.0004
  22992173.6344   -7919875.10249  -6160710.21546                  22992172.3564
        42.5004         24.0004
  22976917.0794   -5899249.03949  -4588568.09246                  22976914.4624
        40.2504         23.5004
  23518982.1104     305929.61349    232209.84146                  23518982.5874
        36.5004         18.5004
  20192320.3994   -7190041.46549  -5580014.63148                  20192317.6774
        51.0004         39.5004
  20192849.7434   -5652295.91449  -4388311.53647                  20192846.5094
        50.0004         38.7504
  20847531.9934   -4981397.57849  -3865901.61747                  20847529.9664
        48.0004         34.5004
  21747551.9784   -2991679.69949  -2322818.78047                  21747550.7244
        46.0004         31.0004
  23647806.4624    2357272.45349   1822417.84646                  23647805.5054
        40.0004         20.0004
  22344918.3134   -9150407.93449  -7116602.03847                  22344914.6034
        44.7504         29.7504
 04  7  7 14 22 29.9970000  0 10G 6G15G16G17G18G21G26G29G30G22
  19641273.8214   -2337651.42649  -1816841.66848                  19641272.0994
        50.2504         39.5004
  22983636.3764   -7964741.97349  -6195671.39046                  22983634.4704
        43.0004         22.0004
  22971443.7514   -5928011.90649  -4610980.69346                  22971441.4074
        40.5004         24.0004
  23519314.9704     307679.76648    233573.62946                  23519315.8254
        34.7504         17.7504
  20185448.8764   -7226152.35949  -5608152.99247                  20185445.9974
        50.2504         38.5004
  20187091.1494   -5682558.17249  -4411892.51347                  20187087.9744
        51.0004         38.5004
  20843427.0244   -5002967.84449  -3882709.59647                  20843425.7594
        48.5004         33.2504
  21745370.0094   -3003147.10949  -2331754.39747                  21745368.2004
        46.7504         30.2504
  23650088.6424    2369265.46949   1831763.05146                  23650087.6654
        41.0004         20.0004
  22335449.7284   -9200164.84849  -7155373.65747                  22335446.2634
        45.5004         29.2504
 04  7  7 14 22 39.9970000  0 10G 6G15G16G17G18G21G26G29G30G22
  19639674.3374   -2346056.75449  -1823391.28148                  19639672.4664
        51.2504         40.7504
  22975098.1574   -8009607.39149  -6230631.45646                  22975097.1384
        43.0004         22.5004
  22965980.8374   -5956718.88349  -4633349.84046                  22965977.9274
        40.2504         22.5004
  23519648.8134     309435.57849    234941.80246                  23519650.2634
        36.0004         19.2504
  20178585.7984   -7262218.82849  -5636256.73348                  20178582.8994
        50.5004         39.5004
  20181335.2674   -5712805.35949  -4435461.76647                  20181331.8804
        50.0004         39.0004
  20839336.0634   -5024466.34849  -3899461.69847                  20839334.9814
        48.0004         34.0004
  21743198.9624   -3014555.43749  -2340644.02947                  21743197.7864
        45.7504         30.2504
  23652368.4234    2381245.86349   1841098.45846                  23652366.8414
        41.7504         19.0004
  22325987.1184   -9249894.17649  -7194123.77547                  22325983.3254
        45.0004         29.5004
 04  7  7 14 22 49.9970000  0 10G 6G15G16G17G18G21G26G29G30G22
  19638084.3294   -2354410.58249  -1829900.77348                  19638083.0524
        51.0004         40.2504
  22966560.9234   -8054472.50849  -6265591.25846                  22966559.3214
        43.0004         25.0004
  22960528.6344   -5985371.08649  -4655676.20946                  22960525.8804
        42.0004         22.7504
  23519983.1574     311195.87149    236313.44246                  23519985.0874
        36.2504         19.0004
  20171730.6814   -7298241.98449  -5664326.72747                  20171727.8454
        50.5004         39.2504
  20175581.9784   -5743038.69549  -4459020.22047                  20175578.9544
        51.0004         39.2504
  20835258.5874   -5045894.35249  -3916158.82447                  20835256.8994
        48.5004         34.0004
  21741038.8604   -3025906.01649  -2349488.65347                  21741037.5604
        46.5004         29.5004
  23654645.8924    2393212.38749   1850422.97946                  23654644.4424
        40.0004         19.7504
  22316528.4784   -9299597.02049  -7232853.28247                  22316524.5404
        44.5004         29.5004
 04  7  7 14 22 59.9970000  0 10G 6G15G16G17G18G21G26G29G30G22
  19636504.8374   -2362711.88749  -1836369.32848                  19636502.8294
        51.0004         40.5004
  22958023.8374   -8099336.35249  -6300550.13346                  22958022.0174
        43.0004         23.7504
  22955087.2204   -6013967.54749  -4677959.18847                  22955084.5174
        41.2504         25.7504
  23520320.5324     312961.63749    237689.27646                  23520320.7474
        36.2504         19.5004
  20164884.2204   -7334220.80949  -5692362.18848                  20164881.4234
        50.7504         39.7504
  20169831.3604   -5773257.08649  -4482567.02448                  20169828.3644
        50.7504         40.0004
  20831194.8924   -5067250.75449  -3932800.19647                  20831193.1384
        48.7504         34.5004
  21738890.1034   -3037197.71149  -2358287.37147                  21738888.6734
        45.7504         30.7504
  23656920.2434    2405165.94149   1859737.48446                  23656919.7944
        40.2504         20.0004
  22307074.9934   -9349272.35249  -7271561.32147                  22307071.1924
        43.7504         29.2504
 04  7  7 14 23  9.9970000  0 10G 6G15G16G17G18G21G26G29G30G22
  19634935.2514   -2370960.91849  -1842797.14648                  19634933.3994
        51.0004         40.7504
  22949486.2434   -8144199.13749  -6335508.13746                  22949485.0284
        43.5004         23.0004
  22949656.2984   -6042508.54349  -4700198.92746                  22949653.5564
        39.7504         23.5004
  23520656.9384     314732.61349    239069.25246                  23520657.5754
        37.5004         19.7504
  20158045.8214   -7370155.55549  -5720363.28448                  20158042.9974
        50.5004         40.0004
  20164084.0564   -5803460.83649  -4506102.42148                  20164080.7044
        50.5004         39.5004
  20827144.0874   -5088535.78549  -3949385.93447                  20827142.8214
        49.0004         34.0004
  21736752.4854   -3048430.89549  -2367040.51747                  21736750.7084
        45.0004         30.7504
  23659193.0094    2417106.18049   1869041.57546                  23659191.3994
        41.0004         21.0004
  22297627.8294   -9398920.41049  -7310248.12447                  22297624.3684
        44.5004         30.0004
 04  7  7 14 23 19.9970000  0 10G 6G15G16G17G18G21G26G29G30G22
  19633374.9154   -2379159.55149  -1849185.70048                  19633373.5954
        51.0004         40.0004
  22940948.9464   -8189062.67249  -6370466.73846                  22940947.8174
        43.0004         24.2504
  22944235.0564   -6070995.78949  -4722396.79046                  22944232.6184
        41.0004         25.2504
  23520995.0404     316507.04749    240451.84846                  23520995.5054
        37.7504         19.7504
  20151215.7904   -7406047.93049  -5748331.36747                  20151213.1034
        50.7504         39.2504
  20158338.9074   -5833651.67249  -4529627.75047                  20158335.7474
        50.5004         38.5004
  20823107.2904   -5109751.19149  -3965917.41347                  20823105.7824
        48.7504         34.0004
  21734625.7824   -3059607.34449  -2375749.42947                  21734624.1964
        46.0004         29.5004
  23661462.2514    2429031.14849   1878333.72546                  23661461.0014
        41.0004         20.2504
  22288185.0484   -9448542.87549  -7348914.96147                  22288181.3924
        45.5004         29.7504
 04  7  7 14 23 29.9970000  0 10G 6G15G16G17G18G21G26G29G30G22
  19631825.1264   -2387305.56249  -1855533.24648                  19631823.1424
        50.5004         40.2504
  22932411.8294   -8233924.87149  -6405424.31246                  22932410.6854
        42.5004         22.7504
  22938825.0714   -6099427.16449  -4744551.13946                  22938822.4814
        40.0004         22.7504
  23521332.7204     318286.96149    241838.78346                  23521334.4664
        38.5004         19.7504
  20144394.2044   -7441895.84049  -5776264.80547                  20144391.5914
        51.0004         39.0004
  20152596.7044   -5863827.43749  -4553141.32747                  20152593.3844
        50.0004         38.7504
  20819083.4544   -5130894.85949  -3982392.99847                  20819082.0134
        48.5004         34.5004
  21732510.3454   -3070724.95349  -2384412.50947                  21732508.3214
        46.5004         29.7504
  23663729.5874    2440942.97349   1887615.66146                  23663727.9464
        40.5004         20.2504
  22278747.6884   -9498137.59849  -7387560.20647                  22278743.4314
        45.5004         30.5004
 04  7  7 14 23 39.9970000  0 10G 6G15G16G17G18G21G26G29G30G22
  19630284.7124   -2395398.73849  -1861839.62648                  19630283.0954
        51.0004         40.0004
  22923875.8064   -8278785.46149  -6440380.60346                  22923874.2354
        44.0004         23.0004
  22933425.1884   -6127802.47749  -4766661.75446                  22933423.1344
        39.7504         23.0004
  23521673.8604     320072.74249    243230.24546                  23521673.9744
        39.0004         20.0004
  20137580.8684   -7477698.97349  -5804163.34247                  20137578.5094
        50.5004         38.7504
  20146857.4314   -5893988.08649  -4576643.13947                  20146854.1694
        50.5004         38.2504
  20815073.7984   -5151966.46149  -3998812.43247                  20815072.0834
        48.5004         34.2504
  21730405.3454   -3081783.55149  -2393029.61247                  21730404.3724
        46.0004         28.7504
  23665993.1264    2452841.78149   1896887.44746                  23665991.7314
        39.5004         20.5004
  22269315.7984   -9547704.27349  -7426183.59147                  22269311.9784
        44.7504         30.5004
 04  7  7 14 23 49.9970000  0 10G 6G15G16G17G18G21G26G29G30G22
  19628754.8214   -2403439.72749  -1868105.34048                  19628753.2394
        51.0004         40.5004
  22915339.1424   -8323645.07049  -6475336.13246                  22915337.5874
        43.0004         22.5004
  22928036.3134   -6156122.25849  -4788729.14746                  22928033.9154
        40.0004         23.2504
  23522014.2674     321863.72749    244625.84046                  23522014.9814
        36.7504         19.7504
  20130776.5014   -7513457.95349  -5832027.49048                  20130773.8844
        51.0004         40.0004
  20141120.7984   -5924134.15249  -4600133.59048                  20141117.5444
        50.0004         39.5004
  20811077.2744   -5172966.71949  -4015176.26947                  20811075.7244
        49.0004         35.0004
  21728312.2984   -3092783.83649  -2401601.26947                  21728310.9154
        45.7504         29.2504
  23668254.6424    2464726.82449   1906148.50846                  23668253.8534
        38.5004         19.0004
  22259888.3534   -9597243.53149  -7464785.60947                  22259884.7714
        44.5004         31.2504
 04  7  7 14 23 59.9970000  0 10G 6G15G16G17G18G21G26G29G30G22
  19627234.6884   -2411427.25849  -1874329.38348                  19627233.2984
        51.0004         40.2504
  22906802.8534   -8368502.34449  -6510289.88546                  22906801.5604
        43.0004         23.0004
  22922657.7824   -6184385.11349  -4810752.15946                  22922655.5214
        40.7504         23.5004
  23522356.6034     323661.37549    246026.51946                  23522356.2984
        38.5004         21.0004
  20123980.4314   -7549171.59049  -5859856.29247                  20123977.9624
        50.5004         39.2504
  20135387.3604   -5954264.04749  -4623611.42647                  20135383.9894
        50.0004         39.0004
  20807095.1104   -5193894.12949  -4031483.35147                  20807093.7904
        48.0004         34.2504
  21726230.3764   -3103724.26649  -2410126.26447                  21726228.9354
        45.5004         29.2504
  23670513.4624    2476599.30549   1915399.79446                  23670512.7984
        37.2504         18.5004
  22250466.3534   -9646753.89849  -7503365.10347                  22250463.0604
        45.0004         30.2504
 04  7  7 14 24  9.9970000  0 10G 6G15G16G17G18G21G26G29G30G22
  19625724.7674   -2419362.73449  -1880512.89248                  19625723.0674
        51.2504         41.0004
  22898266.4704   -8413358.80949  -6545242.92346                  22898265.5754
        43.0004         25.0004
  22917290.0634   -6212592.59449  -4832732.05046                  22917287.4464
        40.5004         24.0004
  23522699.5404     325463.98849    247431.14346                  23522699.6854
        40.2504         22.5004
  20117192.3764   -7584841.26249  -5887650.84548                  20117190.0714
        50.0004         40.0004
  20129656.2824   -5984379.37949  -4647077.93148                  20129653.2284
        50.0004         39.5004
  20803126.2904   -5214750.27049  -4047734.88947                  20803124.8684
        47.2504         35.2504
  21724159.5244   -3114606.62549  -2418606.04547                  21724158.1654
        45.0004         29.2504
  23672770.0714    2488457.83649   1924640.21446                  23672769.5444
        36.7504         18.2504
  22241050.3454   -9696237.00049  -7541923.35647                  22241047.2084
        45.0004         31.0004
 04  7  7 14 24 19.9970000  0 10G 6G15G16G17G18G21G26G29G30G22
  19624224.3764   -2427247.32049  -1886656.72848                  19624222.3334
        51.2504         40.2504
  22889730.7984   -8458215.47749  -6580196.24046                  22889729.4354
        41.2504         22.7504
  22911932.8994   -6240745.70349  -4854669.51346                  22911930.2314
        40.2504         23.0004
  23523043.6884     327270.75449    248839.01046                  23523044.0444
        38.5004         22.0004
  20110413.0794   -7620468.00049  -5915411.93948                  20110410.5674
        50.5004         39.7504
  20123928.2744   -6014481.18749  -4670533.88847                  20123925.1144
        48.7504         39.0004
  20799171.0484   -5235536.14849  -4063931.66547                  20799169.4584
        46.0004         34.2504
  21722099.6184   -3125431.90649  -2427041.33547                  21722097.7824
        45.2504         28.5004
  23675023.4074    2500301.19149   1933868.66246                  23675023.5954
        36.0004         19.0004
  22231638.7044   -9745693.62149  -7580460.97847                  22231635.8024
        44.5004         30.2504
 04  7  7 14 24 29.9970000  0 10G 6G15G16G17G18G21G26G29G30G22
  19622734.1344   -2435079.10949  -1892759.43348                  19622731.9074
        51.0004         39.5004
  22881195.8684   -8503070.50449  -6615148.15346                  22881194.0444
        42.0004         22.7504
  22906585.6814   -6268842.59049  -4876563.19946                  22906583.3174
        39.7504         24.5004
  23523388.5954     329083.40649    250251.45646                  23523389.5134
        39.0004         21.2504
  20103642.0714   -7656049.90249  -5943138.09448                  20103639.2824
        50.7504         39.5004
  20118202.7514   -6044567.59849  -4693977.85147                  20118199.7314
        49.7504         38.5004
  20795229.3684   -5256249.75449  -4080072.13347                  20795227.6814
        47.7504         33.5004
  21720050.7904   -3136198.16449  -2435430.62847                  21720049.3724
        43.7504         28.0004
  23677274.3604    2512131.07048   1943086.77946                  23677275.2124
        34.5004         19.0004
  22222232.9784   -9795121.85249  -7618976.47347                  22222230.0914
        44.7504         30.5004
 04  7  7 14 24 39.9970000  0 10G 6G15G16G17G18G21G26G29G30G22
  19621253.5874   -2442858.58249  -1898821.36348                  19621251.6344
        51.5004         39.7504
  22872659.3844   -8547924.37549  -6650099.25946                  22872658.3254
        42.5004         22.7504
  22901249.8994   -6296883.74249  -4898413.49546                  22901247.6224
        41.0004         23.7504
  23523734.9624     330901.53949    251668.11546                  23523735.3844
        39.0004         21.5004
  20096879.6344   -7691587.46549  -5970829.69848                  20096876.9424
        50.7504         39.5004
  20112480.2674   -6074639.05149  -4717410.15847                  20112477.2634
        48.2504         38.2504
  20791300.8604   -5276891.73049  -4096156.78947                  20791300.1534
        45.0004         34.0004
  21718013.3294   -3146905.97749  -2443774.39647                  21718011.7744
        45.2504         28.5004
  23679523.0714    2523946.96148   1952293.92946                  23679524.1264
        34.0004         19.0004
  22212832.4704   -9844522.24249  -7657470.28647                  22212829.1224
        45.2504         29.7504
 04  7  7 14 24 49.9970000  0 10G 6G15G16G17G18G21G26G29G30G22
  19619783.0014   -2450585.47749  -1904842.31747                  19619781.2394
        50.5004         39.0004
  22864124.6964   -8592776.73849  -6685049.15746                  22864123.5674
        41.7504         23.2504
  22895924.5564   -6324868.81249  -4920220.00246                  22895922.0634
        41.7504         24.2504
  23524081.3374     332725.39149    253089.26646                  23524082.4384
        38.7504         21.5004
  20090125.3924   -7727080.39149  -5998486.53047                  20090122.8994
        50.5004         39.0004
  20106761.0404   -6104695.21149  -4740830.54347                  20106757.9974
        48.7504         38.7504
  20787386.6424   -5297461.63749  -4112185.29247                  20787385.1884
        46.0004         34.0004
  21715986.5014   -3157555.09849  -2452072.41847                  21715984.9424
        44.0004         28.0004
  23681768.4154    2535749.00048   1961490.27946                  23681769.5914
        35.7504         19.2504
  22203437.3534   -9893894.34049  -7695942.06547                  22203433.9814
        46.0004         30.2504
 04  7  7 14 24 59.9970000  0 10G 6G15G16G17G18G21G26G29G30G22
  19618322.8064   -2458260.19149  -1910822.63048                  19618320.6964
        51.0004         40.2504
  22855590.2824   -8637628.16849  -6719998.30646                  22855588.5914
        41.5004         25.5004
  22890609.9934   -6352798.38349  -4941983.34846                  22890606.9034
        40.7504         24.2504
  23524428.9704     334554.52749    254514.55746                  23524430.6144
        38.2504         21.5004
  20083379.8684   -7762529.17649  -6026108.96447                  20083377.3134
        50.5004         38.5004
  20101044.0634   -6134736.59849  -4764239.42047                  20101041.0214
        48.7504         39.2504
  20783486.1104   -5317959.99649  -4128158.04047                  20783484.6694
        46.5004         34.7504
  21713971.8764   -3168145.96949  -2460325.06447                  21713969.9034
        45.0004         29.0004
  23684012.2904    2547536.72348   1970675.44746                  23684012.4074
        35.2504         20.5004
  22194047.4154   -9943238.70349  -7734392.21547                  22194044.2284
        45.0004         30.5004
 04  7  7 14 25  9.9970000  0 10G 6G15G16G17G18G21G26G29G30G22
  19616872.6494   -2465881.53149  -1916761.34748                  19616870.6854
        50.7504         39.7504
  22847055.6104   -8682477.20749  -6754945.63846                  22847053.8454
        40.7504         23.7504
  22885305.8214   -6380670.98849  -4963702.26346                  22885303.0174
        39.2504         24.0004
  23524779.0794     336390.30149    255944.96946                  23524780.1424
        39.0004         21.5004
  20076642.7204   -7797932.42649  -6053695.90947                  20076639.9274
        49.5004         39.0004
  20095330.8064   -6164761.85249  -4787635.72047                  20095327.8104
        49.5004         38.5004
  20779599.5714   -5338385.41049  -4144073.94447                  20779597.9974
        47.5004         34.0004
  21711967.3764   -3178677.33249  -2468531.28147                  21711965.7004
        45.0004         30.2504
  23686253.3684    2559311.26649   1979850.43446                  23686252.9814
        36.0004         19.7504
  22184662.5484   -9992553.89549  -7772819.64547                  22184659.9234
        45.0004         30.0004
 04  7  7 14 25 19.9970000  0 10G 6G15G16G17G18G21G26G29G30G22
  19615432.3134   -2473451.62949  -1922660.12248                  19615430.3374
        51.2504         39.7504
  22838520.9234   -8727326.07049  -6789892.82546                  22838520.0444
        42.7504         25.2504
  22880012.9234   -6408488.74249  -4985378.44746                  22880009.5014
        40.7504         23.7504
  23525129.0094     338230.64849    257378.97946                  23525130.1614
        39.5004         20.7504
  20069913.8994   -7833292.21949  -6081248.98848                  20069911.5364
        50.5004         39.7504
  20089619.7594   -6194773.06249  -4811021.09147                  20089616.6964
        48.2504         38.7504
  20775725.8924   -5358740.02049  -4159934.69247                  20775724.8924
        45.5004         35.0004
  21709974.2514   -3189151.35949  -2476692.88947                  21709972.7204
        42.7504         30.0004
  23688491.8064    2571070.44549   1989013.43846                  23688491.2744
        36.5004         20.0004
  22175283.9784  -10041841.93049  -7811225.90647                  22175280.6104
        45.2504         30.0004
 04  7  7 14 25 29.9970000  0 10G 6G15G16G17G18G21G26G29G30G22
  19614001.5484   -2480968.84449  -1928517.69848                  19613999.8064
        51.0004         40.0004
  22829986.6344   -8772173.26249  -6824838.66446                  22829985.6494
        42.0004         24.7504
  22874729.8134   -6436250.12949  -5007010.71646                  22874726.8334
        41.7504         24.0004
  23525480.8764     340077.00049    258817.65046                  23525480.7864
        40.5004         21.2504
  20063193.3994   -7868607.09849  -6108767.08448                  20063191.1264
        50.7504         39.5004
  20083911.8454   -6224768.75449  -4834394.36847                  20083908.8844
        48.5004         39.0004
  20771866.4234   -5379022.26649  -4175739.03447                  20771865.0404
        45.7504         34.7504
  21707992.0874   -3199566.57049  -2484808.65747                  21707990.8254
        42.5004         28.7504
  23690726.5794    2582815.69949   1998165.52046                  23690726.3994
        37.5004         21.2504
  22165909.8064  -10091101.30549  -7849609.83647                  22165906.4154
        44.5004         31.0004
 04  7  7 14 25 39.9970000  0 10G 6G15G16G17G18G21G26G29G30G22
  19612580.9314   -2488433.59049  -1934334.38647                  19612579.1224
        51.0004         39.2504
  22821452.7984   -8817018.98849  -6859783.38546                  22821451.8174
        42.5004         24.5004
  22869457.7044   -6463955.42249  -5028599.24746                  22869454.7124
        41.7504         22.5004
  23525833.1184     341929.13749    260260.84646                  23525832.8214
        39.7504         20.2504
  20056481.7824   -7903877.25449  -6136250.31347                  20056479.6464
        50.0004         39.0004
  20078206.8374   -6254749.10549  -4857755.68847                  20078203.9114
        49.7504         38.7504
  20768020.5094   -5399232.42249  -4191487.21047                  20768019.0754
        48.0004         34.2504
  21706021.6264   -3209923.22349  -2492878.77547                  21706020.0094
        43.7504         28.7504
  23692958.9384    2594546.63349   2007306.48846                  23692958.7244
        38.2504         21.2504
  22156541.7354  -10140332.21149  -7887971.57847                  22156538.6734
        45.7504         30.7504
 04  7  7 14 25 49.9970000  0 10G 6G15G16G17G18G21G26G29G30G22
  19611170.3454   -2495846.38349  -1940110.58548                  19611168.3374
        51.2504         39.5004
  22812919.3764   -8861863.73049  -6894727.33246                  22812918.0954
        41.5004         24.5004
  22864196.2514   -6491605.10249  -5050144.45546                  22864193.5564
        41.5004         23.0004
  23526186.7354     343786.64549    261708.33846                  23526186.2124
        40.2504         19.2504
  20049778.5634   -7939103.26249  -6163699.15047                  20049776.1224
        50.5004         38.7504
  20072504.3294   -6284714.62549  -4881105.44647                  20072501.2744
        50.5004         38.5004
  20764188.5244   -5419370.92249  -4207179.55947                  20764186.5994
        47.2504         34.0004
  21704061.3134   -3220221.83649  -2500903.64847                  21704060.3884
        43.5004         29.5004
  23695188.7594    2606262.80949   2016435.95746                  23695187.8804
        38.7504         21.5004
  22147178.4704  -10189535.17649  -7926311.54547                  22147175.4704
        44.5004         30.2504
 04  7  7 14 25 59.9970000  0 10G 6G15G16G17G18G21G26G29G30G22
  19609770.0404   -2503206.07849  -1945845.42148                  19609768.3374
        51.0004         40.0004
  22804386.4464   -8906706.37549  -6929669.65046                  22804384.5674
        42.0004         22.7504
  22858945.1734   -6519198.08249  -5071645.50346                  22858942.1574
        39.5004         23.7504
  23526541.5484     345650.48849    263160.64446                  23526540.8064
        40.2504         20.0004
  20043084.1424   -7974283.87549  -6191112.60847                  20043081.6734
        50.0004         39.0004
  20066805.6104   -6314664.13749  -4904442.72447                  20066802.1814
        50.2504         38.7504
  20760369.6104   -5439436.69149  -4222815.20747                  20760368.3374
        48.0004         34.0004
  21702113.2744   -3230461.34449  -2508882.47947                  21702111.7744
        42.5004         28.5004
  23697415.6424    2617965.03949   2025554.59146                  23697414.9544
        40.2504         21.7504
  22137821.3844  -10238709.02049  -7964628.85347                  22137817.7594
        45.0004         29.2504
 04  7  7 14 26  9.9970000  0 10G 6G15G16G17G18G21G26G29G30G22
  19608379.3454   -2510513.97349  -1951539.90448                  19608377.5564
        51.0004         40.5004
  22795852.8604   -8951548.13749  -6964611.30047                  22795851.7164
        43.0004         26.0004
  22853704.6104   -6546735.60949  -5093103.30146                  22853702.1424
        40.5004         24.7504
  23526897.2124     347519.59849    264617.07046                  23526896.7944
        40.5004         19.0004
  20036397.7354   -8009420.44549  -6218491.76948                  20036395.2044
        50.0004         39.5004
  20061108.8454   -6344599.02349  -4927768.62047                  20061105.6224
        50.5004         39.0004
  20756564.9544   -5459430.92649  -4238395.14547                  20756563.7984
        48.0004         34.7504
  21700175.7824   -3240643.00449  -2516816.28647                  21700173.8764
        44.5004         28.7504
  23699639.2354    2629652.13349   2034661.39946                  23699639.0794
        40.0004         22.2504
  22128469.1104  -10287854.97749  -8002924.38247                  22128465.2244
        44.5004         30.2504
 04  7  7 14 26 19.9970000  0  9G 6G15G16G18G21G26G29G30G22
  19606998.2434   -2517769.85549  -1957193.84048                  19606997.0604
        51.0004         40.0004
  22787319.9154   -8996388.88349  -6999552.15446                  22787318.3494
        41.5004         24.7504
  22848476.1034   -6574217.48049  -5114517.79646                  22848472.2984
        39.7504         23.0004
  20029719.7284   -8044512.80949  -6245836.46448                  20029717.2314
        50.2504         39.5004
  20055415.2984   -6374519.03149  -4951082.91248                  20055412.2864
        50.5004         39.5004
  20752773.8764   -5479353.45749  -4253919.19847                  20752772.9504
        48.0004         35.0004
  21698249.5244   -3250766.69949  -2524704.88647                  21698247.5634
        44.2504         29.5004
  23701860.4544    2641324.04349   2043756.37846                  23701860.0404
        40.5004         22.5004
  22119122.3764  -10336972.80549  -8041198.00447                  22119119.0444
        45.5004         29.7504
 04  7  7 14 26 29.9970000  0  9G 6G15G16G18G21G26G29G30G22
  19605627.3454   -2524975.34449  -1962808.50648                  19605626.0054
        50.7504         40.0004
  22778787.2674   -9041230.14149  -7034493.35346                  22778785.9744
        42.5004         24.5004
  22843256.0794   -6601645.19149  -5135890.04047                  22843253.0444
        40.7504         25.7504
  20023050.3214   -8079562.52749  -6273147.93348                  20023047.7204
        51.0004         40.0004
  20049724.3684   -6404425.68449  -4974386.80047                  20049720.9504
        50.5004         39.0004
  20748995.9934   -5499205.82849  -4269388.56847                  20748994.8334
        46.2504         34.7504
  21696333.9234   -3260834.01649  -2532549.52947                  21696331.7824
        42.7504         28.5004
  23704078.2124    2652979.24249   2052838.31646                  23704077.6774
        41.2504         22.7504
  22109780.8604  -10386063.93749  -8079450.84847                  22109776.5564
        45.2504         30.5004
 04  7  7 14 26 39.9970000  0  9G 6G15G16G18G21G26G29G30G22
  19604265.9154   -2532129.82049  -1968383.44448                  19604264.2824
        50.7504         40.5004
  22770254.3214   -9086071.39549  -7069434.60146                  22770252.5754
        39.5004         22.7504
  22838047.1494   -6629018.27349  -5157219.75046                  22838044.5794
        40.0004         24.7504
  20016388.6494   -8114568.90649  -6300425.64548                  20016386.2004
        50.0004         40.0004
  20044036.2124   -6434318.44549  -4997679.87047                  20044032.6614
        49.7504         39.2504
  20745232.0174   -5518987.40249  -4284802.78947                  20745230.7164
        46.2504         35.2504
  21694429.1104   -3270844.31649  -2540349.78347                  21694426.7314
        43.0004         30.0004
  23706293.5174    2664618.14849   2061907.57346                  23706292.3494
        41.2504         22.5004
  22100444.1344  -10435127.77049  -8117682.40847                  22100439.9784
        45.5004         31.2504
 04  7  7 14 26 49.9970000  0  9G 6G15G16G18G21G26G29G30G22
  19602914.3994   -2539232.27349  -1973917.83248                  19602912.8724
        50.5004         40.5004
  22761720.8294   -9130911.54349  -7104375.00146                  22761719.5444
        38.5004         24.5004
  22832849.1184   -6656335.50449  -5178505.89946                  22832846.7434
        41.0004         24.7504
  20009735.7204   -8149530.89149  -6327668.74548                  20009732.8174
        49.2504         40.0004
  20038350.2594   -6464196.25449  -5020961.29747                  20038347.2044
        49.5004         39.0004
  20741481.3134   -5538697.11749  -4300161.02747                  20741479.7984
        45.5004         34.5004
  21692534.6184   -3280796.61749  -2548104.81947                  21692532.9424
        43.0004         29.5004
  23708504.9544    2676241.88349   2070964.99746                  23708504.1424
        42.0004         22.0004
  22091112.7044  -10484163.16049  -8155891.80347                  22091109.5324
        44.7504         31.0004
 04  7  7 14 26 59.9970000  0  9G 6G15G16G18G21G26G29G30G22
  19601573.0484   -2546281.15649  -1979410.45648                  19601571.2434
        50.5004         39.5004
  22753188.6424   -9175748.89149  -7139313.17146                  22753187.6144
        41.7504         24.2504
  22827661.9234   -6683595.31649  -5199747.36046                  22827658.7314
        39.7504         24.5004
  20003091.5174   -8184446.82849  -6354875.94547                  20003088.8564
        50.7504         39.2504
  20032668.0404   -6494057.27349  -5044229.60947                  20032664.8174
        49.7504         38.7504
  20737744.4704   -5558333.21149  -4315461.87547                  20737743.5874
        46.2504         34.5004
  21690652.4314   -3290689.27049  -2555813.36947                  21690650.1224
        44.5004         29.5004
  23710714.3604    2687851.81349   2080011.66046                  23710713.5524
        42.5004         22.2504
  22081787.5014  -10533168.49649  -8194077.75347                  22081784.3454
        44.2504         30.0004
 04  7  7 14 27  9.9970000  0  9G 6G15G16G18G21G26G29G30G22
  19600241.4934   -2553277.48049  -1984862.14948                  19600239.5634
        51.2504         40.2504
  22744656.7204   -9220584.68749  -7174250.16646                  22744655.0914
        40.7504         23.5004
  22822485.2284   -6710798.91849  -5220944.93146                  22822482.7204
        40.7504         25.0004
  19996455.4464   -8219317.93749  -6382048.24448                  19996453.2634
        50.0004         39.5004
  20026988.6184   -6523902.71149  -5067485.79847                  20026985.3764
        50.0004         39.0004
  20734021.5714   -5577897.00849  -4330706.39047                  20734020.2634
        46.2504         34.5004
  21688780.4074   -3300523.68449  -2563476.56747                  21688779.2904
        44.0004         29.5004
  23712920.7744    2699446.67249   2089046.64046                  23712920.1264
        42.0004         22.7504
  22072467.7744  -10582144.91049  -8232241.19647                  22072464.7784
        44.5004         31.5004
 04  7  7 14 27 19.9970000  0  9G 6G15G16G18G21G26G29G30G22
  19598920.1344   -2560220.75849  -1990272.46448                  19598918.6774
        50.7504         39.5004
  22736125.7514   -9265418.37549  -7209185.45346                  22736123.8764
        42.2504         23.5004
  22817319.0014   -6737945.74249  -5242098.29846                  22817316.8294
        39.5004         23.2504
  19989828.4704   -8254143.66849  -6409185.13947                  19989825.6854
        50.0004         39.0004
  20021312.3684   -6553731.89149  -5090729.28247                  20021308.9154
        49.5004         38.0004
  20730312.7824   -5597387.88349  -4345894.05947                  20730311.4664
        46.0004         34.0004
  21686920.8134   -3310299.10949  -2571093.75147                  21686918.8024
        43.7504         28.5004
  23715124.7904    2711027.03949   2098070.32746                  23715123.7634
        41.5004         22.5004
  22063153.2124  -10631091.71149  -8270381.54147                  22063149.8804
        46.0004         30.5004
 04  7  7 14 27 29.9970000  0  9G 6G15G16G18G21G26G29G30G22
  19597609.2594   -2567110.80149  -1995641.37448                  19597607.4664
        51.2504         40.2504
  22727594.0324   -9310249.59049  -7244118.92846                  22727592.7044
        42.2504         24.2504
  22812164.7204   -6765035.39549  -5263207.16346                  22812162.0054
        41.0004         24.7504
  19983210.3374   -8288923.72349  -6436286.51048                  19983207.4544
        50.0004         39.7504
  20015639.1574   -6583544.60949  -5113960.01847                  20015636.0404
        50.0004         39.0004
  20726617.6344   -5616805.51249  -4361024.69547                  20726616.9744
        46.2504         34.0004
  21685071.6574   -3320015.32049  -2578664.86247                  21685069.9464
        43.2504         29.2504
  23717326.0014    2722593.08649   2107082.71746                  23717324.5634
        42.5004         22.2504
  22053844.4384  -10680008.59449  -8308498.61147                  22053841.2634
        46.0004         31.0004
 04  7  7 14 27 39.9970000  0  9G 6G15G16G18G21G26G29G30G22
  19596308.3064   -2573948.94549  -2000969.79348                  19596306.4424
        51.5004         39.7504
  22719063.5954   -9355079.78949  -7279051.50046                  22719061.1694
        42.0004         24.2504
  22807019.7984   -6792069.29749  -5284272.51546                  22807017.4154
        41.0004         25.0004
  19976599.9624   -8323659.43749  -6463353.29248                  19976597.4664
        50.5004         39.5004
  20009968.8374   -6613342.30949  -5137179.00047                  20009965.9704
        49.5004         38.5004
  20722936.2124   -5636151.32449  -4376099.35147                  20722935.2944
        44.7504         34.0004
  21683233.9934   -3329673.89149  -2586191.02047                  21683232.0094
        43.5004         29.7504
  23719523.4384    2734143.33649   2116082.97446                  23719521.8534
        43.2504         22.5004
  22044541.4624  -10728896.96549  -8346593.42847                  22044538.0994
        44.5004         30.7504
 04  7  7 14 27 49.9970000  0  9G 6G15G16G18G21G26G29G30G22
  19595016.9544   -2580733.01249  -2006256.10748                  19595014.9274
        51.0004         40.7504
  22710533.2744   -9399906.67249  -7313981.56646                  22710531.3964
        41.5004         24.0004
  22801886.4464   -6819045.26249  -5305292.78046                  22801884.0324
        41.0004         24.0004
  19969999.0244   -8358348.61749  -6490383.84048                  19969996.3254
        50.5004         40.0004
  20004302.0094   -6643122.73049  -5160384.53748                  20004298.3964
        50.0004         39.5004
  20719269.0014   -5655422.98049  -4391116.25147                  20719267.7554
        44.5004         35.5004
  21681407.3764   -3339272.57049  -2593670.53047                  21681405.7944
        43.0004         30.0004
  23721718.8294    2745679.85249   2125072.37546                  23721717.6144
        42.0004         22.7504
  22035244.6034  -10777754.59049  -8384664.32247                  22035241.3254
        45.5004         30.7504
 04  7  7 14 27 59.9970000  0  9G 6G15G16G18G21G26G29G30G22
  19593736.3374   -2587464.27049  -2011501.24448                  19593734.2904
        51.5004         40.0004
  22702003.3294   -9444731.48849  -7348910.00547                  22702001.5014
        41.5004         25.7504
  22796763.9314   -6845964.43749  -5326268.78546                  22796761.0714
        41.5004         25.5004
  19963406.3534   -8392992.40649  -6517378.99448                  19963404.0714
        50.5004         40.2504
  19998638.0794   -6672887.01649  -5183577.49547                  19998634.6464
        50.5004         38.7504
  20715615.3844   -5674621.78149  -4406076.36247                  20715614.4234
        45.5004         34.7504
  21679592.0954   -3348812.48849  -2601104.23447                  21679590.2164
        43.5004         28.7504
  23723911.3534    2757201.38749   2134050.20046                  23723909.5524
        42.0004         21.5004
  22025952.9314  -10826582.46149  -8422712.02347                  22025949.0284
        45.2504         31.0004
 04  7  7 14 28  9.9970000  0  9G 6G15G16G18G21G26G29G30G22
  19592464.8604   -2594144.68049  -2016706.77448                  19592463.1774
        51.5004         39.7504
  22693473.2824   -9489556.30149  -7383838.41447                  22693471.5954
        40.7504         26.0004
  22791651.2674   -6872828.94549  -5347202.14846                  22791649.0284
        41.5004         25.5004
  19956822.4234   -8427592.96949  -6544340.46448                  19956819.6344
        50.0004         39.5004
  19992976.5874   -6702637.22349  -5206759.46947                  19992973.2434
        50.5004         39.0004
  20711975.7204   -5693749.66049  -4420981.20247                  20711974.3924
        46.2504         34.5004
  21677787.3684   -3358295.73449  -2608493.77847                  21677785.6734
        43.2504         29.0004
  23726100.3844    2768705.86749   2143014.69246                  23726098.9854
        41.2504         20.0004
  22016666.1574  -10875382.72749  -8460738.18947                  22016662.6144
        44.5004         30.5004
 04  7  7 14 28 19.9970000  0  9G 6G15G16G18G21G26G29G30G22
  19591203.9234   -2600772.57449  -2021871.36548                  19591201.8604
        51.0004         39.5004
  22684943.8764   -9534379.34049  -7418765.46346                  22684942.0634
        43.0004         24.5004
  22786550.2904   -6899636.96949  -5368091.52046                  22786547.8294
        40.0004         24.5004
  19950246.3844   -8462148.38749  -6571266.76848                  19950243.6814
        50.5004         39.5004
  19987318.2824   -6732371.65249  -5229929.16447                  19987315.0174
        50.2504         38.7504
  20708349.8134   -5712804.96149  -4435829.48147                  20708348.4814
        46.2504         34.5004
  21675994.1424   -3367720.69149  -2615837.89847                  21675992.4314
        44.2504         29.5004
  23728286.4784    2780194.82149   2151967.17046                  23728285.5014
        41.0004         19.5004
  22007385.7284  -10924153.57849  -8498741.45147                  22007382.2554
        46.0004         29.7504
 04  7  7 14 28 29.9970000  0  9G 6G15G16G18G21G26G29G30G22
  19589952.1884   -2607349.75449  -2026996.45148                  19589950.3644
        51.2504         40.0004
  22676414.2744   -9579202.38349  -7453692.51246                  22676412.9034
        43.0004         25.0004
  22781459.1424   -6926390.29349  -5388938.28046                  22781456.4504
        40.0004         24.5004
  19943678.9784   -8496660.58649  -6598159.39247                  19943676.5174
        50.5004         39.0004
  19981662.9314   -6762092.00049  -5253087.88247                  19981659.3534
        50.5004         38.5004
  20704737.1814   -5731789.43749  -4450622.59047                  20704735.8494
        47.0004         33.7504
  21674211.2674   -3377089.16449  -2623138.02547                  21674209.8804
        44.2504         29.7504
  23730469.8374    2791666.41849   2160906.15846                  23730468.8064
        40.7504         18.2504
  21998109.8214  -10972896.78149  -8536723.16347                  21998106.7554
        46.0004         30.5004
 04  7  7 14 28 39.9970000  0  9G 6G15G16G18G21G26G29G30G22
  19588710.6264   -2613873.96149  -2032080.26048                  19588708.5914
        50.7504         40.5004
  22667885.2514   -9624023.12949  -7488617.79346                  22667883.8964
        44.0004         25.2504
  22776378.6034   -6953086.62949  -5409740.66146                  22776376.5794
        39.7504         25.2504
  19937120.3764   -8531127.16849  -6625016.46948                  19937117.9894
        50.7504         40.0004
  19976009.9234   -6791795.92649  -5276233.80447                  19976007.1104
        50.0004         39.0004
  20701138.5094   -5750700.71949  -4465358.66147                  20701137.1264
        46.7504         34.0004
  21672439.4234   -3386398.80949  -2630392.29547                  21672438.4894
        43.5004         30.0004
  23732650.0174    2803122.92249   2169833.25046                  23732649.2714
        40.2504         17.7504
  21988840.1654  -11021609.87949  -8574681.43347                  21988837.1344
        45.5004         31.2504
 04  7  7 14 28 49.9970000  0  9G 6G15G16G18G21G26G29G30G22
  19587478.7354   -2620346.85249  -2037124.06648                  19587477.0324
        51.7504         40.5004
  22659355.9314   -9668843.25449  -7523542.55447                  22659354.6424
        43.0004         26.5004
  22771309.2984   -6979727.68049  -5430499.89446                  22771307.6344
        41.5004         23.5004
  19930570.0794   -8565549.92249  -6651839.38447                  19930567.5284
        50.2504         39.2504
  19970360.5954   -6821485.13349  -5299368.24047                  19970357.4504
        51.0004         38.5004
  20697553.4784   -5769540.46949  -4480038.98247                  20697552.2164
        47.0004         34.2504
  21670678.8924   -3395651.42649  -2637602.12847                  21670678.0404
        42.5004         29.5004
  23734826.9234    2814562.54349   2178747.26246                  23734826.5444
        39.2504         18.5004
  21979575.8064  -11070294.66049  -8612617.59347                  21979573.0794
        46.0004         31.0004
 04  7  7 14 28 59.9970000  0  9G 6G15G16G18G21G26G29G30G22
  19586257.3684   -2626766.91449  -2042126.72148                  19586255.1964
        51.2504         40.7504
  22650827.8064   -9713661.18749  -7558465.61046                  22650826.6654
        42.5004         25.5004
  22766250.5634   -7006311.81649  -5451214.80946                  22766248.0604
        42.0004         23.5004
  19924027.9934   -8599927.18449  -6678626.86148                  19924025.3764
        50.2504         39.5004
  19964714.0014   -6851158.10249  -5322490.04547                  19964711.0284
        49.7504         39.2504
  20693982.2284   -5788307.17649  -4494662.39147                  20693980.8964
        46.5004         35.0004
  21668929.6734   -3404845.43049  -2644766.30147                  21668927.8804
        41.0004         30.5004
  23737000.3134    2825986.76649   2187649.21146                  23737000.0524
        37.5004         17.7504
  21970316.7354  -11118949.36349  -8650530.34647                  21970314.4784
        46.0004         31.7504
 04  7  7 14 29  9.9970000  0  9G 6G15G16G18G21G26G29G30G22
  19585045.7124   -2633134.55149  -2047088.53148                  19585043.4194
        51.2504         40.5004
  22642299.6814   -9758477.39149  -7593387.36547                  22642298.6694
        42.7504         26.5004
  22761202.5564   -7032839.54749  -5471885.78946                  22761200.1344
        41.2504         23.7504
  19917494.9384   -8634259.40249  -6705379.24748                  19917492.3804
        50.5004         40.2504
  19959070.5094   -6880815.18049  -5345599.45847                  19959067.1884
        50.5004         39.2504
  20690424.8214   -5807001.24249  -4509229.20747                  20690423.2354
        48.2504         35.2504
  21667190.9314   -3413981.29749  -2651885.17147                  21667189.3994
        42.5004         30.2504
  23739170.6034    2837395.00449   2196538.77346                  23739171.0364
        36.7504         16.2504
  21961063.9704  -11167574.51249  -8688420.07547                  21961060.9424
        46.0004         32.2504
 04  7  7 14 29 19.9970000  0  8G 6G15G16G18G21G26G29G22
  19583843.7674   -2639449.65249  -2052009.38148                  19583842.0094
        51.0004         40.0004
  22633771.8994   -9803291.66049  -7628307.56547                  22633770.5754
        43.2504         27.2504
  22756164.9784   -7059310.56249  -5492512.55946                  22756163.0794
        40.2504         24.2504
  19910970.3374   -8668546.39149  -6732096.37148                  19910967.8254
        50.7504         40.0004
  19953429.9704   -6910456.12549  -5368696.29348                  19953427.0094
        50.5004         39.5004
  20686881.7284   -5825622.40649  -4523739.20247                  20686880.2514
        47.7504         34.7504
  21665463.5484   -3423058.80549  -2658958.54147                  21665462.2354
        42.2504         30.0004
  21951816.7354  -11216169.75849  -8726286.48747                  21951813.5054
        46.5004         31.2504
 04  7  7 14 29 29.9970000  0  8G 6G15G16G18G21G26G29G22
  19582651.7284   -2645713.25449  -2056890.11748                  19582649.7434
        51.0004         40.2504
  22625243.9854   -9848105.02349  -7663227.06247                  22625242.8254
        43.5004         26.5004
  22751138.7434   -7085725.99249  -5513096.02246                  22751136.1774
        38.5004         23.5004
  19904454.1184   -8702789.17649  -6758779.06048                  19904451.5054
        50.5004         39.7504
  19947792.4854   -6940082.09049  -5391781.47047                  19947788.8494
        50.7504         39.0004
  20683351.6734   -5844171.82049  -4538193.28447                  20683349.7394
        47.2504         34.2504
  21663747.2124   -3432079.14149  -2665987.38347                  21663745.7554
        43.0004         30.5004
  21942574.8844  -11264736.16449  -8764130.43947                  21942571.0214
        46.5004         31.0004
 04  7  7 14 29 39.9970000  0  8G 6G15G16G18G21G26G29G22
  19581469.7124   -2651925.44949  -2061730.80247                  19581467.7004
        50.7504         39.2504
  22616716.1494   -9892917.63349  -7698145.97446                  22616715.5524
        42.2504         25.2504
  22746122.4854   -7112086.00449  -5533636.30146                  22746119.8804
        41.0004         23.0004
  19897946.1814   -8736987.91849  -6785427.43447                  19897943.9274
        50.5004         39.2504
  19942157.5174   -6969693.10549  -5414854.98747                  19942154.1304
        50.7504         39.0004
  20679835.8844   -5862649.62149  -4552591.57347                  20679833.9274
        47.5004         34.0004
  21662041.7594   -3441042.49649  -2672971.83447                  21662040.1814
        44.5004         31.0004
  21933338.0014  -11313273.89149  -8801952.05847                  21933334.9784
        45.5004         30.5004
 04  7  7 14 29 49.9970000  0  8G 6G15G16G18G21G26G29G22
  19580297.4154   -2658085.21549  -2066530.62948                  19580295.7314
        51.5004         39.7504
  22608188.9234   -9937728.27749  -7733063.36447                  22608188.2514
        42.5004         27.2504
  22741117.1104   -7138389.41449  -5554132.44446                  22741115.0094
        41.0004         24.0004
  19891447.2044   -8771141.41449  -6812040.54448                  19891444.4704
        50.5004         39.5004
  19936525.8214   -6999287.91849  -5437915.88647                  19936522.8604
        50.7504         38.7504
  20676333.3064   -5881054.49249  -4566933.03947                  20676332.0914
        47.5004         34.7504
  21660346.8064   -3449947.71549  -2679910.96047                  21660345.0754
        43.5004         30.5004
  21924107.2514  -11361781.63749  -8839750.28547                  21924104.1964
        45.0004         31.0004
 04  7  7 14 29 59.9970000  0  8G 6G15G16G18G21G26G29G22
  19579135.4314   -2664191.39849  -2071288.69848                  19579133.7044
        51.0004         39.7504
  22599662.2354   -9982535.91049  -7767978.40547                  22599661.3534
        43.0004         25.7504
  22736122.9074   -7164635.18449  -5574583.74246                  22736119.9584
        40.7504         23.7504
  19884956.8684   -8805248.60549  -6838617.57348                  19884954.3104
        50.5004         40.2504
  19930897.6654   -7028865.56649  -5460963.41547                  19930894.2354
        50.7504         39.0004
  20672844.4544   -5899385.45749  -4581216.91447                  20672843.4234
        46.7504         34.5004
  21658663.4854   -3458793.75849  -2686803.96947                  21658661.9584
        45.0004         30.5004
  21914882.7514  -11410258.35949  -8877524.36047                  21914879.4704
        45.2504         30.5004
 04  7  7 14 30  9.9970000  0  8G 6G15G16G18G21G26G29G22
  19577983.6184   -2670243.87149  -2076004.91148                  19577981.4274
        51.2504         40.5004
  22591136.2984  -10027340.26649  -7802890.89647                  22591135.5324
        43.0004         26.5004
  22731139.4624   -7190823.01649  -5594989.82947                  22731137.2674
        41.5004         26.0004
  19878475.0014   -8839309.30549  -6865158.38048                  19878472.5914
        50.5004         40.2504
  19925272.3844   -7058425.71949  -5483997.29347                  19925269.2004
        50.7504         39.0004
  20669370.5094   -5917642.28949  -4595443.02147                  20669369.4274
        47.5004         35.2504
  21656991.3764   -3467580.36349  -2693650.68447                  21656989.7434
        44.2504         31.2504
  21905664.3374  -11458703.63349  -8915273.93447                  21905660.8644
        45.7504         31.5004
 04  7  7 14 30 19.9970000  0  8G 6G15G16G18G21G26G29G22
  19576841.7594   -2676244.97749  -2080681.12048                  19576840.0524
        51.5004         40.5004
  22582610.7434  -10072143.81249  -7837802.74346                  22582609.8804
        43.5004         25.5004
  22726166.8454   -7216955.27349  -5615352.66846                  22726163.9934
        42.0004         24.5004
  19872002.1654   -8873325.89549  -6891664.81948                  19871999.2434
        51.2504         40.2504
  19919649.9934   -7087970.78949  -5507019.44048                  19919647.0404
        51.0004         39.5004
  20665909.9784   -5935827.41449  -4609613.26447                  20665908.8884
        47.0004         35.5004
  21655330.0324   -3476309.99249  -2700453.00047                  21655328.4544
        43.7504         31.5004
  21896450.5634  -11507119.95749  -8953000.92647                  21896447.1144
        45.5004         30.7504
 04  7  7 14 30 29.9970000  0  8G 6G15G16G18G21G26G29G22
  19575709.7284   -2682193.37149  -2085316.23648                  19575707.8414
        50.5004         39.7504
  22574084.9234  -10116945.12549  -7872712.83147                  22574084.5214
        43.2504         26.2504
  22721205.1104   -7243030.57849  -5635671.08346                  22721202.2164
        40.5004         24.5004
  19865537.5954   -8907296.87149  -6918135.70948                  19865534.7714
        51.0004         39.7504
  19914030.9624   -7117499.32449  -5530028.68947                  19914027.8994
        51.0004         38.5004
  20662463.3214   -5953939.30149  -4623726.41447                  20662462.4384
        47.0004         35.2504
  21653680.2514   -3484981.27349  -2707209.84847                  21653678.4154
        45.0004         31.0004
  21887242.9704  -11555505.77049  -8990704.16347                  21887239.2084
        45.2504         30.5004
 04  7  7 14 30 39.9970000  0  8G 6G15G16G18G21G26G29G22
  19574588.2434   -2688088.37949  -2089909.74648                  19574585.6774
        50.2504         39.5004
  22565560.8214  -10161743.52349  -7907620.72747                  22565559.6344
        44.5004         26.0004
  22716253.8684   -7269048.30949  -5655944.62246                  22716251.6534
        40.0004         24.2504
  19859081.7434   -8941221.62949  -6944570.57148                  19859078.9974
        51.0004         39.5004
  19908415.2904   -7147010.71149  -5553024.57247                  19908411.8254
        51.5004         38.2504
  20659030.7744   -5971977.32849  -4637782.02147                  20659029.4194
        47.5004         34.7504
  21652041.3994   -3493593.64549  -2713920.78947                  21652039.8064
        44.5004         30.5004
  21878041.6494  -11603860.48049  -9028383.15547                  21878037.6424
        45.5004         30.5004
 04  7  7 14 30 49.9970000  0  8G 6G15G16G18G21G26G29G22
  19573476.7984   -2693928.99249  -2094460.88248                  19573474.7944
        51.5004         39.7504
  22557036.1184  -10206537.89849  -7942525.40446                  22557035.7904
        44.5004         25.2504
  22711313.7354   -7295007.34449  -5676172.48146                  22711311.4664
        41.7504         25.2504
  19852635.4784   -8975099.03549  -6970968.55547                  19852632.4704
        51.0004         39.0004
  19902802.9854   -7176503.88349  -5576006.26247                  19902799.4314
        51.7504         38.2504
  20655612.5794   -5989940.38349  -4651779.21047                  20655611.3644
        47.2504         34.5004
  21650413.7674   -3502145.99649  -2720584.96547                  21650412.4544
        44.7504         30.5004
  21868846.3844  -11652182.93049  -9066037.01947                  21868842.8134
        45.0004         30.0004
 04  7  7 14 30 59.9970000  0  8G 6G15G16G18G21G26G29G22
  19572375.2674   -2699716.62549  -2098970.73448                  19572373.4934
        51.0004         39.7504
  22548513.1814  -10251329.68449  -7977428.09347                  22548511.6654
        44.2504         26.0004
  22706384.8684   -7320909.15649  -5696355.68446                  22706382.7474
        41.0004         23.7504
  19846197.2904   -9008930.56649  -6997330.78648                  19846194.5524
        51.0004         39.5004
  19897193.7204   -7205980.22349  -5598974.83547                  19897190.5214
        51.0004         39.0004
  20652208.1654   -6007829.89549  -4665719.09047                  20652206.9704
        47.0004         34.5004
  21648797.0874   -3510639.82049  -2727203.54347                  21648796.8024
        44.2504         30.5004
  21859656.5714  -11700474.56249  -9103666.84547                  21859653.2244
        46.0004         31.2504
 04  7  7 14 31  9.9970000  0  8G 6G15G16G18G21G26G29G22
  19571283.9464   -2705451.97349  -2103439.84848                  19571282.1304
        51.2504         40.0004
  22539989.0564  -10296119.52349  -8012329.27346                  22539988.2984
        44.0004         25.5004
  22701466.5714   -7346754.37149  -5716494.87146                  22701464.5214
        41.0004         23.7504
  19839767.9704   -9042716.86749  -7023657.78548                  19839765.3604
        50.7504         40.0004
  19891587.4464   -7235440.21149  -5621930.67647                  19891584.4704
        51.0004         39.2504
  20648818.0324   -6025646.54349  -4679602.21147                  20648816.7514
        47.0004         34.2504
  21647192.6034   -3519075.82049  -2733777.06647                  21647191.3804
        45.2504         30.2504
  21850472.5794  -11748735.94549  -9141273.13647                  21850469.2394
        45.0004         31.5004
 04  7  7 14 31 19.9970000  0  8G 6G15G16G18G21G26G29G22
  19570202.5324   -2711134.78149  -2107868.01448                  19570201.0994
        51.0004         40.0004
  22531466.6574  -10340907.21149  -8047228.79847                  22531465.5754
        44.2504         26.5004
  22696559.4784   -7372542.76349  -5736589.75846                  22696557.6734
        40.2504         23.0004
  19833347.5634   -9076457.78949  -7049949.39448                  19833344.6854
        51.0004         40.2504
  19885984.9854   -7264883.71549  -5644873.67448                  19885981.5054
        51.0004         39.5004
  20645441.4854   -6043390.08649  -4693428.34147                  20645440.0954
        47.0004         35.2504
  21645597.6574   -3527453.85249  -2740305.40147                  21645596.6734
        44.0004         31.5004
  21841294.8454  -11796966.78949  -9178855.60647                  21841291.3964
        44.7504         31.5004
 04  7  7 14 31 29.9970000  0  8G 6G15G16G18G21G26G29G22
  19569130.6884   -2716766.45349  -2112256.34248                  19569129.4584
        51.5004         40.0004
  22522943.8994  -10385694.05149  -8082127.61647                  22522942.7394
        43.5004         26.7504
  22691662.2354   -7398275.69549  -5756641.37446                  22691660.0874
        41.0004         24.0004
  19826935.2674   -9110154.44949  -7076206.55148                  19826932.5484
        50.7504         40.2504
  19880384.8534   -7294312.00049  -5667804.82247                  19880381.7714
        50.5004         39.2504
  20642078.6424   -6061061.85249  -4707198.56847                  20642077.2284
        47.0004         35.5004
  21644014.5794   -3535775.18749  -2746789.57947                  21644013.0674
        44.5004         31.5004
  21832122.6574  -11845168.30949  -9216415.23447                  21832119.1464
        44.7504         32.0004
 04  7  7 14 31 39.9970000  0  8G 6G15G16G18G21G26G29G22
  19568068.8374   -2722346.17649  -2116604.18148                  19568067.2984
        50.5004         40.0004
  22514421.8454  -10430479.25449  -8117025.20647                  22514420.3644
        43.5004         26.0004
  22686776.4544   -7423952.28149  -5776649.08446                  22686774.1694
        41.0004         23.5004
  19820531.3454   -9143806.17249  -7102428.66748                  19820528.8064
        51.0004         40.0004
  19874787.8684   -7323724.24249  -5690723.44747                  19874784.2204
        51.0004         39.2504
  20638729.5484   -6078661.03949  -4720912.21947                  20638728.6064
        47.5004         35.0004
  21642442.0714   -3544038.98049  -2753228.88647                  21642440.2474
        45.7504         31.7504
  21822955.4154  -11893339.76649  -9253951.45047                  21822952.0484
        45.0004         31.7504
 04  7  7 14 31 49.9970000  0  8G 6G15G16G18G21G26G29G22
  19567016.9464   -2727873.92649  -2120911.51447                  19567015.4814
        50.7504         39.2504
  22505899.5874  -10475262.66449  -8151921.33347                  22505897.9744
        44.5004         26.0004
  22681900.7354   -7449572.48849  -5796612.88646                  22681898.7864
        40.0004         24.0004
  19814136.5174   -9177412.91049  -7128615.72648                  19814133.7824
        51.0004         40.0004
  19869194.1104   -7353120.42249  -5713629.55647                  19869190.7434
        51.0004         38.5004
  20635394.4704   -6096187.41449  -4734569.11947                  20635393.0404
        47.2504         34.7504
  21640880.3214   -3552245.36749  -2759623.46847                  21640878.8764
        45.2504         31.0004
  21813794.2744  -11941480.98449  -9291464.06347                  21813791.3064
        45.0004         30.7504
 04  7  7 14 31 59.9970000  0  8G 6G15G16G18G21G26G29G22
  19565975.1494   -2733350.40649  -2125178.92047                  19565973.5094
        50.5004         39.2504
  22497377.4624  -10520045.16449  -8186816.82046                  22497376.3924
        43.0004         25.5004
  22677036.6654   -7475137.12949  -5816533.39846                  22677034.6424
        39.0004         23.5004
  19807749.3294   -9210975.42649  -7154768.34248                  19807747.1304
        50.7504         39.7504
  19863602.8604   -7382501.29349  -5736523.75047                  19863599.4744
        50.5004         38.5004
  20632073.1264   -6113641.98849  -4748170.09547                  20632071.6654
        48.5004         35.0004
  21639329.6104   -3560395.17249  -2765973.98047                  21639328.6144
        46.0004         31.2504
  21804638.6814  -11989592.78549  -9328953.77247                  21804636.2164
        45.7504         31.0004
 04  7  7 14 32  9.9970000  0  8G 6G15G16G18G21G26G29G22
  19564942.8064   -2738774.41849  -2129405.39248                  19564941.4194
        50.2504         39.7504
  22488856.5014  -10564825.33649  -8221710.40246                  22488854.6854
        42.5004         25.0004
  22672182.1184   -7500644.78549  -5836409.43446                  22672179.8844
        40.0004         24.7504
  19801371.6344   -9244492.26249  -7180885.32047                  19801369.0484
        50.2504         39.2504
  19858015.1264   -7411865.39149  -5759404.83447                  19858011.8764
        50.0004         38.5004
  20628765.3374   -6131023.27049  -4761713.91747                  20628764.1064
        47.7504         34.5004
  21637789.7044   -3568486.93049  -2772279.23247                  21637788.3214
        45.0004         30.7504
  21795489.8924  -12037673.69549  -9366419.36447                  21795486.5634
        47.0004         31.2504
 04  7  7 14 32 19.9970000  0  8G 6G15G16G18G21G26G29G22
  19563920.6264   -2744147.23449  -2133592.04848                  19563918.4154
        50.2504         40.2504
  22480335.1654  -10609604.54749  -8256603.32146                  22480333.9274
        42.7504         22.7504
  22667338.7824   -7526096.82449  -5856242.26346                  22667336.6814
        39.0004         23.7504
  19795001.9154   -9277964.86349  -7206967.89648                  19794999.5524
        51.0004         39.7504
  19852430.1424   -7441214.19149  -5782274.07347                  19852427.1144
        50.0004         39.0004
  20625471.4784   -6148332.64549  -4775201.77747                  20625470.3414
        48.2504         35.0004
  21636260.6574   -3576522.09049  -2778540.42247                  21636259.8214
        46.5004         32.0004
  21786346.1574  -12085725.02749  -9403862.00547                  21786342.9854
        45.5004         32.2504
 04  7  7 14 32 29.9970000  0  8G 6G15G16G18G21G26G29G22
  19562907.6034   -2749468.98849  -2137738.86048                  19562906.1304
        51.0004         39.5004
  22471813.9154  -10654382.78549  -8291495.46146                  22471813.1064
        41.5004         25.0004
  22662505.9464   -7551493.22749  -5876031.64846                  22662503.9544
        40.2504         24.5004
  19788640.5794   -9311393.25849  -7233015.98047                  19788638.3884
        51.2504         39.2504
  19846848.3764   -7470547.60549  -5805131.27347                  19846844.8024
        51.2504         39.2504
  20622191.3294   -6165570.15249  -4788633.58947                  20622190.4154
        48.0004         35.0004
  21634741.8844   -3584500.74649  -2784757.54647                  21634741.2824
        45.5004         31.5004
  21777207.2434  -12133746.77049  -9441281.53747                  21777204.7434
        46.5004         31.2504
 04  7  7 14 32 39.9970000  0  8G 6G15G16G18G21G26G29G22
  19561904.7044   -2754739.48449  -2141845.76248                  19561903.3994
        51.0004         40.2504
  22463293.0954  -10699159.93449  -8326386.76446                  22463291.8134
        42.7504         25.0004
  22657683.8844   -7576833.93049  -5895777.69447                  22657681.4074
        40.7504         26.0004
  19782287.8604   -9344777.25049  -7259029.49648                  19782285.2244
        50.5004         40.0004
  19841269.2674   -7499865.43049  -5827976.35948                  19841265.7594
        51.0004         40.0004
  20618924.9784   -6182735.60549  -4802009.28947                  20618923.7594
        49.0004         35.5004
  21633234.8294   -3592422.78549  -2790930.57647                  21633233.5834
        46.0004         31.7504
  21768074.9624  -12181738.70749  -9478677.85347                  21768072.2864
        47.0004         31.7504
 04  7  7 14 32 49.9970000  0  8G 6G15G16G18G21G26G29G22
  19560911.4074   -2759959.59849  -2145913.39348                  19560909.8254
        51.0004         40.5004
  22454772.9704  -10743936.70749  -8361277.72546                  22454771.6774
        41.7504         25.2504
  22652871.9544   -7602119.77049  -5915480.96146                  22652869.5364
        41.5004         24.0004
  19775943.4544   -9378117.69149  -7285009.07048                  19775940.7044
        50.5004         40.0004
  19835693.0014   -7529168.45349  -5850809.88147                  19835689.7514
        52.0004         39.0004
  20615672.0714   -6199829.81649  -4815329.44547                  20615670.8924
        48.0004         34.7504
  21631737.6494   -3600288.98449  -2797060.09547                  21631736.5524
        44.7504         31.5004
  21758948.1424  -12229701.56649  -9516051.50747                  21758944.3764
        47.0004         31.7504
 04  7  7 14 32 59.9960000  0  8G 6G15G16G18G21G26G29G22
  19559927.7384   -2765128.96949  -2149941.46848                  19559926.2314
        50.2504         39.7504
  22446252.9184  -10788708.85249  -8396165.11246                  22446251.7814
        42.5004         24.5004
  22648072.0204   -7627348.29749  -5935139.55547                  22648068.6914
        41.5004         26.7504
  19769608.1064   -9411411.32449  -7310952.14648                  19769605.5044
        51.7504         39.5004
  19830120.2704   -7558453.96949  -5873629.75747                  19830116.9574
        51.0004         38.7504
  20612433.0664   -6216851.18749  -4828592.85547                  20612431.8484
        48.0004         34.2504
  21630251.5434   -3608098.80549  -2803145.66547                  21630251.1564
        45.2504         30.5004
  21749827.3324  -12277630.78149  -9553398.94847                  21749823.9184
        46.0004         31.5004
 04  7  7 14 33  9.9960000  0  8G 6G15G16G18G21G26G29G22
  19558953.8324   -2770247.79749  -2153930.18048                  19558951.8674
        50.0004         40.0004
  22437732.2704  -10833484.44549  -8431055.20746                  22437731.0084
        41.0004         25.2504
  22643281.3094   -7652523.82449  -5954756.86947                  22643278.1724
        39.5004         26.0004
  19763280.2074   -9444664.11349  -7336863.42248                  19763277.1094
        50.7504         39.7504
  19824549.6914   -7587726.96549  -5896439.89247                  19824546.2234
        51.0004         39.0004
  20609207.3014   -6233802.34849  -4841801.55047                  20609206.2234
        48.7504         34.7504
  21628776.7774   -3615852.98849  -2809187.90747                  21628775.3324
        45.0004         31.0004
  21740711.4024  -12325535.03549  -9590726.95547                  21740708.1484
        46.7504         31.7504
 04  7  7 14 33 19.9960000  0  8G 6G15G16G18G21G26G29G22
  19557989.1684   -2775314.96949  -2157878.60147                  19557988.0164
        49.7504         39.2504
  22429211.9734  -10878258.41449  -8465944.00246                  22429210.5594
        41.0004         24.5004
  22638500.7464   -7677643.07049  -5974330.29646                  22638497.7624
        40.0004         24.5004
  19756960.8714   -9477871.91849  -7362739.61048                  19756958.1884
        50.5004         39.5004
  19818982.2464   -7616983.82449  -5919237.42747                  19818979.1294
        50.7504         38.5004
  20605995.3094   -6250680.92249  -4854953.66947                  20605994.3874
        49.2504         34.0004
  21627311.3404   -3623550.27749  -2815185.77547                  21627310.1374
        45.0004         29.7504
  21731601.3014  -12373408.75049  -9628031.12147                  21731598.3014
        46.5004         31.5004
 04  7  7 14 33 29.9960000  0  8G 6G15G16G18G21G26G29G22
  19557034.5124   -2780332.84449  -2161788.66148                  19557033.0904
        50.0004         39.7504
  22420691.8324  -10923033.16049  -8500833.40746                  22420690.3754
        41.0004         22.2504
  22633731.2154   -7702708.45749  -5993861.82047                  22633728.7074
        40.0004         25.7504
  19750649.6134   -9511037.21549  -7388582.71448                  19750646.7544
        50.5004         40.0004
  19813417.4494   -7646226.98849  -5942024.33447                  19813414.2274
        51.0004         39.0004
  20602796.8484   -6267489.33649  -4868051.17147                  20602795.7314
        48.2504         34.7504
  21625857.1524   -3631192.85549  -2821141.06247                  21625856.3244
        44.7504         30.2504
  21722496.6374  -12421254.39549  -9665313.46547                  21722493.2664
        46.5004         31.5004
 04  7  7 14 33 39.9960000  0  8G 6G15G16G18G21G26G29G22
  19556089.2464   -2785300.41849  -2165659.51048                  19556087.5514
        51.0004         39.5004
  22412171.4344  -10967807.52749  -8535722.55746                  22412169.5474
        41.0004         24.0004
  22628971.9264   -7727718.93749  -6013350.52146                  22628969.2194
        40.7504         24.2504
  19744347.0904   -9544158.79349  -7414391.74348                  19744344.1064
        51.0004         40.5004
  19807855.9494   -7675455.14149  -5964799.52647                  19807852.2974
        50.7504         39.2504
  20599611.8164   -6284226.44549  -4881093.06747                  20599610.7894
        48.5004         34.7504
  21624413.4574   -3638779.87949  -2827053.04747                  21624411.7194
        45.0004         31.0004
  21713397.5664  -12469070.61349  -9702572.86947                  21713394.1334
        46.2504         31.5004
